[[{"header":{"parameterUnit":"m.s-1","parameterCategory":1,"la1":30.6,"la2":28.766,"lo1":-90.7593,"lo2":-88.6598,"dy":0.0162,"dx":0.0183,"nx":116,"ny":114,"refTime":"2023-11-22T18:00:00:Z","depth":0,"parameterNumber":2,"parameterNumberName":"U-component_of_WINDS"},"data":[0.0,0.0,0.0,0.0,0.0,0.0,0.0,0.0,0.0,0.0,0.0,0.0,0.0,0.0,0.0,0.0,0.0,0.0,0.0,0.0,0.0,0.0,0.0,0.0,0.0,0.0,0.0,0.0,0.0,0.0,0.0,0.0,0.0,0.0,0.0,0.0,0.0,0.0,0.0,0.0,0.0,0.0,0.0,0.0,0.0,0.0,0.0,0.0,0.0,0.0,0.0,0.0,0.0,0.0,0.0,0.0,0.0,0.0,0.0,0.0,0.0,0.0,0.0,0.0,0.0,0.0,0.0,0.0,0.0,0.0,0.0,0.0,0.0,0.0,0.0,0.0,0.0,0.0,0.0,0.0,0.0,0.0,0.0,0.0,0.0,0.0,0.0,0.0,0.0,0.0,0.0,0.0,0.0,0.0,0.0,0.0,0.0,0.0,0.0,0.0,0.0,0.0,0.0,0.0,0.0,0.0,0.0,0.0,0.0,0.0,0.0,0.0,0.0,0.0,0.0,0.0,0.0,0.0,0.0,0.0,0.0,0.0,0.0,0.0,0.0,0.0,0.0,0.0,0.0,0.0,0.0,0.0,0.0,0.0,0.0,0.0,0.0,0.0,0.0,0.0,0.0,0.0,0.0,0.0,0.0,0.0,0.0,0.0,0.0,0.0,0.0,0.0,0.0,0.0,0.0,0.0,0.0,0.0,0.0,0.0,0.0,0.0,0.0,0.0,0.0,0.0,0.0,0.0,0.0,0.0,0.0,0.0,0.0,0.0,0.0,0.0,0.0,0.0,0.0,0.0,0.0,0.0,0.0,0.0,0.0,0.0,0.0,0.0,0.0,0.0,0.0,0.0,0.0,0.0,0.0,0.0,0.0,0.0,0.0,0.0,0.0,0.0,0.0,0.0,0.0,0.0,0.0,0.0,0.0,0.0,0.0,0.0,0.0,0.0,0.0,0.0,0.0,0.0,0.0,0.0,0.0,0.0,0.0,0.0,0.0,0.0,0.0,0.0,0.0,0.0,0.0,0.0,0.0,0.0,0.0,0.0,0.0,0.0,0.0,0.0,0.0,0.0,0.0,0.0,0.0,0.0,0.0,0.0,0.0,0.0,0.0,0.0,0.0,0.0,0.0,0.0,0.0,0.0,0.0,0.0,0.0,0.0,0.0,0.0,0.0,0.0,0.0,0.0,0.0,0.0,0.0,0.0,0.0,0.0,0.0,0.0,0.0,0.0,0.0,0.0,0.0,0.0,0.0,0.0,0.0,0.0,0.0,0.0,0.0,0.0,0.0,0.0,0.0,0.0,0.0,0.0,0.0,0.0,0.0,0.0,0.0,0.0,0.0,0.0,0.0,0.0,0.0,0.0,0.0,0.0,0.0,0.0,0.0,0.0,0.0,0.0,0.0,0.0,0.0,0.0,0.0,0.0,0.0,0.0,0.0,0.0,0.0,0.0,0.0,0.0,0.0,0.0,0.0,0.0,0.0,0.0,0.0,0.0,0.0,0.0,0.0,0.0,0.0,0.0,0.0,0.0,0.0,0.0,0.0,0.0,0.0,0.0,0.0,0.0,0.0,0.0,0.0,0.0,0.0,0.0,0.0,0.0,0.0,0.0,0.0,0.0,0.0,0.0,0.0,0.0,0.0,0.0,0.0,0.0,0.0,0.0,0.0,0.0,0.0,0.0,0.0,0.0,0.0,0.0,0.0,0.0,0.0,0.0,0.0,0.0,0.0,0.0,0.0,0.0,0.0,0.0,0.0,0.0,0.0,0.0,0.0,0.0,0.0,0.0,0.0,0.0,0.0,0.0,0.0,0.0,0.0,0.0,0.0,0.0,0.0,0.0,0.0,0.0,0.0,0.0,0.0,0.0,0.0,0.0,0.0,0.0,0.0,0.0,0.0,0.0,0.0,0.0,0.0,0.0,0.0,0.0,0.0,0.0,0.0,0.0,0.0,0.0,0.0,0.0,0.0,0.0,0.0,0.0,0.0,0.0,0.0,0.0,0.0,0.0,0.0,0.0,0.0,0.0,0.0,0.0,0.0,0.0,0.0,0.0,0.0,0.0,0.0,0.0,0.0,0.0,0.0,0.0,0.0,0.0,0.0,0.0,0.0,0.0,0.0,0.0,0.0,0.0,0.0,0.0,0.0,0.0,0.0,0.0,0.0,0.0,0.0,0.0,0.0,0.0,0.0,0.0,0.0,0.0,0.0,0.0,0.0,0.0,0.0,0.0,0.0,0.0,0.0,0.0,0.0,0.0,0.0,0.0,0.0,0.0,0.0,0.0,0.0,0.0,0.0,0.0,0.0,0.0,0.0,0.0,0.0,0.0,0.0,0.0,0.0,0.0,0.0,0.0,0.0,0.0,0.0,0.0,0.0,0.0,0.0,0.0,0.0,0.0,0.0,0.0,0.0,0.0,0.0,0.0,0.0,0.0,0.0,0.0,0.0,0.0,0.0,0.0,0.0,0.0,0.0,0.0,0.0,0.0,0.0,0.0,0.0,0.0,0.0,0.0,0.0,0.0,0.0,0.0,0.0,0.0,0.0,0.0,0.0,0.0,0.0,0.0,0.0,0.0,0.0,0.0,0.0,0.0,0.0,0.0,0.0,0.0,0.0,0.0,0.0,0.0,0.0,0.0,0.0,0.0,0.0,0.0,0.0,0.0,0.0,0.0,0.0,0.0,0.0,0.0,0.0,0.0,0.0,0.0,0.0,0.0,0.0,0.0,0.0,0.0,0.0,0.0,0.0,0.0,0.0,0.0,0.0,0.0,0.0,0.0,0.0,0.0,0.0,0.0,0.0,0.0,0.0,0.0,0.0,0.0,0.0,0.0,0.0,0.0,0.0,0.0,0.0,0.0,0.0,0.0,0.0,0.0,0.0,0.0,0.0,0.0,0.0,0.0,0.0,0.0,0.0,0.0,0.0,0.0,0.0,0.0,0.0,0.0,0.0,0.0,0.0,0.0,0.0,0.0,0.0,0.0,0.0,0.0,0.0,0.0,0.0,0.0,0.0,0.0,0.0,0.0,0.0,0.0,0.0,0.0,0.0,0.0,0.0,0.0,0.0,0.0,0.0,0.0,0.0,0.0,0.0,0.0,0.0,0.0,0.0,0.0,0.0,0.0,0.0,0.0,0.0,0.0,0.0,0.0,0.0,0.0,0.0,0.0,0.0,0.0,0.0,0.0,0.0,0.0,0.0,0.0,0.0,0.0,0.0,0.0,0.0,0.0,0.0,0.0,0.0,0.0,0.0,0.0,0.0,0.0,0.0,0.0,0.0,0.0,0.0,0.0,0.0,0.0,0.0,0.0,0.0,0.0,0.0,0.0,0.0,0.0,0.0,0.0,0.0,0.0,0.0,0.0,0.0,0.0,0.0,0.0,0.0,0.0,0.0,0.0,0.0,0.0,0.0,0.0,0.0,0.0,0.0,0.0,0.0,0.0,0.0,0.0,0.0,0.0,0.0,0.0,0.0,0.0,0.0,0.0,0.0,0.0,0.0,0.0,0.0,0.0,0.0,0.0,0.0,0.0,0.0,0.0,0.0,0.0,0.0,0.0,0.0,0.0,0.0,0.0,0.0,0.0,0.0,0.0,0.0,0.0,0.0,0.0,0.0,0.0,0.0,0.0,0.0,0.0,0.0,0.0,0.0,0.0,0.0,0.0,0.0,0.0,0.0,0.0,0.0,0.0,0.0,0.0,0.0,0.0,0.0,0.0,0.0,0.0,0.0,0.0,0.0,0.0,0.0,0.0,0.0,0.0,0.0,0.0,0.0,0.0,0.0,0.0,0.0,0.0,0.0,0.0,0.0,0.0,0.0,0.0,0.0,0.0,0.0,0.0,0.0,0.0,0.0,0.0,0.0,0.0,0.0,0.0,0.0,0.0,0.0,0.0,0.0,0.0,0.0,0.0,0.0,0.0,0.0,0.0,0.0,0.0,0.0,0.0,0.0,0.0,0.0,0.0,0.0,0.0,0.0,0.0,0.0,0.0,0.0,0.0,0.0,0.0,0.0,0.0,0.0,0.0,0.0,0.0,0.0,0.0,0.0,0.0,0.0,0.0,0.0,0.0,0.0,0.0,0.0,0.0,0.0,0.0,0.0,0.0,0.0,0.0,0.0,0.0,0.0,0.0,0.0,0.0,0.0,0.0,0.0,0.0,0.0,0.0,0.0,0.0,0.0,0.0,0.0,0.0,0.0,0.0,0.0,0.0,0.0,0.0,0.0,0.0,0.0,0.0,0.0,0.0,0.0,0.0,0.0,0.0,0.0,0.0,0.0,0.0,0.0,0.0,0.0,0.0,0.0,0.0,0.0,0.0,0.0,0.0,0.0,0.0,0.0,0.0,0.0,0.0,0.0,0.0,0.0,0.0,0.0,0.0,0.0,0.0,0.0,0.0,0.0,0.0,0.0,0.0,0.0,0.0,0.0,0.0,0.0,0.0,0.0,0.0,0.0,0.0,0.0,0.0,0.0,0.0,0.0,0.0,0.0,0.0,0.0,0.0,0.0,0.0,0.0,0.0,0.0,0.0,0.0,0.0,0.0,0.0,0.0,0.0,0.0,0.0,0.0,0.0,0.0,0.0,0.0,0.0,0.0,0.0,0.0,0.0,0.0,0.0,0.0,0.0,0.0,0.0,0.0,0.0,0.0,0.0,0.0,0.0,0.0,0.0,0.0,0.0,0.0,0.0,0.0,0.0,0.0,0.0,0.0,0.0,0.0,0.0,0.0,0.0,0.0,0.0,0.0,0.0,0.0,0.0,0.0,0.0,0.0,0.0,0.0,0.0,0.0,0.0,0.0,0.0,0.0,0.0,0.0,0.0,0.0,0.0,0.0,0.0,0.0,0.0,0.0,0.0,0.0,0.0,0.0,0.0,0.0,0.0,0.0,0.0,0.0,0.0,0.0,0.0,0.0,0.0,0.0,0.0,0.0,0.0,0.0,0.0,0.0,0.0,0.0,0.0,0.0,0.0,0.0,0.0,0.0,0.0,0.0,0.0,0.0,0.0,0.0,0.0,0.0,0.0,0.0,0.0,0.0,0.0,0.0,0.0,0.0,0.0,0.0,0.0,0.0,0.0,0.0,0.0,0.0,0.0,0.0,0.0,0.0,0.0,0.0,0.0,0.0,0.0,0.0,0.0,0.0,0.0,0.0,0.0,0.0,0.0,0.0,0.0,0.0,0.0,0.0,0.0,0.0,0.0,0.0,0.0,0.0,0.0,0.0,0.0,0.0,0.0,0.0,0.0,0.0,0.0,0.0,0.0,0.0,0.0,0.0,0.0,0.0,0.0,0.0,0.0,0.0,0.0,0.0,0.0,0.0,0.0,0.0,0.0,0.0,0.0,0.0,0.0,0.0,0.0,0.0,0.0,0.0,0.0,0.0,0.0,0.0,0.0,0.0,0.0,0.0,0.0,0.0,0.0,0.0,0.0,0.0,0.0,0.0,0.0,0.0,0.0,0.0,0.0,0.0,0.0,0.0,0.0,0.0,0.0,0.0,0.0,0.0,0.0,0.0,0.0,0.0,0.0,0.0,0.0,0.0,0.0,0.0,0.0,0.0,0.0,0.0,0.0,0.0,0.0,0.0,0.0,0.0,0.0,0.0,0.0,0.0,0.0,0.0,0.0,0.0,0.0,0.0,0.0,0.0,0.0,0.0,0.0,0.0,0.0,0.0,0.0,0.0,0.0,0.0,0.0,0.0,0.0,0.0,0.0,0.0,0.0,0.0,0.0,0.0,0.0,0.0,0.0,0.0,0.0,0.0,0.0,0.0,0.0,0.0,0.0,0.0,0.0,0.0,0.0,0.0,0.0,0.0,0.0,0.0,0.0,0.0,0.0,0.0,0.0,0.0,0.0,0.0,0.0,0.0,0.0,0.0,0.0,0.0,0.0,0.0,0.0,0.0,0.0,0.0,0.0,0.0,0.0,0.0,0.0,0.0,0.0,0.0,0.0,0.0,0.0,0.0,0.0,0.0,0.0,0.0,0.0,0.0,0.0,0.0,0.0,0.0,0.0,0.0,0.0,0.0,0.0,0.0,0.0,0.0,0.0,0.0,0.0,0.0,0.0,0.0,0.0,0.0,0.0,0.0,0.0,0.0,0.0,2.1708,0.0,0.0,0.0,0.0,0.0,0.0,0.0,0.0,0.0,0.0,0.0,0.0,0.0,0.0,0.0,0.0,0.0,0.0,0.0,0.0,0.0,0.0,0.0,0.0,0.0,0.0,0.0,0.0,0.0,0.0,0.0,0.0,0.0,0.0,0.0,0.0,0.0,2.1054,2.2002,0.0,0.0,0.0,0.0,0.0,0.0,0.0,0.0,0.0,0.0,0.0,0.0,0.0,0.0,0.0,0.0,0.0,0.0,0.0,0.0,0.0,0.0,0.0,0.0,0.0,0.0,0.0,0.0,0.0,0.0,0.0,0.0,0.0,0.0,0.0,0.0,0.0,0.0,0.0,0.0,0.0,0.0,0.0,0.0,0.0,0.0,0.0,0.0,0.0,0.0,0.0,0.0,0.0,0.0,0.0,0.0,0.0,0.0,0.0,0.0,0.0,0.0,0.0,0.0,0.0,0.0,0.0,0.0,0.0,0.0,0.0,0.0,0.0,0.0,0.0,0.0,0.0,2.0268,0.0,0.0,0.0,0.0,0.0,0.0,0.0,0.0,0.0,0.0,0.0,0.0,0.0,0.0,0.0,0.0,0.0,0.0,0.0,0.0,0.0,0.0,0.0,1.8652,1.8645,1.8782,1.8423,1.8247,1.8385,1.9136,1.9232,1.8495,1.9745,2.0243,1.9758,2.1008,2.1779,2.2051,0.0,0.0,0.0,0.0,0.0,0.0,0.0,0.0,0.0,0.0,0.0,0.0,0.0,0.0,0.0,0.0,0.0,0.0,0.0,0.0,0.0,0.0,0.0,0.0,0.0,0.0,0.0,0.0,0.0,0.0,0.0,0.0,0.0,0.0,0.0,0.0,0.0,0.0,0.0,0.0,0.0,0.0,0.0,0.0,0.0,0.0,0.0,0.0,0.0,0.0,0.0,0.0,0.0,0.0,0.0,0.0,0.0,0.0,0.0,0.0,0.0,0.0,0.0,0.0,0.0,0.0,0.0,0.0,0.0,0.0,2.7142,2.6174,2.6725,2.6725,2.6725,2.6562,2.3474,2.1547,2.0688,0.0,0.0,0.0,0.0,0.0,0.0,0.0,0.0,0.0,0.0,0.0,0.0,0.0,0.0,0.0,0.0,0.0,0.0,0.0,0.0,0.0,0.0,1.8231,1.8853,1.9505,1.8715,1.8472,1.9104,1.9064,1.8674,1.7934,1.8705,1.94,1.9957,2.0167,2.0919,2.2262,0.0,0.0,2.3232,2.3906,2.45,2.4945,2.3111,0.0,0.0,0.0,0.0,0.0,0.0,0.0,0.0,0.0,0.0,0.0,0.0,0.0,0.0,0.0,0.0,0.0,0.0,0.0,0.0,0.0,0.0,0.0,0.0,0.0,0.0,0.0,0.0,0.0,0.0,0.0,0.0,0.0,0.0,0.0,0.0,0.0,0.0,0.0,0.0,0.0,0.0,0.0,2.5032,2.4291,0.0,0.0,0.0,0.0,0.0,0.0,0.0,0.0,0.0,0.0,0.0,0.0,0.0,2.4305,2.4194,2.6971,2.998,3.3164,3.2746,3.4027,3.6795,3.6795,3.6795,3.6659,3.4423,0.0,2.5549,2.3248,0.0,0.0,0.0,0.0,0.0,0.0,0.0,0.0,0.0,0.0,0.0,0.0,0.0,0.0,0.0,0.0,0.0,0.0,0.0,0.0,0.0,1.8354,1.8784,1.9109,1.9415,1.9363,1.878,2.0103,2.0167,1.849,1.9956,2.0768,2.0686,2.1079,2.1826,2.2916,2.3757,2.4144,2.4153,2.4892,2.5214,2.515,2.4198,2.4224,2.494,2.4284,0.0,0.0,0.0,0.0,0.0,0.0,0.0,0.0,0.0,0.0,0.0,0.0,0.0,0.0,0.0,0.0,0.0,0.0,0.0,0.0,0.0,0.0,0.0,0.0,0.0,0.0,0.0,0.0,0.0,0.0,0.0,0.0,0.0,0.0,0.0,0.0,0.0,0.0,0.0,2.3516,2.59,2.92,2.8004,2.6898,0.0,0.0,0.0,0.0,0.0,0.0,0.0,0.0,0.0,2.6859,2.865,3.0485,3.2339,3.3745,3.5158,3.6575,3.8381,4.0018,4.1354,4.0068,3.9487,3.9435,3.8528,3.5673,3.1338,2.6687,2.3795,2.2391,0.0,0.0,0.0,0.0,2.4192,2.4467,0.0,0.0,0.0,0.0,0.0,0.0,0.0,0.0,0.0,0.0,0.0,0.0,1.8565,1.8716,1.8982,1.9442,2.0231,2.0245,1.9189,2.0733,2.0956,1.9261,2.0886,2.164,2.1214,2.2297,2.306,2.3451,2.5296,2.5986,2.5596,2.6348,2.6652,2.6561,2.6375,2.598,2.5392,2.4997,2.4292,0.0,0.0,0.0,0.0,0.0,0.0,0.0,0.0,0.0,0.0,0.0,0.0,0.0,0.0,0.0,0.0,0.0,0.0,0.0,0.0,0.0,0.0,0.0,0.0,0.0,0.0,0.0,0.0,0.0,0.0,0.0,0.0,0.0,0.0,0.0,0.0,0.0,0.0,2.4033,2.7215,3.2005,3.1176,2.9904,0.0,0.0,0.0,0.0,0.0,0.0,3.0054,2.8754,2.9381,3.2607,3.5037,3.7459,3.9896,3.9937,3.9937,3.9947,4.176,4.2634,4.2563,4.0868,4.0096,4.0096,4.0096,3.8831,3.6355,3.1135,2.7249,2.4627,2.5068,2.555,2.5904,2.5122,2.5601,2.7126,0.0,0.0,0.0,0.0,0.0,0.0,0.0,0.0,0.0,0.0,0.0,1.7792,1.9444,1.9295,1.9767,2.149,2.1065,2.0879,2.1311,2.0215,1.9674,1.9935,2.0355,2.0777,2.1183,2.3293,2.4124,2.3596,2.6414,2.7832,2.7948,2.8746,2.9821,3.1043,3.0418,2.9302,2.7824,2.6362,2.6022,2.6394,0.0,0.0,0.0,0.0,0.0,0.0,0.0,0.0,0.0,0.0,0.0,0.0,0.0,0.0,0.0,0.0,0.0,0.0,0.0,0.0,0.0,0.0,0.0,0.0,0.0,0.0,0.0,0.0,0.0,0.0,0.0,0.0,0.0,0.0,0.0,0.0,0.0,0.0,0.0,2.9204,3.18,0.0,0.0,0.0,0.0,2.4507,2.7056,3.0161,3.3385,3.6354,3.9441,4.2662,4.2923,4.3088,4.3253,4.3253,4.3253,4.3228,4.1226,4.0279,4.0272,4.0152,4.0096,4.0096,4.0096,4.0005,3.9633,3.6462,3.3413,3.076,3.0799,3.0816,3.0493,2.7636,2.9439,3.3788,0.0,0.0,0.0,0.0,0.0,0.0,0.0,0.0,1.6881,1.8522,1.8605,1.8913,1.9962,2.0532,2.1342,2.2586,2.2624,2.2217,2.1365,2.1552,2.1299,2.0361,2.1184,2.2187,2.3296,2.4179,2.5231,2.6503,2.7606,2.8454,2.9008,2.9297,2.972,3.0234,2.9989,2.9515,2.8834,2.8152,2.7153,2.5986,2.5297,2.4386,0.0,0.0,0.0,0.0,0.0,0.0,0.0,0.0,0.0,0.0,0.0,0.0,0.0,0.0,0.0,0.0,0.0,0.0,0.0,0.0,0.0,0.0,0.0,0.0,0.0,0.0,0.0,0.0,0.0,0.0,0.0,0.0,0.0,0.0,0.0,0.0,0.0,3.8322,3.7514,0.0,3.2409,3.1146,3.1366,3.3381,3.6505,3.8821,3.9981,4.1152,4.2309,4.3451,4.3506,4.3506,4.3506,4.3506,4.3506,4.3466,4.1196,4.0096,4.0096,4.0096,4.0096,4.0096,4.0096,4.0096,4.0028,3.8949,3.7884,3.6739,3.4793,3.4021,3.4314,3.6648,3.7656,3.8016,0.0,0.0,0.0,0.0,0.0,0.0,0.0,0.0,1.6826,1.8398,1.9156,1.9854,2.0684,2.2017,2.316,2.3945,2.3755,2.3119,2.1985,2.1944,2.1629,2.0896,2.2037,2.3303,2.4647,2.5394,2.6544,2.8093,2.8937,2.9511,2.9832,2.9832,2.9978,3.0223,3.0005,3.0074,3.0369,3.0202,2.8855,2.6768,2.6183,2.5954,2.5834,0.0,0.0,0.0,0.0,0.0,0.0,0.0,0.0,0.0,0.0,0.0,0.0,0.0,0.0,0.0,0.0,0.0,0.0,0.0,0.0,0.0,0.0,0.0,0.0,0.0,0.0,0.0,0.0,0.0,0.0,0.0,0.0,0.0,0.0,0.0,4.4713,4.3635,4.1303,3.8436,3.4981,3.4177,3.5664,3.9992,4.2294,4.3506,4.3506,4.3506,4.3506,4.3506,4.3506,4.3506,4.3506,4.3506,4.3114,4.2329,4.0815,4.0096,4.0096,4.0096,4.0096,4.0096,4.0096,4.0096,4.0096,4.0096,4.0096,3.9903,3.7905,3.7122,3.754,4.1068,4.1397,4.0096,0.0,0.0,0.0,0.0,0.0,0.0,0.0,1.6502,1.6796,1.8426,1.9459,2.0474,2.1643,2.3654,2.5124,2.5586,2.4388,2.3512,2.3306,2.1187,2.0441,2.1613,2.2802,2.3949,2.5069,2.6948,2.7986,2.8169,3.0301,3.1063,3.053,3.053,3.0897,3.1525,3.0882,3.1323,3.2527,3.2481,3.1218,2.9132,2.826,2.8803,2.9688,0.0,0.0,0.0,0.0,0.0,0.0,0.0,0.0,0.0,0.0,0.0,0.0,0.0,0.0,0.0,0.0,0.0,0.0,0.0,0.0,0.0,0.0,0.0,0.0,0.0,0.0,0.0,0.0,0.0,0.0,0.0,0.0,0.0,2.9442,4.0245,4.7039,4.4016,4.2649,4.0534,3.6875,3.7936,4.0175,4.3414,4.3653,4.3616,4.351,4.3506,4.3506,4.3506,4.3506,4.3506,4.3506,4.3431,4.2296,4.0096,4.0096,4.0096,4.0096,4.0096,4.0096,4.0096,4.0096,4.0096,4.0096,4.0096,4.0096,4.0096,4.0096,4.0096,4.0102,4.0184,4.0165,4.0096,0.0,0.0,0.0,0.0,0.0,0.0,0.0,1.6502,1.6965,1.9114,2.0257,2.1467,2.3045,2.4694,2.5868,2.6294,2.4642,2.3512,2.3306,2.167,2.1367,2.2834,2.3737,2.5109,2.7067,2.7724,2.8634,2.9843,3.0005,3.0477,3.1234,3.1234,3.1847,3.2938,3.2766,3.2886,3.3261,3.3724,3.3897,3.364,3.1177,3.0484,3.0625,0.0,0.0,0.0,0.0,0.0,0.0,0.0,0.0,0.0,0.0,0.0,0.0,0.0,0.0,0.0,0.0,0.0,0.0,0.0,0.0,0.0,0.0,0.0,0.0,0.0,0.0,0.0,0.0,0.0,0.0,0.0,0.0,3.9519,3.9519,4.2782,4.5628,4.684,4.4836,4.2869,4.1639,4.1923,4.3516,4.6741,4.698,4.5961,4.3616,4.3506,4.3506,4.3506,4.3506,4.3506,4.3506,4.1849,4.072,4.0096,4.0096,4.0096,4.0096,4.0096,4.0096,4.0096,4.0096,4.0096,4.0096,4.0096,4.0096,4.0096,4.0096,4.0096,4.0293,4.1961,4.1523,4.0096,0.0,0.0,0.0,0.0,0.0,0.0,0.0,1.6502,1.7034,1.9386,2.0915,2.2302,2.3649,2.5244,2.6205,2.6186,2.4369,2.313,2.2895,2.2151,2.2491,2.4246,2.5053,2.6524,2.8818,2.8972,2.9631,3.0872,3.0846,3.1188,3.1936,3.2206,3.2759,3.3507,3.3507,3.3664,3.3942,3.4326,3.5306,3.6403,3.4291,3.3864,3.4149,3.1126,3.0553,3.1148,2.9562,2.9618,3.0214,2.8733,0.0,0.0,0.0,0.0,0.0,0.0,0.0,0.0,0.0,0.0,0.0,0.0,0.0,0.0,0.0,0.0,0.0,0.0,0.0,0.0,0.0,0.0,0.0,0.0,4.1301,4.5588,4.579,4.5899,4.6153,4.6686,4.5827,4.5282,4.5489,4.4291,4.4277,4.6145,4.7535,4.7475,4.5613,4.4222,4.3637,4.3946,4.4966,4.4406,4.2108,4.0761,4.0096,4.0096,4.0096,4.0096,4.0146,4.1409,4.1297,0.0,4.0096,4.0096,4.0096,4.0096,4.0096,0.0,0.0,0.0,0.0,0.0,4.1246,4.0096,0.0,0.0,0.0,0.0,0.0,0.0,0.0,1.6502,1.7069,1.951,2.1306,2.2711,2.3608,2.517,2.5942,2.5422,2.3779,2.2682,2.2482,2.2818,2.3876,2.577,2.6715,2.8167,3.0293,3.0385,3.0782,3.1514,3.2181,3.2579,3.2744,3.3335,3.3649,3.3732,3.3732,3.4061,3.4622,3.4682,3.5961,3.7871,3.729,3.789,3.8679,3.4505,3.4201,3.569,3.3467,3.2418,3.1956,3.1204,0.0,0.0,0.0,0.0,0.0,0.0,0.0,0.0,0.0,0.0,0.0,0.0,0.0,0.0,0.0,0.0,0.0,0.0,0.0,0.0,0.0,0.0,0.0,0.0,4.6602,4.8584,4.9152,4.8959,4.7814,4.5373,4.6051,4.7097,4.7992,4.5385,4.3611,4.3611,4.6266,4.7874,4.7874,0.0,0.0,0.0,0.0,4.5535,4.0663,4.0603,4.0603,4.0597,4.0265,4.0096,4.0197,4.2865,4.2628,4.013,4.0462,4.0411,4.0123,4.0468,4.0411,4.0096,4.0096,4.0096,4.0096,4.0096,4.0096,4.0096,0.0,0.0,0.0,0.0,0.0,0.0,0.0,1.6502,1.7258,2.0195,2.0763,2.1486,2.2994,2.3661,2.4005,2.3994,2.3534,2.3362,2.3583,2.4493,2.5743,2.7312,2.8769,3.0049,3.1147,3.1186,3.1552,3.2291,3.2429,3.3043,3.4121,3.4248,3.4592,3.5107,3.5107,3.519,3.534,3.5887,3.7107,3.8714,3.9117,3.9519,3.9666,3.7607,3.7449,3.8047,3.578,3.6045,3.7111,3.4581,3.4224,3.4554,3.3061,0.0,0.0,0.0,0.0,0.0,0.0,0.0,0.0,0.0,0.0,0.0,0.0,0.0,0.0,0.0,0.0,0.0,0.0,0.0,0.0,4.8569,4.9085,4.929,5.0518,4.9687,4.8704,4.8065,4.6257,4.5505,4.6658,4.5316,4.4397,4.4397,4.4953,4.5324,4.5324,4.4733,4.4442,4.4595,4.5072,4.4808,4.3735,4.3728,4.3728,4.3694,0.0,0.0,4.013,4.0699,4.0648,4.0248,4.2679,4.234,4.0299,4.2729,4.2289,4.0096,4.0096,4.0096,4.0096,4.0096,4.0096,4.0096,0.0,0.0,0.0,0.0,0.0,0.0,0.0,1.691,1.7655,1.9736,2.0063,2.0497,2.1546,2.2184,2.2518,2.2443,2.2824,2.3455,0.0,2.5862,2.7699,2.995,3.0533,3.1474,3.2914,3.2295,3.23,3.2998,3.3335,3.3844,3.4511,3.4839,3.5183,3.5496,3.5496,3.5496,3.5541,3.6216,3.7181,3.8351,3.9453,4.0134,4.047,4.0203,4.0324,4.0449,3.8948,3.8903,3.9203,3.6964,3.6039,3.5598,3.4151,3.2142,3.0038,0.0,0.0,0.0,0.0,0.0,0.0,0.0,0.0,0.0,0.0,0.0,0.0,0.0,0.0,3.5837,0.0,0.0,4.9145,5.1604,5.1496,5.0854,5.0139,4.9442,4.8982,4.8916,4.7671,4.7051,4.7644,4.5818,4.4608,4.4608,4.4608,4.4608,4.4608,4.4608,4.4608,4.4608,4.4608,4.4608,4.4608,4.4608,4.4608,4.4574,4.3068,4.234,4.234,4.234,4.234,4.2442,4.3948,4.3745,4.234,4.234,4.146,4.0096,4.0096,4.0096,4.0096,4.0096,4.0096,4.0096,0.0,0.0,0.0,0.0,0.0,0.0,0.0,1.7093,1.774,1.8835,1.9191,1.9484,1.9882,2.0576,2.1114,2.134,2.23,2.3646,0.0,2.7374,2.9678,3.2397,3.2331,3.2955,3.4464,3.3319,3.3013,3.3687,3.4241,3.457,3.4712,3.5258,3.5496,3.5504,3.5639,3.5691,3.5744,3.653,3.7308,3.8127,3.9495,4.0474,4.1204,4.1943,4.2352,4.2375,4.1486,4.0614,3.97,3.8514,3.7099,3.5645,3.4596,3.3872,3.2894,3.0178,3.0922,0.0,0.0,0.0,0.0,0.0,0.0,0.0,0.0,0.0,4.3318,4.1034,4.0575,4.1423,4.424,4.9389,5.3049,5.2589,5.2663,5.1994,4.9725,4.9167,4.8994,4.8994,4.8994,4.8994,4.8994,4.6844,4.5217,4.4642,4.4608,4.4608,4.4608,4.4608,4.4608,4.4608,4.4608,4.4608,4.4608,4.4608,4.4608,4.4608,4.4608,4.4608,4.4608,4.4608,4.4608,4.4608,4.4608,4.4269,4.3542,4.1105,4.0096,4.0096,4.0096,4.0096,4.0096,4.0096,4.0096,4.0096,0.0,0.0,0.0,0.0,0.0,0.0,0.0,0.0,1.6878,1.8068,1.8098,1.8168,1.8567,1.8605,1.9398,2.1388,2.2813,0.0,2.7314,2.9572,3.155,3.3207,3.453,3.4983,3.4511,3.3774,3.3724,3.4391,3.4466,3.4802,3.5385,3.5466,3.5496,3.5534,3.6118,3.638,3.647,3.7691,3.869,3.953,4.0305,4.1116,4.1885,4.1988,4.2502,4.2997,4.155,4.0197,3.9102,3.8926,3.7884,3.675,3.724,3.6423,3.5032,3.3666,0.0,3.0642,2.9544,3.0014,3.143,3.396,3.5591,3.7221,0.0,0.0,4.5938,4.7017,4.7237,4.7659,4.9022,5.1416,5.2518,5.0435,5.079,5.1215,5.0903,4.978,4.8994,4.8994,4.8994,4.8994,4.8994,4.8697,4.7411,4.4794,4.4608,4.4608,4.4608,4.4608,4.4608,4.4608,4.4608,4.4608,4.4608,4.4608,4.4608,4.4608,4.4608,4.4608,4.4608,4.4608,4.4608,4.4608,4.4608,4.3085,4.058,4.0248,4.0096,4.0096,4.0096,4.0096,4.0096,4.0096,4.0096,4.0096,0.0,0.0,0.0,0.0,0.0,0.0,0.0,0.0,0.0,1.7383,1.7561,1.7584,1.7479,1.8118,1.9275,2.1096,0.0,0.0,2.8506,3.0239,3.2197,3.4584,3.4881,3.503,3.5085,3.4427,3.4405,3.5078,3.5078,3.5228,3.5496,3.5496,3.5714,3.6088,3.6365,3.6695,3.709,3.8012,3.8613,3.9058,4.0231,4.0605,4.0495,4.0617,4.0182,3.949,3.9182,3.8467,0.0,0.0,3.6265,3.6242,3.7015,3.6203,3.4787,3.3873,3.3695,0.0,3.4085,3.4386,3.4827,0.0,3.8256,4.0716,4.1603,4.3681,4.5975,4.7897,4.9819,5.1306,5.1764,5.2158,5.225,0.0,5.1167,5.0503,4.995,4.9359,4.8994,4.8994,4.7487,4.7114,4.8832,4.7453,4.592,4.4692,4.6191,4.6404,4.4692,4.6225,4.7165,4.7165,4.7165,4.6336,4.4625,4.4608,4.4608,4.4608,4.4608,4.4608,4.4608,4.4608,4.4608,4.4608,4.4608,4.388,4.2719,4.2719,4.168,4.0096,4.0096,4.0096,4.0096,4.0096,4.0096,4.0096,0.0,0.0,0.0,0.0,0.0,0.0,0.0,0.0,0.0,0.0,1.7017,1.7173,1.7052,1.8108,1.9397,2.0852,0.0,0.0,0.0,3.0097,3.2076,3.4849,3.4854,3.501,3.5482,3.5019,3.5004,3.5496,3.5496,3.5496,3.5496,3.5496,3.5863,3.6508,3.6665,3.7195,3.7979,3.8467,3.879,3.9032,3.9976,3.9857,3.9083,3.8689,3.7322,3.5748,3.6725,3.6159,0.0,0.0,3.3981,3.4258,3.5244,3.4923,3.4134,3.3795,3.4666,3.5856,3.6474,3.6567,0.0,3.6508,3.9702,4.3024,4.3773,4.5241,4.7003,4.893,5.1379,5.3196,5.3196,5.248,5.2067,5.26,5.1639,5.0394,4.9172,4.8994,4.8697,4.7885,4.5159,4.4533,4.7503,4.5853,4.4608,4.4608,4.7334,4.8071,4.592,4.7842,4.8994,4.8994,4.8994,4.797,4.5836,4.5014,4.4608,4.4608,4.4608,4.4608,4.4608,4.4608,4.4608,4.4608,4.4608,4.4608,4.4608,4.4608,4.2814,4.0096,4.0096,4.0603,4.1342,4.1342,4.08,4.0096,0.0,0.0,0.0,0.0,0.0,0.0,0.0,0.0,0.0,0.0,0.0,0.0,0.0,1.8349,1.9378,0.0,0.0,0.0,0.0,2.9123,3.1169,3.3279,3.4786,3.5546,3.5506,3.5481,3.5481,3.5496,3.5496,3.5496,3.5496,3.5496,3.5863,3.6523,3.7105,3.8114,3.9346,3.9361,3.9744,4.0292,3.9682,3.9038,3.823,3.6345,3.4384,3.2877,3.479,0.0,0.0,0.0,3.1432,3.0521,3.1984,3.2892,0.0,3.4257,3.4594,3.4716,3.4543,0.0,3.4416,3.6541,3.9144,4.2388,4.7053,4.9017,5.0233,5.162,5.2595,5.3196,5.3196,5.2588,5.1892,5.1273,5.1558,5.1186,4.9266,4.8994,4.7936,4.5082,4.2069,4.1416,0.0,4.4642,4.4608,4.4608,4.7334,4.896,4.8866,4.8951,4.8994,4.8994,4.8994,4.8968,4.8866,4.6022,4.4608,4.4608,4.4608,4.4608,4.4608,4.4608,4.4608,4.4608,4.4608,4.4608,4.4608,4.4608,4.2814,4.0096,4.0096,4.189,4.4455,4.4455,4.2611,4.0096,0.0,0.0,0.0,0.0,0.0,0.0,0.0,0.0,0.0,0.0,0.0,0.0,0.0,0.0,0.0,0.0,0.0,0.0,0.0,2.8223,2.9544,3.0607,3.2511,3.3525,3.3507,3.439,3.5048,3.5496,3.5496,3.5496,3.5496,3.5496,3.5863,3.6523,3.7135,3.7898,3.8766,3.9212,3.9266,3.9005,3.8338,3.7704,3.6919,3.4929,3.2407,2.9968,0.0,0.0,0.0,2.8508,2.8933,2.9537,3.0536,3.0671,3.0841,3.2755,3.3671,3.4795,3.7978,0.0,4.0232,4.3045,4.5275,4.7497,5.0148,5.1458,5.21,5.2018,5.2632,5.2976,5.226,5.1461,5.0855,5.0664,4.9844,4.9191,4.9014,4.8994,4.7158,4.2205,4.0716,0.0,0.0,0.0,0.0,4.4608,4.7334,4.8994,4.8994,4.8994,4.8994,4.8994,4.8994,4.8054,4.6107,4.7047,4.7513,4.7503,4.5538,4.4608,4.4608,4.4608,4.4608,4.4608,4.4608,4.4608,4.4608,4.4608,4.3999,4.3085,4.3085,4.3718,4.4608,4.4608,4.3965,4.3085,0.0,0.0,0.0,0.0,0.0,0.0,0.0,0.0,0.0,0.0,0.0,0.0,0.0,0.0,0.0,0.0,0.0,0.0,0.0,0.0,2.7053,2.8081,2.9579,3.05,3.0746,3.1591,3.2362,3.3028,3.3028,3.3275,3.3716,3.3716,3.4322,3.5453,3.6073,3.6985,3.8063,3.8272,3.7838,3.6928,3.6028,3.4861,3.3462,3.1435,2.9071,0.0,0.0,0.0,0.0,2.5785,2.675,2.7867,2.834,2.9093,3.0164,3.2122,3.3423,3.5363,4.0577,4.2454,4.3697,4.6876,4.9318,5.1212,5.2228,5.2548,5.259,5.2454,5.254,5.193,4.9696,4.8119,4.7548,4.8762,4.7461,4.6805,4.8257,4.8325,4.6996,4.3663,4.1409,4.0851,0.0,0.0,0.0,4.4608,4.7334,4.8994,4.8994,4.8994,4.8994,4.8994,4.8994,4.8088,4.6191,4.8054,4.8477,4.7394,4.5514,4.4608,4.4608,4.4608,4.4608,4.4608,4.4608,4.4608,4.4608,4.4608,4.4608,4.4608,4.4608,4.4608,4.4608,4.4608,4.4608,4.4608,0.0,0.0,0.0,0.0,0.0,0.0,0.0,0.0,0.0,0.0,0.0,0.0,0.0,0.0,0.0,0.0,0.0,0.0,0.0,0.0,0.0,2.5665,2.623,2.6794,2.7435,2.751,2.7878,2.8547,2.8547,2.916,3.0357,3.0357,3.1375,3.3238,3.3904,3.5213,3.6917,3.6355,3.5353,3.4037,3.2721,3.0704,2.8239,2.6285,0.0,0.0,0.0,0.0,0.0,0.0,2.5075,2.5787,2.582,2.8332,3.1457,3.2525,3.3935,3.6403,4.2068,4.3849,4.4893,4.8139,5.1034,5.3127,5.3204,5.238,5.1888,5.2837,5.2315,5.0375,0.0,0.0,4.23,4.5164,4.4417,4.4404,4.7097,4.7148,4.7385,0.0,0.0,0.0,0.0,0.0,0.0,4.4828,0.0,4.8994,4.8994,4.8994,4.8994,4.8994,4.8994,4.8994,4.8994,4.8994,4.7605,4.4828,4.4828,4.4743,4.4608,4.4608,4.4608,4.4608,4.4608,4.4608,4.4608,4.4608,4.4608,4.4608,4.4608,4.4608,4.4608,4.4608,4.4608,4.4608,0.0,0.0,0.0,0.0,0.0,0.0,0.0,0.0,0.0,0.0,0.0,0.0,0.0,0.0,0.0,0.0,0.0,0.0,0.0,0.0,0.0,0.0,0.0,0.0,0.0,0.0,0.0,0.0,0.0,2.8013,2.8342,2.8342,2.8612,2.9136,2.9817,3.0372,3.0838,3.0791,3.0286,2.9427,0.0,2.7549,2.6381,0.0,0.0,0.0,0.0,0.0,0.0,0.0,0.0,0.0,2.8784,3.0366,3.234,3.4053,3.5966,3.8434,4.2611,4.6676,5.0129,5.1788,5.1959,5.1821,5.2249,5.2036,5.1569,5.0941,5.188,5.1691,0.0,0.0,0.0,3.5551,4.0263,0.0,4.6725,4.7825,0.0,4.5937,0.0,4.6725,4.6725,4.7428,0.0,0.0,4.8578,4.8994,4.8994,4.8994,4.8994,4.8994,4.8994,4.8994,4.8994,4.8994,4.8622,4.7885,4.7885,4.6725,4.4608,4.4608,4.4608,4.4608,4.4608,4.4608,4.4608,4.4608,4.4608,4.4608,4.4608,4.4608,4.4608,4.4608,4.4608,4.4608,0.0,0.0,0.0,0.0,0.0,0.0,0.0,0.0,0.0,0.0,0.0,0.0,0.0,0.0,0.0,0.0,0.0,0.0,0.0,0.0,0.0,0.0,0.0,0.0,0.0,0.0,0.0,0.0,0.0,0.0,0.0,2.4621,2.5047,2.5616,2.628,2.6745,2.7016,2.71,0.0,0.0,0.0,0.0,0.0,0.0,0.0,0.0,0.0,0.0,0.0,0.0,0.0,2.9842,3.1874,3.3778,3.5494,3.6799,0.0,4.2434,4.5683,4.9496,5.2618,5.2853,5.2544,5.2124,5.1984,5.1652,5.1362,5.1407,5.1219,0.0,4.3053,3.8979,0.0,0.0,0.0,0.0,4.5531,4.6546,4.6945,0.0,4.7986,0.0,4.8994,4.8994,4.8994,0.0,5.0228,5.0972,5.0972,4.9721,4.8994,4.8994,4.8994,4.8994,4.8994,4.8994,4.8994,4.8994,4.8994,4.7445,4.4608,4.4608,4.4608,4.4608,0.0,4.4608,4.4608,4.4608,4.4608,4.4608,4.4608,4.4608,4.4608,4.4608,4.4608,4.4608,0.0,0.0,0.0,0.0,0.0,0.0,0.0,0.0,0.0,0.0,0.0,0.0,0.0,0.0,0.0,0.0,0.0,0.0,0.0,0.0,0.0,0.0,0.0,0.0,0.0,0.0,0.0,0.0,0.0,0.0,0.0,0.0,0.0,0.0,0.0,0.0,0.0,0.0,0.0,0.0,0.0,0.0,0.0,0.0,0.0,0.0,0.0,0.0,0.0,0.0,3.0129,3.1625,3.5216,3.7916,3.9871,4.0533,4.3419,4.7007,4.978,5.1985,5.3323,5.2638,5.2786,5.2931,5.2237,5.1292,5.0939,5.2271,0.0,4.3287,3.5275,3.3455,3.4552,3.88,0.0,4.1755,4.4753,4.5176,4.6133,4.8697,4.8994,4.8994,4.8994,4.8994,4.8994,4.8994,5.1412,5.2909,5.2909,5.0414,4.8994,4.8994,4.8994,4.8994,4.8994,4.8994,4.8994,4.8994,4.8994,4.7665,4.5176,4.5176,4.5176,4.5176,4.5176,0.0,4.4625,4.5031,4.5176,4.5176,4.5176,4.5176,4.5149,4.4736,4.4608,4.4608,0.0,0.0,0.0,0.0,0.0,0.0,0.0,0.0,0.0,0.0,1.7889,0.0,0.0,0.0,0.0,0.0,0.0,0.0,0.0,0.0,0.0,0.0,0.0,0.0,0.0,0.0,0.0,0.0,0.0,0.0,0.0,0.0,0.0,0.0,0.0,0.0,0.0,0.0,0.0,0.0,0.0,0.0,0.0,0.0,0.0,0.0,0.0,0.0,0.0,0.0,3.3478,3.6175,3.9259,4.1779,4.3958,4.5658,4.7242,4.9134,5.209,5.3203,5.3467,5.3323,5.2431,5.1835,5.2832,5.1104,0.0,0.0,4.0182,3.2641,3.3623,3.1635,3.2057,3.8877,4.2133,4.4847,4.7817,4.824,4.8426,0.0,0.0,0.0,0.0,0.0,0.0,0.0,0.0,4.9772,4.9772,4.9289,4.8994,4.8994,4.8994,4.8994,4.8994,4.8994,4.8994,4.8994,4.8994,4.8731,4.824,4.824,4.824,4.824,4.824,0.0,4.4794,4.7233,4.824,4.824,4.824,4.824,4.7936,4.5497,4.4608,4.4608,0.0,0.0,0.0,0.0,0.0,0.0,0.0,0.0,0.0,0.0,1.9408,1.947,0.0,0.0,0.0,0.0,0.0,0.0,0.0,0.0,0.0,0.0,0.0,0.0,0.0,0.0,0.0,0.0,0.0,0.0,0.0,0.0,0.0,0.0,0.0,0.0,0.0,0.0,0.0,0.0,0.0,0.0,0.0,0.0,0.0,0.0,0.0,0.0,0.0,0.0,3.4324,3.9108,4.2489,4.4823,4.6786,4.9144,4.9813,5.0322,5.2816,5.3492,5.3492,5.3492,5.2934,5.2157,5.1272,0.0,0.0,0.0,3.3316,2.9461,3.1011,3.1415,0.0,3.8506,3.7744,3.8881,4.5761,4.8037,0.0,4.8994,0.0,0.0,0.0,0.0,0.0,0.0,0.0,4.9687,5.1268,4.9839,4.8994,4.8994,4.8994,4.8994,4.8994,4.8994,4.8994,4.8994,4.8994,4.8994,4.8994,4.8994,4.8994,4.8994,4.8994,0.0,4.6996,4.8426,4.8994,4.8994,4.8994,4.8054,4.6539,4.5125,4.5565,4.6894,0.0,0.0,0.0,0.0,0.0,0.0,0.0,1.7434,1.8095,2.0054,2.0644,2.0412,1.9191,1.9181,1.9068,0.0,0.0,0.0,0.0,0.0,0.0,0.0,0.0,0.0,0.0,0.0,0.0,0.0,0.0,0.0,0.0,0.0,0.0,0.0,0.0,0.0,0.0,0.0,0.0,0.0,0.0,0.0,0.0,0.0,0.0,0.0,0.0,0.0,0.0,0.0,3.2627,3.7173,4.2252,4.5679,4.8216,5.0278,5.071,5.0947,5.2951,5.3492,5.3425,5.3086,5.2765,5.1581,4.7936,3.824,0.0,2.9131,2.9002,2.9002,2.9002,3.1066,3.3969,0.0,3.4222,3.3893,4.1816,4.5883,4.8291,0.0,4.9569,0.0,0.0,0.0,0.0,0.0,0.0,0.0,5.241,5.0287,4.8994,4.8994,4.8994,4.8994,4.8994,4.8994,4.8994,4.8994,4.8994,4.8994,4.8994,4.8994,4.8994,4.8994,4.8994,0.0,0.0,4.8994,4.8994,4.8994,4.8994,4.7199,4.4675,4.5311,4.7013,4.8994,0.0,0.0,0.0,0.0,0.0,0.0,0.0,1.7529,1.8561,2.1821,2.0846,1.9852,1.99,2.0054,1.9253,0.0,0.0,0.0,0.0,0.0,0.0,0.0,0.0,0.0,0.0,0.0,0.0,0.0,0.0,0.0,0.0,0.0,0.0,0.0,0.0,0.0,0.0,0.0,0.0,0.0,0.0,0.0,0.0,0.0,0.0,0.0,0.0,0.0,0.0,0.0,0.0,2.5567,3.4934,4.2327,4.7503,4.7334,0.0,0.0,5.2951,5.3492,5.3154,5.1759,5.0397,4.7919,4.2215,0.0,3.2537,2.9592,2.9002,2.9002,2.9002,2.9241,0.0,0.0,0.0,3.7946,3.7579,4.1845,4.6005,4.868,0.0,0.0,0.0,0.0,0.0,0.0,0.0,0.0,4.9407,4.9146,4.8994,4.8994,4.8994,4.8994,4.8994,4.8994,4.8994,4.8994,4.8994,4.8994,4.8994,4.8994,4.8994,4.8994,4.8994,0.0,0.0,4.8994,4.8994,4.8994,4.8994,4.7199,4.4929,4.7614,4.8765,4.8994,0.0,0.0,0.0,0.0,0.0,0.0,0.0,1.8114,1.9197,2.2382,2.2255,2.1735,2.1367,2.06,1.9139,0.0,0.0,0.0,0.0,0.0,0.0,0.0,0.0,0.0,0.0,0.0,0.0,0.0,1.4719,0.0,0.0,0.0,0.0,0.0,0.0,0.0,0.0,0.0,0.0,0.0,0.0,0.0,0.0,0.0,0.0,0.0,0.0,0.0,0.0,0.0,0.0,0.0,2.9588,3.2757,0.0,0.0,4.7428,5.0177,5.2782,5.3492,5.3357,5.2748,5.0769,4.7797,4.3198,0.0,3.2886,2.9666,2.9002,2.9002,2.9002,2.9002,2.9737,0.0,0.0,0.0,4.0126,4.0301,4.2167,4.8284,5.0067,0.0,0.0,0.0,0.0,0.0,0.0,0.0,4.9095,4.8994,4.8994,4.8994,4.8994,4.8994,4.8994,4.8994,4.8994,4.8994,4.8994,4.8994,4.8994,4.8994,4.8994,4.8994,4.8994,0.0,0.0,4.8994,4.8994,4.8994,4.8994,4.8274,4.7182,4.6573,4.7487,4.8994,0.0,0.0,0.0,0.0,0.0,0.0,1.7297,1.7871,1.9172,2.2035,2.2502,2.2387,2.182,2.0227,1.8607,1.7125,0.0,0.0,0.0,0.0,0.0,0.0,0.0,0.0,0.0,0.0,0.0,0.0,0.0,1.4638,0.0,0.0,1.5384,1.6475,0.0,0.0,0.0,0.0,0.0,0.0,0.0,0.0,0.0,0.0,0.0,0.0,0.0,0.0,0.0,0.0,0.0,0.0,0.0,0.0,0.0,0.0,4.4465,4.8223,5.0634,5.2376,5.3492,5.3492,5.1902,4.9419,0.0,0.0,3.1745,2.9461,2.9002,2.9002,2.9002,2.9002,2.9113,0.0,0.0,3.2455,3.9985,3.9738,4.0821,0.0,0.0,0.0,0.0,0.0,0.0,0.0,0.0,0.0,4.9112,4.9839,4.9932,4.9027,4.8994,4.8994,4.8994,4.8994,4.8994,4.8994,4.8994,4.8994,4.8994,4.8994,4.8994,4.8994,4.8994,0.0,0.0,4.8994,4.8994,4.8994,4.8994,4.8994,4.8646,4.5684,4.6479,4.8994,0.0,0.0,0.0,0.0,0.0,0.0,0.0,1.6423,1.8205,2.0706,2.097,2.0878,2.0732,1.8693,1.7568,1.8133,0.0,0.0,0.0,0.0,0.0,0.0,0.0,0.0,0.0,0.0,0.0,0.0,0.0,0.0,0.0,1.3561,1.4402,1.64,0.0,0.0,0.0,0.0,0.0,0.0,0.0,0.0,2.1134,0.0,0.0,0.0,0.0,0.0,0.0,0.0,0.0,0.0,0.0,2.4228,2.5542,0.0,3.9216,4.4855,4.5824,4.9713,5.3492,5.3492,5.3475,5.2655,0.0,0.0,2.9042,2.9002,2.9002,2.9002,2.9002,2.9002,2.8999,2.9015,2.9627,0.0,3.4807,3.9981,4.3159,0.0,0.0,0.0,0.0,0.0,0.0,0.0,0.0,0.0,4.8994,5.1835,5.2072,4.9086,4.8994,4.8994,4.8994,4.8994,4.8994,4.8994,4.8994,4.8994,4.8994,4.8994,4.8994,0.0,0.0,0.0,0.0,4.8994,4.8994,4.8994,4.8994,4.8994,4.8646,4.5684,4.6479,4.8994,0.0,0.0,0.0,0.0,0.0,0.0,0.0,1.5614,1.6816,1.9492,1.9182,1.8416,1.7643,1.7399,1.7277,1.7176,0.0,0.0,0.0,0.0,0.0,0.0,0.0,0.0,0.0,0.0,0.0,0.0,0.0,0.0,0.0,0.0,0.0,0.0,1.3511,0.0,0.0,0.0,0.0,0.0,0.0,2.212,2.2037,0.0,0.0,0.0,0.0,0.0,0.0,0.0,0.0,0.0,0.0,0.0,0.0,2.9869,3.4678,3.9855,4.6305,4.9213,5.0922,5.2985,5.1717,4.8541,4.3178,3.5238,2.9002,2.9002,2.7247,2.6059,2.7155,2.8253,2.9002,2.9002,3.0119,0.0,0.0,0.0,0.0,4.0347,0.0,0.0,0.0,0.0,0.0,0.0,0.0,0.0,5.1978,5.1031,4.9999,4.9027,4.8994,4.8994,4.8994,4.8994,4.8994,4.8994,4.8994,4.8994,4.8994,4.8994,4.8994,0.0,0.0,0.0,0.0,4.8994,4.8994,4.8798,4.6776,4.7216,4.8883,4.7953,4.8206,4.8994,0.0,0.0,0.0,0.0,0.0,0.0,0.0,1.5232,1.5797,1.7427,1.6968,1.6467,1.6412,1.5775,1.6462,1.9286,0.0,0.0,0.0,0.0,0.0,0.0,0.0,0.0,0.0,0.0,0.0,0.0,0.0,0.0,0.0,0.0,0.0,0.0,0.0,0.0,0.0,0.0,0.0,0.0,2.1864,2.23,2.2446,0.0,0.0,0.0,0.0,0.0,0.0,0.0,0.0,0.0,0.0,0.0,0.0,0.0,2.9423,3.3146,4.1634,4.2297,4.1178,4.3639,4.2625,0.0,0.0,3.2788,2.8656,2.743,2.6552,2.5949,2.5729,2.6515,2.7595,2.88,3.2926,3.5936,0.0,0.0,0.0,0.0,0.0,0.0,0.0,0.0,0.0,0.0,0.0,0.0,5.1767,5.0008,4.8994,4.8994,4.8994,4.8994,4.8994,4.8994,4.8994,4.8994,4.8994,4.8994,4.8994,4.8994,4.8994,0.0,0.0,0.0,0.0,4.8994,4.8994,4.8714,4.5751,4.5717,4.7462,4.8595,4.8994,4.8994,0.0,0.0,0.0,0.0,0.0,0.0,0.0,0.0,0.0,0.0,1.4689,1.5077,1.6577,1.4053,1.5216,0.0,0.0,0.0,0.0,0.0,0.0,0.0,0.0,0.0,0.0,0.0,0.0,1.2977,1.5342,1.5535,1.3703,0.0,0.0,0.0,0.0,0.0,0.0,1.621,1.8602,2.23,2.23,2.23,0.0,0.0,0.0,0.0,0.0,0.0,0.0,0.0,0.0,0.0,0.0,0.0,0.0,0.0,0.0,0.0,0.0,3.0919,2.7212,2.8633,2.9002,0.0,0.0,0.0,0.0,2.4814,2.6589,2.776,2.4759,2.4192,2.5252,2.8473,3.6575,4.2625,0.0,4.1764,0.0,0.0,0.0,0.0,0.0,0.0,0.0,0.0,0.0,0.0,4.9475,4.9112,4.8994,4.8994,4.8994,4.8994,4.8994,4.8994,4.8994,4.8994,4.8994,4.8994,4.8994,4.8994,4.8994,0.0,0.0,0.0,0.0,4.8994,4.8994,4.8714,4.5751,4.4726,4.5251,4.7986,4.8994,4.8994,0.0,0.0,0.0,0.0,0.0,0.0,0.0,0.0,0.0,0.0,1.4764,1.4637,1.5022,1.4382,1.3709,0.0,0.0,0.0,0.0,0.0,0.0,0.0,0.0,0.0,0.0,0.0,0.0,1.0677,1.4591,1.7095,1.8217,1.7045,0.0,0.0,0.0,1.8398,1.8877,2.0216,2.1367,2.23,2.23,2.23,0.0,0.0,0.0,0.0,2.4192,2.4192,0.0,0.0,0.0,0.0,0.0,0.0,0.0,0.0,2.4192,2.4583,2.6387,0.0,2.8552,2.8911,2.9002,2.9204,0.0,0.0,0.0,0.0,0.0,2.5107,2.4339,2.4192,2.5252,2.8473,3.0913,3.4149,3.9125,0.0,0.0,0.0,0.0,0.0,0.0,0.0,0.0,0.0,0.0,5.3188,5.2477,5.0253,4.8994,4.8994,4.8994,4.8994,4.8994,4.8994,4.8994,4.8994,4.8994,4.8994,4.8994,4.8994,4.8994,0.0,0.0,0.0,4.8994,4.8994,4.8994,4.8714,4.5751,4.5971,4.8054,4.874,4.8994,4.8994,0.0,0.0,0.0,0.0,0.0,0.0,0.0,0.0,0.0,0.0,0.0,0.0,0.0,0.0,0.0,0.0,0.0,0.0,0.0,0.0,0.0,0.0,0.0,0.0,0.0,0.0,0.0,0.0,0.0,1.7108,0.0,0.0,0.0,0.0,0.0,2.0139,2.0947,2.1901,2.23,2.23,2.23,0.0,0.0,0.0,0.0,0.0,2.4192,2.4192,0.0,2.4192,2.5364,2.6625,0.0,0.0,0.0,0.0,2.4192,2.4192,2.4192,2.5472,2.6809,2.6809,2.6809,2.6809,2.6809,0.0,0.0,0.0,0.0,2.4192,2.4192,2.6615,2.8683,2.8968,3.0234,0.0,0.0,0.0,0.0,0.0,0.0,0.0,0.0,0.0,0.0,0.0,0.0,5.3492,5.3492,5.0634,4.8994,4.8994,4.8994,4.8994,4.8994,4.8994,4.8994,4.8994,4.8994,4.8994,4.8994,4.8994,4.8994,0.0,0.0,0.0,4.8994,4.8994,4.8206,4.6962,4.6708,4.7581,4.8994,4.8994,4.8994,4.8994,0.0,0.0,0.0,0.0,0.0,0.0,0.0,0.0,0.0,0.0,0.0,0.0,0.0,0.0,0.0,0.0,0.0,0.0,0.0,0.0,0.0,0.0,0.0,0.0,0.0,0.0,0.0,0.0,0.0,0.0,0.0,0.0,1.9144,0.0,2.0687,2.0665,2.23,2.23,2.23,2.23,2.23,0.0,0.0,0.0,0.0,0.0,0.0,0.0,0.0,2.4192,2.4192,2.4449,2.5802,0.0,0.0,0.0,0.0,0.0,2.4192,2.4192,2.4431,2.5422,2.566,2.5404,2.4412,0.0,0.0,0.0,0.0,0.0,0.0,2.9053,0.0,0.0,0.0,0.0,0.0,0.0,0.0,0.0,0.0,0.0,0.0,0.0,0.0,0.0,0.0,5.2799,5.2799,5.0388,4.8994,4.8994,4.8994,4.8994,4.8994,4.8994,4.8994,4.8994,4.8994,4.8994,4.8994,4.8994,4.8994,4.8994,0.0,0.0,4.8994,4.8994,4.7537,4.5514,4.802,4.8994,4.8994,4.8994,4.8994,4.8994,0.0,0.0,0.0,0.0,0.0,0.0,0.0,0.0,0.0,0.0,0.0,0.0,0.0,0.0,0.0,0.0,0.0,0.0,0.0,0.0,0.0,0.0,0.0,0.0,0.0,0.0,0.0,0.0,0.0,0.0,1.6538,1.8424,1.9649,2.0287,1.9883,2.0665,2.23,2.23,2.23,2.23,2.23,0.0,0.0,0.0,0.0,0.0,0.0,0.0,0.0,2.4192,2.4192,2.4247,2.4486,0.0,0.0,0.0,0.0,0.0,2.4192,2.4192,2.5514,3.0962,3.2323,3.0892,2.544,0.0,0.0,0.0,0.0,0.0,0.0,2.7231,0.0,0.0,0.0,0.0,0.0,0.0,0.0,0.0,0.0,0.0,0.0,0.0,0.0,0.0,0.0,4.9687,4.9687,4.9247,4.8994,4.8994,4.8994,4.8994,4.8994,4.8994,4.8994,4.8994,4.8994,4.8994,4.8994,4.8994,4.8994,4.8994,0.0,4.8994,4.8994,4.8994,4.8731,4.8376,4.8825,4.8994,4.8994,4.8994,4.8994,4.8994,0.0,0.0,0.0,0.0,0.0,0.0,0.0,0.0,0.0,0.0,0.0,0.0,0.0,0.0,0.0,0.0,0.0,0.0,0.0,0.0,0.0,0.0,0.0,0.0,0.0,0.0,0.0,0.0,0.0,1.8867,2.0094,2.129,2.1083,1.9738,2.0677,2.155,2.23,2.23,2.23,2.2353,0.0,0.0,0.0,0.0,0.0,0.0,0.0,0.0,0.0,0.0,2.4192,2.4192,2.4192,0.0,0.0,0.0,0.0,0.0,2.4192,2.6743,3.0522,3.5275,3.2504,2.8282,2.7066,0.0,0.0,0.0,0.0,0.0,0.0,0.0,0.0,0.0,0.0,0.0,0.0,0.0,0.0,0.0,0.0,0.0,0.0,0.0,0.0,0.0,0.0,0.0,4.8994,4.8994,4.8994,4.8994,4.8994,4.8994,4.8994,4.8994,4.8994,4.8994,4.8994,4.8173,4.6675,4.8274,4.8994,4.8994,0.0,4.8994,4.8994,4.8994,4.8054,4.6624,4.6624,4.7605,4.8808,4.7216,4.7639,4.8774,0.0,0.0,0.0,0.0,0.0,0.0,0.0,0.0,0.0,0.0,0.0,0.0,0.0,0.0,0.0,0.0,0.0,0.0,0.0,0.0,0.0,0.0,0.0,0.0,0.0,0.0,1.9019,1.763,2.0262,2.2438,2.4136,2.3154,2.1615,1.9778,2.152,2.23,2.23,2.23,2.23,2.2412,0.0,0.0,0.0,0.0,0.0,0.0,0.0,0.0,0.0,0.0,0.0,0.0,0.0,0.0,0.0,2.4192,2.4192,2.4192,2.4192,2.7808,3.2339,3.5617,0.0,2.6169,2.939,0.0,0.0,0.0,0.0,0.0,0.0,0.0,0.0,0.0,0.0,0.0,0.0,0.0,0.0,0.0,0.0,0.0,0.0,0.0,0.0,0.0,0.0,0.0,4.8994,4.8994,4.8994,4.8994,4.8325,4.797,4.797,4.797,4.8325,4.8994,4.8308,4.6793,4.4675,4.6945,4.8342,4.8994,4.8994,4.8612,4.797,4.797,4.6648,4.4608,4.4608,4.5988,4.7706,4.543,4.6479,4.868,0.0,0.0,0.0,0.0,0.0,0.0,0.0,0.0,0.0,0.0,0.0,0.0,0.0,0.0,0.0,0.0,0.0,0.0,0.0,0.0,0.0,0.0,0.0,0.0,0.0,1.9053,2.0791,2.3041,2.5722,2.7117,2.7174,2.2276,1.9883,1.9778,2.152,2.23,2.23,2.23,2.23,2.2412,2.3696,0.0,0.0,0.0,0.0,0.0,0.0,0.0,0.0,0.0,0.0,0.0,0.0,0.0,2.4192,2.4192,2.4192,2.4192,2.4192,2.4541,2.5658,2.8895,2.9167,0.0,3.2721,0.0,0.0,0.0,0.0,0.0,0.0,0.0,0.0,0.0,0.0,0.0,0.0,0.0,0.0,0.0,0.0,0.0,0.0,0.0,0.0,0.0,0.0,0.0,4.8994,4.8994,4.8994,4.8994,4.6336,4.4929,4.4929,4.4929,4.6293,4.8968,4.6218,4.4811,4.4608,4.4828,4.6404,4.8994,4.8994,4.7453,4.4929,4.4929,4.4794,4.4608,4.4608,4.4726,4.4895,4.4675,4.6479,4.8968,0.0,0.0,0.0,0.0,0.0,0.0,0.0,0.0,0.0,0.0,0.0,0.0,0.0,0.0,0.0,0.0,0.0,0.0,0.0,0.0,0.0,0.0,0.0,2.0338,2.0588,2.1604,2.3426,2.6081,2.5224,2.4908,2.5028,2.1395,0.0,1.9778,2.152,2.23,2.23,2.23,2.23,2.2412,2.3696,2.4192,0.0,0.0,0.0,0.0,0.0,0.0,0.0,0.0,2.4192,2.4192,2.4192,2.4192,2.4192,2.4192,2.4192,2.4192,2.4192,2.4192,2.4979,2.8198,0.0,0.0,0.0,0.0,0.0,0.0,0.0,0.0,0.0,0.0,0.0,0.0,0.0,0.0,0.0,0.0,0.0,0.0,0.0,0.0,0.0,0.0,0.0,0.0,0.0,0.0,4.8994,4.8994,4.8156,4.6319,4.5183,4.4608,4.4608,4.4608,4.5166,4.6252,4.5132,4.4608,4.4608,4.4608,4.5217,4.6259,4.6259,4.5633,4.4608,4.4608,4.4608,4.4608,4.4608,4.4608,4.4608,4.4608,4.5311,4.6259,0.0,0.0,0.0,0.0,0.0,0.0,0.0,0.0,0.0,0.0,0.0,0.0,0.0,0.0,0.0,0.0,0.0,0.0,0.0,0.0,0.0,0.0,0.0,1.9203,2.2232,2.2351,2.409,2.7606,2.4577,2.3271,2.3535,0.0,0.0,0.0,2.1766,2.23,2.23,2.23,2.2535,2.2974,2.3858,2.4192,0.0,0.0,0.0,0.0,0.0,0.0,0.0,0.0,2.4192,2.4192,2.4192,2.4192,2.4192,2.4192,2.4192,2.4192,2.4192,2.4192,2.5474,0.0,0.0,0.0,0.0,0.0,0.0,0.0,0.0,0.0,0.0,0.0,0.0,0.0,0.0,0.0,0.0,0.0,0.0,0.0,0.0,0.0,0.0,0.0,0.0,0.0,0.0,0.0,0.0,4.7614,4.6699,4.4658,4.4608,4.4608,4.4608,4.4608,4.4608,4.4608,4.4608,4.4608,4.4608,4.4608,4.4608,4.4608,4.4608,4.4608,4.4608,4.4608,4.4608,4.4608,4.4608,4.4608,4.4608,4.4608,4.4608,4.4608,0.0,0.0,0.0,0.0,0.0,0.0,0.0,0.0,0.0,0.0,0.0,0.0,0.0,0.0,0.0,0.0,0.0,0.0,0.0,0.0,0.0,0.0,0.0,1.9192,2.2167,2.0609,2.2313,2.7555,2.4538,2.3245,2.351,2.0911,0.0,0.0,2.2334,2.2337,2.23,2.23,2.3027,2.4178,2.4208,2.4192,2.4192,0.0,0.0,0.0,0.0,0.0,0.0,0.0,2.4192,2.4192,2.4192,2.4192,2.4192,2.4192,2.4192,2.4192,2.4192,2.4192,2.6523,0.0,0.0,0.0,0.0,0.0,0.0,0.0,0.0,0.0,0.0,0.0,0.0,0.0,0.0,0.0,0.0,0.0,0.0,0.0,0.0,0.0,0.0,0.0,0.0,0.0,0.0,0.0,0.0,4.4608,4.4608,4.4608,4.4608,4.4608,4.4608,4.4608,4.4608,4.4608,4.4608,4.4608,4.4608,4.4574,4.4574,4.4608,4.4608,4.4608,4.4608,4.4608,4.4608,4.4608,4.4608,4.4608,4.4608,4.4608,4.4608,4.4608,0.0,0.0,0.0,0.0,0.0,0.0,0.0,0.0,0.0,0.0,0.0,0.0,0.0,0.0,0.0,0.0,0.0,0.0,0.0,0.0,0.0,0.0,0.0,0.0,0.0,0.0,2.3211,2.4788,2.2047,2.0761,0.0,0.0,0.0,2.2384,0.0,0.0,2.23,2.23,2.2521,2.2933,2.3832,2.4192,2.4192,0.0,0.0,0.0,0.0,0.0,0.0,0.0,0.0,0.0,2.4192,2.4192,2.4192,2.4192,2.4192,2.4192,2.4192,2.4192,0.0,3.0586,0.0,0.0,0.0,0.0,0.0,0.0,0.0,0.0,0.0,0.0,0.0,0.0,0.0,0.0,0.0,0.0,0.0,0.0,0.0,0.0,0.0,0.0,0.0,0.0,0.0,0.0,0.0,4.4608,4.4608,4.4608,4.4608,4.4608,4.4608,4.4608,4.4608,4.4608,4.4608,4.4608,4.4523,4.2391,4.2594,4.4608,4.4608,4.4608,4.4608,4.4608,4.4608,4.4608,4.4608,4.4608,4.4608,4.4608,4.4608,4.4608,0.0,0.0,0.0,0.0,0.0,0.0,0.0,0.0,0.0,0.0,0.0,0.0,0.0,0.0,0.0,0.0,0.0,0.0,0.0,0.0,0.0,0.0,0.0,0.0,0.0,2.0437,2.2044,0.0,0.0,0.0,0.0,0.0,0.0,2.5807,0.0,2.396,0.0,2.23,2.2585,2.3125,2.3897,2.4192,2.4192,0.0,0.0,0.0,0.0,0.0,0.0,0.0,0.0,0.0,2.4192,2.4192,2.4335,2.5007,2.4725,2.4192,2.4192,2.4192,0.0,2.8198,3.485,4.1446,0.0,0.0,0.0,0.0,0.0,0.0,0.0,0.0,0.0,0.0,0.0,0.0,0.0,0.0,0.0,0.0,0.0,0.0,0.0,0.0,0.0,0.0,0.0,0.0,0.0,4.2814,4.2814,4.2814,4.2814,4.3389,4.4591,4.4608,4.4608,4.4591,4.3389,4.2814,4.2746,4.0936,4.1094,4.2882,4.4083,4.4608,4.4506,4.3305,4.3525,4.4608,4.4608,4.4608,4.4608,4.4608,4.4608,4.4608,0.0,0.0,0.0,0.0,0.0,0.0,0.0,0.0,0.0,0.0,0.0,0.0,0.0,0.0,0.0,0.0,0.0,0.0,0.0,0.0,0.0,0.0,0.0,0.0,0.0,0.0,0.0,0.0,0.0,0.0,0.0,0.0,2.3695,3.0644,0.0,2.2959,0.0,2.2401,2.2964,2.4039,2.4153,2.4192,2.4192,2.4192,0.0,0.0,0.0,0.0,0.0,0.0,0.0,0.0,2.4192,2.4192,2.4499,2.6026,2.5595,2.4575,2.4284,0.0,0.0,2.9445,3.718,0.0,4.7622,0.0,0.0,0.0,0.0,0.0,0.0,0.0,0.0,0.0,0.0,0.0,0.0,0.0,0.0,0.0,0.0,0.0,0.0,0.0,0.0,0.0,0.0,0.0,0.0,4.0096,4.0096,4.0096,4.0096,4.1416,4.4168,4.4185,4.4185,4.4151,4.1409,4.0096,4.0096,4.0096,4.0096,4.0242,4.3,4.4185,4.3982,4.123,4.1883,4.4608,4.4608,4.4608,4.4608,4.4608,4.4608,4.4608,0.0,0.0,0.0,0.0,0.0,0.0,0.0,0.0,0.0,0.0,0.0,0.0,0.0,0.0,0.0,0.0,0.0,0.0,0.0,0.0,0.0,0.0,0.0,0.0,0.0,0.0,0.0,0.0,0.0,0.0,0.0,0.0,0.0,2.8404,0.0,2.7964,2.5592,2.3284,2.2467,2.2798,2.3795,2.4192,2.4192,2.4192,2.4192,0.0,0.0,0.0,0.0,0.0,0.0,0.0,2.4192,2.4192,2.427,2.4631,2.6264,2.7427,2.4887,2.7881,0.0,0.0,4.3846,4.7457,4.8136,4.7769,0.0,0.0,0.0,0.0,0.0,0.0,0.0,0.0,0.0,0.0,0.0,0.0,0.0,0.0,0.0,0.0,0.0,0.0,0.0,0.0,0.0,0.0,4.0096,4.0096,4.0096,4.0096,4.0096,4.0411,4.1054,4.1071,4.1071,0.0,4.0411,4.0096,4.0096,4.0096,4.0096,4.0146,4.0783,4.1071,4.1027,4.0367,4.1883,4.4608,4.4608,4.4608,4.4608,4.4608,4.4608,4.4608,0.0,0.0,0.0,0.0,0.0,0.0,0.0,0.0,0.0,0.0,0.0,0.0,0.0,0.0,0.0,0.0,0.0,0.0,0.0,0.0,0.0,0.0,0.0,0.0,0.0,0.0,0.0,0.0,0.0,0.0,0.0,0.0,0.0,2.7638,0.0,2.7389,2.4488,2.2946,2.23,2.2353,2.3024,2.3666,2.4192,2.4192,2.4192,2.4192,2.4192,0.0,0.0,0.0,0.0,0.0,0.0,0.0,2.4192,2.4192,2.5383,2.6332,2.4669,0.0,0.0,4.2276,0.0,4.5993,4.5993,4.5993,0.0,0.0,0.0,0.0,0.0,0.0,0.0,0.0,0.0,0.0,0.0,0.0,0.0,0.0,0.0,0.0,0.0,0.0,0.0,0.0,0.0,4.0096,4.0096,4.0096,4.0096,4.0096,4.0096,4.0096,4.0096,4.0096,4.0096,4.0096,4.0096,4.0096,4.0096,4.0096,4.0096,4.0096,4.0096,4.0096,4.0096,4.0096,4.102,4.2442,4.2442,4.3339,4.4608,4.4608,4.4608,4.4608,0.0,0.0,0.0,0.0,0.0,0.0,0.0,0.0,0.0,0.0,0.0,0.0,0.0,0.0,0.0,0.0,0.0,0.0,0.0,0.0,0.0,0.0,0.0,0.0,0.0,0.0,0.0,0.0,0.0,0.0,0.0,0.0,0.0,2.6904,0.0,0.0,2.23,2.23,2.23,2.23,2.23,2.3067,2.4192,2.4192,2.4192,2.4192,2.4192,2.4192,2.4192,2.4192,0.0,0.0,0.0,0.0,2.4192,2.4192,2.4192,2.4321,2.4887,0.0,4.0175,4.2827,4.3506,0.0,4.3506,4.3506,0.0,0.0,0.0,0.0,0.0,0.0,0.0,0.0,0.0,0.0,0.0,0.0,0.0,0.0,0.0,0.0,0.0,0.0,0.0,0.0,0.0,4.0096,4.0096,4.0096,4.0096,4.0096,4.0096,4.0096,4.0096,4.0096,4.0096,4.0096,4.0096,4.0096,4.0096,4.0096,4.0096,4.0096,4.0096,4.0096,4.0096,4.0096,4.0096,4.0096,4.0096,4.1636,4.3897,4.4405,4.4608,4.4608,0.0,0.0,0.0,0.0,0.0,0.0,0.0,0.0,0.0,0.0,0.0,0.0,0.0,0.0,0.0,0.0,0.0,0.0,1.5885,0.0,0.0,1.7549,1.7876,1.8055,0.0,0.0,0.0,0.0,0.0,0.0,0.0,0.0,0.0,2.4208,0.0,0.0,0.0,2.23,2.23,2.23,2.23,2.3067,2.4192,2.4192,2.4192,2.4192,2.4192,2.4192,2.4192,2.4192,2.4192,0.0,0.0,0.0,2.4192,2.4192,2.4192,2.4814,0.0,0.0,4.2955,0.0,4.3506,4.3506,0.0,0.0,0.0,0.0,0.0,0.0,0.0,0.0,0.0,0.0,0.0,0.0,0.0,0.0,0.0,0.0,0.0,0.0,0.0,0.0,0.0,0.0,4.0096,4.0096,4.0096,4.0096,4.0096,4.0096,4.0096,4.0096,4.0096,4.0096,4.0096,4.0096,4.0096,4.0096,4.0096,4.0096,4.0096,4.0096,4.0096,4.0096,4.0096,4.0096,4.0096,4.0096,4.0096,4.035,4.1027,4.365,4.4608,4.4608,0.0,0.0,0.0,0.0,0.0,0.0,0.0,0.0,0.0,0.0,0.0,0.0,0.0,0.0,0.0,2.0308,1.7233,1.6095,1.7934,1.7904,1.78,1.78,1.78,1.8594,2.0285,0.0,0.0,0.0,0.0,0.0,0.0,2.5321,2.5333,0.0,0.0,0.0,0.0,0.0,0.0,2.2353,2.3082,2.3707,2.4192,2.4192,0.0,0.0,0.0,0.0,0.0,2.4192,2.4192,2.4192,2.4192,0.0,0.0,0.0,2.4192,2.4504,2.5931,3.0757,3.6685,0.0,4.3506,4.3506,4.3506,0.0,0.0,0.0,0.0,0.0,0.0,0.0,0.0,0.0,0.0,0.0,0.0,0.0,0.0,0.0,0.0,0.0,0.0,0.0,0.0,0.0,4.0096,4.0096,4.0096,4.0096,4.0096,4.0096,4.0096,4.0096,4.0096,4.0096,4.0096,4.0096,4.0096,4.0096,4.0096,4.0096,4.0096,4.0096,4.0096,4.0096,4.0096,4.0096,4.0096,4.0096,4.0096,4.0096,4.0265,4.1579,4.2076,4.2076,0.0,0.0,0.0,0.0,0.0,0.0,0.0,0.0,0.0,0.0,0.0,0.0,0.0,0.0,0.0,0.0,1.8118,1.7733,2.0131,1.8963,1.8065,1.7811,1.853,2.0,2.2249,0.0,0.0,0.0,0.0,0.0,2.2364,2.5321,2.5934,0.0,2.3761,0.0,0.0,0.0,0.0,0.0,0.0,2.4192,2.4192,0.0,0.0,0.0,0.0,0.0,0.0,0.0,0.0,0.0,0.0,2.4192,0.0,0.0,0.0,0.0,0.0,0.0,3.176,3.8215,4.106,4.2496,0.0,0.0,0.0,0.0,0.0,0.0,0.0,0.0,0.0,0.0,0.0,0.0,0.0,0.0,0.0,0.0,0.0,0.0,0.0,0.0,0.0,0.0,4.0096,4.0096,4.0096,3.9372,3.8949,3.8949,3.97,4.0096,4.0096,4.0096,4.0096,4.0096,4.0096,4.0096,4.0096,4.0096,4.0096,4.0096,4.0096,4.0096,4.0096,4.0096,4.0096,4.0096,4.0096,4.0096,4.0096,4.0096,4.0096,4.0096,0.0,0.0,0.0,0.0,0.0,0.0,0.0,0.0,0.0,0.0,0.0,0.0,0.0,2.0308,2.0308,2.0308,2.0328,2.0312,2.031,1.9618,1.8795,1.7833,2.0541,0.0,2.23,0.0,0.0,0.0,0.0,0.0,2.2364,2.5321,2.8133,3.0603,2.7744,2.4915,2.23,0.0,0.0,0.0,0.0,0.0,0.0,0.0,0.0,0.0,0.0,0.0,0.0,0.0,0.0,0.0,0.0,0.0,0.0,0.0,0.0,0.0,0.0,2.8781,0.0,3.0399,3.4387,0.0,0.0,0.0,0.0,0.0,0.0,0.0,0.0,0.0,0.0,0.0,0.0,0.0,0.0,0.0,0.0,0.0,0.0,0.0,0.0,0.0,0.0,0.0,4.0096,4.0096,4.0096,3.7398,3.5825,3.5825,3.8611,4.0096,4.0096,4.0096,4.0096,4.0096,4.0096,4.0096,4.0096,4.0096,4.0096,4.0096,4.0096,4.0096,4.0096,4.0096,4.0096,4.0096,4.0096,4.0096,4.0096,4.0096,4.0096,4.0096,0.0,0.0,0.0,0.0,0.0,0.0,0.0,0.0,0.0,0.0,0.0,0.0,0.0,2.0308,2.0308,2.0308,2.0368,2.0388,2.0308,1.967,2.0078,2.1826,2.0293,2.0325,2.2266,0.0,0.0,0.0,0.0,2.23,2.2364,2.5321,2.7275,2.8184,2.5203,2.4336,2.5118,2.5118,0.0,0.0,0.0,0.0,0.0,0.0,0.0,0.0,0.0,0.0,0.0,0.0,0.0,0.0,0.0,0.0,0.0,0.0,0.0,0.0,0.0,0.0,0.0,2.8767,3.1528,3.4328,3.5469,3.9765,0.0,0.0,0.0,0.0,0.0,0.0,0.0,0.0,0.0,0.0,0.0,0.0,0.0,0.0,0.0,0.0,0.0,0.0,0.0,0.0,0.0,3.9254,3.7313,3.618,3.56,3.56,3.6642,3.8148,4.0072,4.0096,4.0096,4.0096,4.0096,4.0096,4.0096,4.0096,4.0096,4.0096,4.0096,4.0096,4.0096,4.0096,4.0096,4.0096,4.0096,4.0096,4.0096,4.0096,4.0096,4.0096,0.0,0.0,0.0,0.0,0.0,0.0,0.0,0.0,0.0,0.0,0.0,0.0,0.0,0.0,2.075,2.1885,2.0942,2.0308,2.0308,1.967,2.0268,2.2469,1.9508,1.9203,2.2232,0.0,0.0,0.0,0.0,0.0,0.0,0.0,2.522,2.5186,2.4205,0.0,0.0,0.0,0.0,2.3594,0.0,0.0,2.4192,0.0,0.0,0.0,0.0,0.0,0.0,0.0,0.0,0.0,0.0,0.0,0.0,0.0,0.0,0.0,2.4192,0.0,0.0,0.0,0.0,2.9937,3.0467,0.0,0.0,0.0,0.0,0.0,0.0,0.0,0.0,0.0,0.0,0.0,0.0,0.0,0.0,0.0,0.0,0.0,0.0,0.0,0.0,0.0,0.0,0.0,3.5757,3.56,3.56,3.56,3.56,3.6558,3.8571,3.8588,3.9102,4.0096,4.0096,4.0096,4.0096,4.0096,4.0096,4.0096,4.0096,4.0096,4.0096,4.0096,4.0096,4.0096,4.0096,4.0096,4.0096,4.0096,4.0096,4.0096,0.0,0.0,0.0,0.0,0.0,0.0,0.0,0.0,0.0,0.0,0.0,0.0,0.0,0.0,0.0,2.5018,2.2327,2.0436,2.042,1.9805,1.9444,1.9444,1.8466,1.9325,2.2298,0.0,0.0,0.0,0.0,0.0,0.0,0.0,2.23,0.0,2.5287,2.4983,2.23,0.0,2.235,2.2527,0.0,2.4166,2.421,0.0,0.0,0.0,2.4486,2.4357,0.0,0.0,0.0,0.0,0.0,0.0,0.0,0.0,0.0,0.0,0.0,0.0,0.0,0.0,0.0,0.0,2.8599,0.0,3.0782,0.0,0.0,0.0,0.0,0.0,0.0,0.0,0.0,0.0,0.0,0.0,0.0,0.0,0.0,0.0,0.0,0.0,0.0,0.0,3.9971,3.869,3.5757,3.56,3.56,3.56,3.5521,3.5515,3.56,3.56,3.7071,3.9971,3.9971,4.0005,4.0096,4.0096,4.0096,4.0096,4.0096,4.0096,4.0096,4.0096,4.0096,4.0096,4.0096,4.0096,4.0096,4.0096,4.0096,4.0096,0.0,0.0,0.0,0.0,0.0,0.0,0.0,0.0,0.0,0.0,0.0,0.0,0.0,0.0,0.0,2.523,2.4441,2.3688,2.3157,2.2958,2.2836,2.2836,2.1703,2.1878,2.3648,0.0,0.0,0.0,0.0,0.0,0.0,0.0,0.0,0.0,2.3149,2.3064,2.23,2.23,0.0,0.0,2.354,2.3385,0.0,0.0,0.0,0.0,0.0,2.8157,0.0,0.0,2.5747,2.7464,0.0,0.0,0.0,0.0,0.0,0.0,2.4192,0.0,0.0,0.0,0.0,0.0,2.765,2.8436,2.9519,0.0,0.0,0.0,0.0,0.0,0.0,0.0,0.0,0.0,0.0,0.0,0.0,0.0,0.0,0.0,0.0,0.0,0.0,0.0,3.6845,3.6473,3.5639,3.56,3.56,3.56,3.3531,3.3435,3.5583,3.56,3.6011,3.6845,3.6845,3.799,4.0096,4.0096,4.0096,4.0096,4.0096,4.0096,4.0096,4.0096,4.0096,4.0096,4.0096,4.0096,4.0096,4.0096,4.0096,4.0096,0.0,0.0,0.0,0.0,0.0,0.0,0.0,0.0,0.0,0.0,0.0,0.0,0.0,0.0,0.0,2.484,2.484,2.4668,2.423,2.4192,2.3958,2.3434,2.2701,2.2906,2.417,0.0,0.0,0.0,0.0,0.0,0.0,0.0,0.0,0.0,0.0,0.0,0.0,0.0,0.0,0.0,2.5706,0.0,0.0,2.6864,2.8436,0.0,0.0,0.0,2.5348,2.5993,2.7448,0.0,0.0,0.0,0.0,0.0,0.0,0.0,0.0,0.0,0.0,0.0,0.0,0.0,2.7118,2.7192,2.7008,0.0,0.0,0.0,0.0,0.0,0.0,0.0,0.0,0.0,0.0,0.0,0.0,0.0,0.0,0.0,0.0,3.56,3.56,3.56,3.56,3.56,3.56,3.56,3.56,3.56,3.2741,3.2036,3.3751,3.3768,3.4376,3.56,3.56,3.6524,3.8267,3.9531,4.0096,4.0096,4.0096,4.0096,4.0096,4.0096,4.0096,4.0096,4.0096,4.0096,4.0096,4.0096,4.0096,4.0096,0.0,0.0,0.0,0.0,0.0,0.0,0.0,0.0,0.0,0.0,0.0,0.0,0.0,0.0,0.0,0.0,2.4127,2.4192,2.4192,2.4192,2.3624,2.2366,2.23,2.2833,2.3958,0.0,0.0,0.0,0.0,0.0,0.0,0.0,0.0,0.0,0.0,0.0,0.0,0.0,0.0,2.2753,2.8078,2.7232,0.0,0.0,2.5067,0.0,2.5761,2.6919,2.7387,2.8597,2.9078,0.0,0.0,0.0,0.0,0.0,2.4486,0.0,0.0,0.0,0.0,0.0,0.0,0.0,2.6707,2.5564,2.4192,2.4192,2.5268,0.0,0.0,0.0,0.0,0.0,0.0,0.0,0.0,0.0,0.0,0.0,0.0,0.0,3.56,3.5301,3.5115,3.5115,3.5115,3.5115,3.5115,3.5419,3.5453,3.5115,3.2577,3.1195,3.1195,3.1195,3.2679,3.56,3.56,3.56,3.569,3.8385,3.9599,3.9616,3.9954,4.0096,4.0096,4.0096,4.0096,4.0096,4.0096,4.0096,4.0096,4.0096,4.0096,4.0096,1.9504,0.0,0.0,0.0,0.0,0.0,0.0,0.0,0.0,0.0,0.0,0.0,0.0,0.0,0.0,0.0,2.3602,2.4192,2.4192,2.4192,2.3624,2.2366,2.23,2.2419,2.2671,2.3685,0.0,0.0,0.0,0.0,0.0,0.0,0.0,0.0,0.0,0.0,0.0,0.0,0.0,2.2401,2.3568,0.0,2.5896,2.6475,2.634,2.5917,2.6492,2.8256,3.0196,0.0,2.9561,3.0139,0.0,0.0,0.0,0.0,0.0,0.0,0.0,0.0,0.0,0.0,0.0,0.0,2.5376,2.4504,2.4192,0.0,2.3632,0.0,0.0,0.0,0.0,0.0,0.0,0.0,0.0,0.0,0.0,0.0,0.0,0.0,3.56,3.3452,3.2053,3.2053,3.2053,3.2053,3.2053,3.4309,3.4506,3.2138,3.15,3.1195,3.1195,3.1195,3.2679,3.56,3.56,3.56,3.5622,3.6214,3.6473,3.6608,3.9057,4.0096,4.0096,4.0096,4.0096,4.0096,4.0096,4.0096,4.0096,4.0096,4.0096,4.0096,2.1735,0.0,0.0,0.0,0.0,0.0,0.0,0.0,0.0,0.0,0.0,0.0,0.0,0.0,0.0,0.0,0.0,0.0,0.0,0.0,2.2964,2.2331,2.23,2.23,2.23,2.2938,2.3563,0.0,0.0,0.0,0.0,0.0,0.0,0.0,0.0,0.0,0.0,0.0,2.2887,2.23,2.23,0.0,2.67,2.67,2.67,2.67,2.67,2.7664,2.8719,2.7145,2.8561,0.0,0.0,2.9641,2.8928,0.0,2.7928,2.7302,0.0,0.0,0.0,2.77,0.0,0.0,0.0,2.5195,2.4369,2.4228,2.3699,2.3054,2.2419,0.0,0.0,0.0,0.0,0.0,0.0,0.0,0.0,0.0,0.0,0.0,3.3401,3.207,3.1195,3.1195,3.1889,3.1985,3.1246,3.2606,3.273,3.1246,3.1195,3.1195,3.1195,3.1195,3.2679,3.56,3.56,3.56,3.56,3.56,3.56,3.5684,3.7206,3.8707,4.0096,4.0096,4.0096,4.0096,4.0096,4.0096,4.0096,4.0096,4.0096,4.0096,2.4192,0.0,0.0,0.0,0.0,0.0,0.0,0.0,0.0,0.0,0.0,0.0,0.0,0.0,0.0,0.0,0.0,0.0,0.0,0.0,0.0,2.23,2.23,2.23,2.23,2.2545,2.3176,2.4192,0.0,0.0,0.0,0.0,0.0,0.0,0.0,0.0,0.0,0.0,0.0,2.23,0.0,2.4069,2.67,2.67,2.67,2.67,2.67,2.67,2.6636,2.6197,0.0,3.1283,3.1485,3.0928,0.0,0.0,0.0,0.0,0.0,0.0,0.0,0.0,0.0,2.6858,0.0,0.0,0.0,2.4489,2.4243,0.0,0.0,0.0,0.0,0.0,0.0,0.0,0.0,0.0,0.0,0.0,0.0,0.0,3.0282,3.0333,3.0569,3.1166,3.2036,3.2154,3.1246,3.1195,3.1195,3.1195,3.1195,3.1331,3.1618,3.1331,3.2408,3.4765,3.5335,3.56,3.56,3.56,3.56,3.56,3.56,3.6986,3.9277,3.9852,4.0096,4.0096,4.0096,4.0096,4.0096,4.0096,4.0096,4.0096,2.4192,2.4266,0.0,0.0,0.0,0.0,0.0,0.0,0.0,0.0,0.0,0.0,0.0,0.0,0.0,0.0,0.0,0.0,2.23,0.0,0.0,2.23,2.23,2.23,2.23,2.3414,2.4054,2.4192,0.0,0.0,0.0,0.0,0.0,0.0,2.3624,0.0,0.0,0.0,2.3465,0.0,2.23,2.4069,0.0,2.67,2.67,2.67,2.67,2.67,2.7326,0.0,3.1813,3.0861,0.0,3.1222,0.0,0.0,0.0,0.0,0.0,0.0,0.0,0.0,3.0776,0.0,0.0,0.0,2.8356,2.5356,0.0,0.0,0.0,0.0,0.0,0.0,0.0,0.0,0.0,0.0,0.0,0.0,0.0,0.0,0.0,2.7203,2.8319,3.0997,3.0134,3.0004,3.1149,3.1195,3.1195,3.1195,3.1195,3.1838,3.313,3.185,3.1364,3.1737,3.4359,3.56,3.56,3.56,3.56,3.56,3.56,3.5785,3.6321,3.9,4.0096,4.0096,4.0096,4.0096,4.0096,4.0096,4.0096,4.0096,2.4192,2.4538,0.0,0.0,0.0,0.0,0.0,0.0,0.0,0.0,0.0,0.0,0.0,0.0,0.0,0.0,0.0,2.4133,0.0,0.0,0.0,0.0,2.23,2.23,2.23,2.3547,2.4192,2.4192,2.4192,0.0,0.0,0.0,0.0,0.0,2.5911,0.0,2.4256,0.0,0.0,0.0,0.0,0.0,0.0,2.67,2.67,2.67,2.67,2.67,2.7016,0.0,3.0927,0.0,0.0,0.0,0.0,0.0,0.0,0.0,0.0,0.0,0.0,0.0,0.0,0.0,2.8359,0.0,2.648,0.0,0.0,0.0,0.0,0.0,0.0,0.0,2.5053,0.0,0.0,0.0,0.0,0.0,0.0,0.0,0.0,0.0,0.0,0.0,2.7055,2.8696,3.1077,3.1195,3.1195,3.1195,3.1195,3.15,3.2121,3.3215,3.2894,3.1212,3.2459,3.4577,3.7364,3.6154,3.56,3.56,3.56,3.56,3.5825,3.8865,4.0096,4.0096,4.0096,4.0096,4.0096,4.0096,4.0096,4.0096,2.4505,0.0,0.0,0.0,0.0,0.0,0.0,0.0,0.0,0.0,0.0,0.0,2.3504,2.4231,0.0,0.0,0.0,2.4594,0.0,0.0,2.3504,2.3504,2.3504,0.0,0.0,2.4834,2.5527,2.5527,0.0,0.0,0.0,0.0,0.0,0.0,0.0,2.721,2.4261,0.0,0.0,2.6513,2.437,2.4302,2.5579,2.6391,2.67,2.67,2.67,2.67,2.67,2.67,2.9289,0.0,3.0769,0.0,0.0,0.0,0.0,0.0,3.154,0.0,0.0,0.0,0.0,0.0,0.0,0.0,0.0,0.0,0.0,0.0,0.0,0.0,0.0,0.0,0.0,2.3051,0.0,0.0,0.0,0.0,0.0,0.0,0.0,0.0,0.0,2.2976,2.4795,2.7173,2.9836,2.9977,3.0349,3.1161,3.1195,3.1331,3.1613,3.3463,3.3717,3.2396,3.2283,3.45,3.8643,3.7131,3.6443,3.6412,3.5854,3.56,3.5774,3.7956,3.8865,3.8949,3.9785,4.0096,4.0096,4.0096,4.0096,4.0096,2.5261,2.5275,0.0,0.0,0.0,0.0,0.0,0.0,0.0,0.0,0.0,0.0,0.0,0.0,0.0,0.0,0.0,2.2401,2.2303,0.0,2.656,2.656,2.656,2.656,0.0,0.0,2.8858,2.8858,0.0,0.0,0.0,0.0,0.0,0.0,0.0,2.721,2.4124,2.2947,2.4099,2.6695,2.6598,2.4915,2.2756,0.0,2.67,2.67,2.67,0.0,0.0,2.67,2.7786,0.0,0.0,0.0,0.0,0.0,0.0,0.0,0.0,0.0,0.0,2.9485,0.0,0.0,0.0,0.0,2.4589,0.0,0.0,0.0,0.0,0.0,0.0,0.0,0.0,0.0,0.0,0.0,0.0,0.0,0.0,0.0,0.0,0.0,2.4246,2.4141,2.4228,2.5031,2.6758,2.6835,2.8184,3.1111,3.1195,3.1664,3.2635,3.1782,3.273,3.5447,3.4996,3.6165,3.8703,3.8631,3.8604,3.8499,3.6469,3.56,3.5605,3.5701,3.574,3.6028,3.8966,4.0096,4.0096,4.0096,4.0096,4.0096,0.0,0.0,0.0,0.0,0.0,0.0,0.0,2.5874,0.0,0.0,0.0,0.0,0.0,0.0,3.3333,0.0,0.0,2.733,2.5338,2.4319,0.0,0.0,0.0,2.4695,0.0,0.0,0.0,0.0,0.0,0.0,0.0,0.0,0.0,0.0,0.0,2.6405,0.0,0.0,0.0,0.0,0.0,2.4928,2.2401,0.0,0.0,2.4049,2.6002,2.67,0.0,2.67,2.7055,2.7851,2.9958,3.0259,2.9928,3.0454,3.0852,0.0,0.0,0.0,3.1173,3.0286,0.0,0.0,0.0,0.0,0.0,0.0,0.0,0.0,0.0,0.0,0.0,0.0,0.0,0.0,0.0,0.0,0.0,0.0,0.0,0.0,0.0,0.0,0.0,2.4192,2.4192,2.4447,2.5013,2.4251,2.5573,2.9485,3.0639,3.136,3.1698,3.1364,3.1698,3.2696,3.2527,3.2891,3.3853,3.7186,3.7947,3.6616,3.592,3.56,3.56,3.56,3.56,3.5701,3.6716,3.8334,4.0096,4.0096,4.0096,4.0096,2.4814,0.0,0.0,0.0,0.0,0.0,0.0,0.0,0.0,0.0,2.8552,0.0,2.9871,0.0,3.4827,0.0,3.2758,3.1946,2.9989,2.6095,0.0,2.6615,2.3863,0.0,0.0,0.0,0.0,0.0,0.0,2.7212,0.0,0.0,0.0,0.0,0.0,0.0,2.7925,0.0,2.3406,0.0,0.0,2.4002,0.0,0.0,2.5055,2.2553,0.0,2.5816,2.67,2.67,2.7054,2.7683,2.8694,2.9002,2.9002,2.9002,2.9726,3.0467,3.0118,3.0283,0.0,3.0121,2.9506,0.0,2.5894,0.0,0.0,0.0,0.0,0.0,0.0,0.0,0.0,0.0,0.0,0.0,0.0,2.4192,0.0,0.0,0.0,0.0,0.0,0.0,2.4192,2.4192,2.4192,2.4192,0.0,0.0,2.5082,2.8691,2.9845,3.0676,3.1195,3.1195,3.1195,3.1195,3.1195,3.1195,3.1363,3.6411,3.7578,3.56,3.56,3.56,3.56,3.56,3.56,3.56,3.56,3.7449,4.0096,4.0096,4.0096,4.0096,0.0,0.0,0.0,0.0,2.7426,0.0,0.0,0.0,2.8476,0.0,3.2217,3.5774,3.5622,3.56,3.56,3.56,3.56,0.0,3.56,3.0154,0.0,0.0,2.4315,2.3977,2.6645,0.0,0.0,0.0,0.0,0.0,0.0,0.0,0.0,0.0,2.9002,0.0,2.6621,2.3578,2.23,2.23,2.23,2.23,2.323,3.1712,2.9688,2.23,2.23,2.4099,2.6492,2.6649,2.7661,2.8902,2.8985,2.9002,2.9002,2.9002,2.9002,2.9002,2.9002,2.9002,2.9002,2.9002,0.0,0.0,0.0,0.0,2.6129,0.0,0.0,0.0,0.0,0.0,0.0,0.0,0.0,0.0,0.0,0.0,0.0,0.0,0.0,0.0,0.0,2.3442,2.4173,2.4192,2.4192,2.421,0.0,0.0,2.6532,2.8756,2.9058,2.9835,3.12,3.1244,3.1244,3.1195,3.1195,3.1195,3.1353,3.6144,3.739,3.5755,3.5633,3.56,3.56,3.56,3.56,3.5616,3.5757,3.7584,4.0096,4.0096,4.0096,4.0096,2.7776,2.8627,2.9083,0.0,2.8587,2.8476,0.0,0.0,0.0,0.0,3.6603,3.8097,3.5836,3.56,3.56,3.56,3.56,0.0,0.0,0.0,0.0,3.3221,3.0492,2.8213,2.6729,2.4556,0.0,2.67,0.0,0.0,2.6737,0.0,0.0,0.0,0.0,0.0,2.8141,2.4047,2.23,2.23,2.23,2.23,0.0,0.0,2.4295,2.23,2.23,2.279,2.3761,2.5968,2.6962,2.7493,2.8633,2.9002,2.9002,2.9002,2.9002,2.9002,2.9002,2.9002,2.9002,2.9002,2.9002,2.9244,0.0,0.0,0.0,0.0,0.0,0.0,0.0,0.0,0.0,0.0,0.0,0.0,0.0,0.0,0.0,2.4147,0.0,0.0,2.3227,2.3486,2.3821,2.4173,2.4192,2.4451,2.5062,0.0,0.0,2.924,3.0793,3.147,3.1205,3.1841,3.1841,3.1195,3.1195,3.1195,3.1232,3.2541,3.4866,3.783,3.6274,3.56,3.56,3.56,3.56,3.5825,3.8064,3.9429,4.0096,4.0096,4.0096,4.0096,2.9002,0.0,0.0,2.9002,0.0,0.0,2.693,0.0,0.0,3.1265,3.5456,0.0,3.5791,3.56,3.56,3.56,3.56,0.0,3.56,0.0,0.0,3.5532,3.2775,3.0405,2.8708,2.5744,0.0,2.67,0.0,0.0,2.6737,0.0,0.0,0.0,0.0,2.9002,0.0,2.4205,2.23,2.23,2.23,0.0,0.0,2.23,2.3098,2.4218,2.4218,2.3385,2.2553,2.4218,2.478,2.5154,2.73,2.8457,2.9002,2.9002,2.9002,2.9002,2.9002,3.0035,3.0751,2.9354,2.9002,2.9244,3.0133,2.9159,2.8198,0.0,0.0,0.0,0.0,0.0,0.0,0.0,0.0,0.0,0.0,0.0,0.0,0.0,2.3983,0.0,2.3419,2.3623,2.3914,2.4178,2.463,2.5057,2.5377,0.0,0.0,2.9471,3.2092,3.2919,3.1786,3.2627,3.2433,3.1212,3.251,3.2459,3.1195,3.1195,3.3946,3.8574,3.6499,3.56,3.56,3.56,3.6372,3.7736,3.9446,4.0096,4.0096,4.0096,4.0096,4.0096,0.0,0.0,0.0,0.0,0.0,0.0,0.0,2.7863,0.0,2.6793,0.0,3.4726,3.5515,3.56,3.56,3.56,0.0,3.56,3.56,3.56,3.56,3.56,3.2775,3.1195,3.1195,2.8235,0.0,0.0,0.0,0.0,0.0,0.0,0.0,0.0,0.0,0.0,0.0,2.4524,2.2655,2.23,2.23,2.23,2.2334,2.2726,2.4475,2.67,2.67,2.505,2.2827,2.2438,2.23,2.2743,2.5325,2.7166,2.8452,2.8877,2.9002,2.9002,2.9002,3.1048,3.2501,2.9702,2.9002,2.9002,2.9002,2.9247,2.9147,2.7957,2.6855,2.6018,0.0,0.0,0.0,0.0,0.0,0.0,0.0,0.0,0.0,0.0,0.0,0.0,2.3507,2.3935,2.4266,2.4208,2.5052,2.555,2.5469,0.0,0.0,2.962,3.2766,3.4073,3.332,0.0,3.3471,3.2208,3.451,3.4258,3.1787,3.1787,3.4314,3.8574,3.6499,3.56,3.56,3.56,3.7375,4.0096,4.0096,4.0096,4.0096,4.0096,4.0096,4.0096,0.0,0.0,0.0,0.0,0.0,2.8669,3.3324,3.4033,3.2267,2.7341,2.761,3.0137,3.5059,3.56,3.56,3.56,3.56,0.0,0.0,0.0,0.0,3.56,3.2775,3.1195,3.1195,2.8235,2.5511,0.0,0.0,0.0,0.0,0.0,0.0,0.0,0.0,0.0,2.7043,2.6268,0.0,2.23,2.23,2.23,2.2574,2.4996,2.626,2.67,2.67,2.6378,2.5562,2.3111,2.23,2.2384,2.2908,2.3976,2.5564,2.8216,2.9002,2.9002,2.9002,2.9406,2.9702,2.9131,2.9002,2.9002,2.9002,2.8099,2.7558,2.8601,2.7157,2.5676,2.5617,0.0,0.0,0.0,0.0,0.0,0.0,0.0,0.0,0.0,0.0,2.4741,0.0,2.4679,2.4626,2.423,2.4376,2.4853,2.5695,0.0,0.0,0.0,3.1954,0.0,0.0,0.0,3.638,3.7362,3.6175,3.5335,3.4833,3.4833,3.6258,3.8574,3.6499,3.56,3.56,3.56,3.7375,4.0096,4.0096,4.0096,4.0096,4.0096,4.0096,4.0096,0.0,0.0,0.0,0.0,0.0,0.0,0.0,3.56,0.0,3.1688,3.1316,3.2415,3.5295,3.56,3.56,3.56,3.56,3.56,3.56,3.56,3.4912,3.3384,3.1952,0.0,3.1195,2.8235,2.5253,2.23,0.0,0.0,0.0,0.0,0.0,0.0,0.0,2.7395,0.0,0.0,0.0,2.23,2.23,2.3216,2.4746,2.6154,2.67,2.67,2.67,2.5714,2.4421,2.4556,2.3575,2.23,2.23,2.432,2.699,2.8546,2.9002,2.9002,2.9002,2.9002,2.9002,2.9002,2.9002,2.8794,2.7991,2.7222,2.6927,2.7707,2.6957,2.6118,2.5936,2.5698,0.0,0.0,0.0,0.0,0.0,0.0,0.0,0.0,0.0,0.0,0.0,0.0,0.0,0.0,0.0,2.5104,2.5768,0.0,0.0,0.0,0.0,0.0,0.0,0.0,0.0,3.7074,3.6074,3.56,3.56,3.56,3.6149,3.7093,3.7169,3.6601,3.5718,3.7291,3.8797,4.0096,4.0096,4.0096,4.0096,4.0096,4.0096,4.0096,0.0,3.4589,0.0,0.0,3.2249,0.0,3.5335,3.6146,3.6321,3.5684,3.56,3.56,3.56,3.56,3.56,3.56,3.56,3.56,3.56,3.56,3.4275,3.1331,3.1195,3.1195,3.1195,2.8235,2.5562,0.0,0.0,0.0,0.0,0.0,0.0,0.0,0.0,0.0,0.0,0.0,2.2655,2.3237,2.3237,2.4628,2.67,2.67,2.67,2.67,2.67,2.4797,2.2756,2.5714,2.5156,2.3237,2.3237,2.5892,2.8934,2.8605,2.8505,2.8552,2.8716,2.877,2.8837,2.9162,2.9007,2.8489,2.7426,2.7106,2.7084,2.7292,2.7118,2.688,2.6726,2.6325,0.0,0.0,0.0,0.0,0.0,0.0,0.0,0.0,0.0,0.0,2.3883,0.0,0.0,0.0,0.0,2.5344,2.5787,2.6599,2.7666,0.0,0.0,3.2161,3.377,0.0,4.0393,3.6253,3.581,3.56,3.56,3.56,3.56,3.5717,3.7795,3.7519,3.5825,3.8865,4.0096,4.0096,4.0096,4.0096,4.0096,4.0096,4.0096,4.0096,0.0,0.0,0.0,0.0,0.0,0.0,3.5977,3.7922,3.8696,3.596,3.56,3.56,3.56,3.56,3.56,3.56,3.56,3.56,3.56,3.56,3.4275,3.1331,3.1195,3.1195,3.1195,2.8235,2.656,0.0,0.0,0.0,0.0,0.0,0.0,0.0,0.0,0.0,0.0,2.3555,2.3842,2.6289,2.6289,2.6442,2.67,2.67,2.67,2.67,2.67,2.4797,2.2756,2.5714,2.6526,2.6289,2.6289,2.7547,2.8725,2.7326,2.6927,2.7062,2.7801,2.8003,2.8326,2.9658,2.8982,2.8146,2.8668,2.8404,2.8315,2.9225,2.8496,2.7828,2.8203,2.7949,2.8034,0.0,0.0,0.0,0.0,0.0,0.0,0.0,0.0,0.0,0.0,2.4249,0.0,0.0,2.4377,2.4744,2.5753,2.5897,2.688,2.8947,0.0,3.2161,3.377,3.7367,3.8901,3.8393,3.6499,3.56,3.56,3.56,3.56,3.5717,3.7795,3.7519,3.5825,3.8865,4.0096,4.0096,4.0096,4.0096,4.0096,4.0096,4.0096,4.0096,0.0,0.0,0.0,0.0,0.0,0.0,0.0,3.7787,3.7618,3.821,3.6716,3.56,3.56,3.56,3.56,3.56,3.56,3.56,3.56,3.3937,3.242,3.1246,3.1195,3.1195,3.1195,2.8235,2.67,0.0,0.0,0.0,0.0,0.0,0.0,0.0,0.0,2.67,2.6628,2.5443,2.5625,2.67,2.67,2.67,2.67,2.67,2.67,2.67,2.67,2.5934,2.5118,2.6306,2.67,2.67,2.67,2.7117,2.7505,2.6886,2.7035,2.7396,2.7212,2.7182,2.7536,2.9063,2.8998,2.8552,2.8539,2.8344,2.8141,2.7935,2.7854,2.8015,2.8738,2.909,2.943,0.0,0.0,0.0,0.0,0.0,0.0,0.0,0.0,0.0,0.0,0.0,0.0,0.0,0.0,2.4574,2.505,2.6151,2.8332,3.1763,0.0,3.4104,3.6725,3.8043,3.8703,3.8666,3.6596,3.56,3.56,3.56,3.56,3.5717,3.7795,3.8549,3.8385,3.9599,4.0096,4.0096,4.0096,4.0096,4.0096,4.0096,4.0096,4.0096,3.7212,0.0,4.0096,0.0,4.0096,4.0096,4.0096,3.8294,3.7686,3.9819,3.7466,3.56,3.56,3.56,3.56,3.56,3.56,3.56,3.56,3.3649,3.2104,3.1246,3.1195,0.0,3.1195,2.9119,2.7596,2.67,2.67,0.0,0.0,0.0,0.0,0.0,2.8193,2.67,2.67,2.67,2.67,2.67,2.67,2.67,2.67,2.67,2.67,2.67,2.67,2.67,2.67,2.67,2.67,2.67,2.67,2.67,2.67,2.67,2.7099,2.7416,2.6849,2.6864,2.7283,2.837,2.8836,2.8954,2.8801,2.8767,2.8564,2.7858,2.8103,2.8693,2.9447,2.9921,3.0232,3.035,0.0,0.0,0.0,0.0,0.0,0.0,2.5806,2.5838,2.5441,2.5613,0.0,0.0,0.0,0.0,2.5992,2.6747,0.0,0.0,0.0,0.0,0.0,3.8703,3.9162,4.0082,3.7948,3.6456,3.56,3.56,3.6079,3.6994,3.8464,3.9487,4.0096,4.0096,4.0096,4.0096,4.0096,4.0096,4.0096,4.0096,4.0096,4.0096,4.0045,4.0072,4.0096,4.0096,4.0096,4.0096,4.0096,4.0079,4.0056,4.0096,3.7466,3.56,3.56,3.56,3.56,3.56,3.56,3.56,3.56,3.5571,3.4258,0.0,0.0,3.1195,3.1195,3.1161,2.9694,2.67,0.0,0.0,3.3733,0.0,2.8215,2.6784,2.6725,2.67,2.67,2.67,2.67,2.67,2.67,2.67,2.67,2.67,2.67,2.67,2.67,2.67,2.67,2.67,2.67,2.67,2.67,2.67,2.67,2.67,2.6704,2.6708,2.6704,2.7224,2.779,2.7807,2.8412,2.9191,2.9917,3.0081,3.0065,3.0065,3.0065,3.02,3.0612,3.0415,3.0334,3.0736,0.0,0.0,0.0,0.0,0.0,0.0,2.6496,2.6707,2.5514,2.6119,0.0,0.0,0.0,0.0,0.0,0.0,0.0,2.9002,3.2133,0.0,3.8667,3.8703,4.0304,4.3411,4.1126,3.8487,3.56,3.56,3.7229,4.0045,4.0076,4.0087,4.0096,4.0096,4.0096,4.0096,4.0096,4.0096,4.0096,4.0096,4.0096,4.0096,4.0096,4.0096,4.0096,4.0096,4.0096,4.0096,4.0096,4.0096,3.9356,3.7308,3.6203,3.56,3.56,3.56,3.56,0.0,3.56,3.56,0.0,3.56,3.4275,3.1331,3.1195,3.1195,3.1195,3.1195,2.9723,2.67,0.0,0.0,0.0,2.8408,2.7173,2.67,2.67,2.67,2.67,2.67,2.67,2.67,2.67,2.67,2.67,2.67,2.67,2.67,2.67,2.67,2.67,2.67,2.67,2.67,2.67,2.67,2.67,2.67,2.67,2.67,2.67,2.7245,2.7925,2.8484,2.8814,2.9191,2.9934,2.9702,2.9356,2.9356,2.9356,2.9406,2.9575,3.0382,3.0781,3.0091,3.004,0.0,0.0,0.0,0.0,0.0,2.7328,2.7761,0.0,2.7278,0.0,0.0,0.0,0.0,0.0,0.0,0.0,0.0,3.2603,0.0,3.8667,3.8703,4.0322,4.3466,4.1196,3.852,3.5667,3.7736,3.9186,4.0096,4.0096,4.099,4.2294,4.0744,4.0096,4.0096,4.0096,4.0096,4.0096,4.0096,4.0096,4.0096,4.0096,4.0096,4.0096,4.0096,4.0096,4.0096,4.0096,4.0096,3.9017,3.5994,3.56,3.56,3.56,3.56,0.0,3.56,3.56,3.56,3.56,3.4557,3.313,3.128,3.1195,3.1195,3.1195,0.0,0.0,2.8387,2.7832,2.7765,2.8129,2.7149,2.67,2.67,2.67,2.67,2.67,2.67,2.67,2.67,2.67,2.67,2.67,2.67,2.67,2.67,2.67,2.67,2.67,2.67,2.67,2.67,2.67,2.67,2.67,2.67,2.67,2.67,2.67,2.7452,2.8294,2.8501,2.9187,2.9953,3.0412,3.0163,2.9834,2.9834,2.9829,2.9885,3.0074,3.0664,3.0857,2.9962,2.9481,2.8566,2.6738,0.0,0.0,0.0,0.0,0.0,0.0,2.8891,2.9665,0.0,0.0,0.0,0.0,0.0,0.0,3.2235,3.3259,0.0,3.8667,3.8703,4.0322,4.3466,4.1196,3.9102,3.7347,3.9237,4.0096,4.0096,4.0096,4.0908,4.2116,4.0684,4.0096,4.0096,4.0096,4.0096,4.0096,4.0096,4.0096,4.0096,4.0096,4.0096,0.0,0.0,4.0096,0.0,4.0096,4.0096,3.9017,3.5994,3.56,3.56,3.56,3.56,3.56,3.56,0.0,0.0,0.0,3.2843,3.1195,3.1195,3.1195,3.1195,3.1195,3.1195,3.1094,3.0891,2.9508,2.8101,2.67,2.67,2.67,2.67,2.67,2.67,2.67,2.67,2.67,2.67,2.67,2.67,2.67,2.67,2.67,2.67,2.67,2.67,2.67,2.67,2.67,2.67,2.67,2.6733,2.6767,2.6716,2.6733,2.678,2.678,2.7905,2.8899,2.8149,2.963,3.1285,3.1285,3.1285,3.1268,3.1212,3.1168,3.1238,3.1584,3.1089,3.0497,3.0121,2.8609,2.6954,2.5423,0.0,0.0,0.0,0.0,0.0,0.0,3.0702,3.1425,0.0,0.0,0.0,0.0,0.0,3.4988,3.4355,3.4103,3.5495,3.8667,3.8924,4.0543,4.3466,4.1196,4.0096,4.0096,4.0096,4.0096,4.0096,4.0096,4.0096,4.0096,4.0096,4.0096,4.0096,4.0096,4.0096,4.0096,4.0096,4.0096,4.0096,0.0,0.0,4.0096,4.0096,4.0096,4.0096,4.0096,4.0096,3.9017,3.5994,3.56,3.56,3.56,3.56,3.56,3.56,3.56,3.56,3.56,3.2843,3.1195,3.1195,3.1195,3.1195,3.1195,3.1195,3.0062,2.7761,2.7415,2.705,2.67,2.67,2.67,2.67,2.67,2.67,2.67,2.67,2.67,2.67,2.67,2.67,2.67,2.67,2.67,2.67,2.67,2.67,2.67,2.67,2.67,2.67,2.67,2.7093,2.7427,2.686,2.7097,2.7541,2.7541,2.8661,2.9782,2.9603,3.0806,3.2034,3.2034,3.2034,3.1882,3.1319,3.0748,3.0297,3.0076,2.9937,2.9631,2.8942,2.8504,2.7785,2.6506,2.7614,0.0,0.0,2.9952,3.0968,3.0583,3.0687,3.1182,0.0,0.0,0.0,0.0,3.623,3.6901,3.4745,3.5345,3.667,3.8685,4.1134,4.2753,4.3466,4.1196,4.0096,4.0096,4.0096,4.0096,4.0096,4.0096,4.0096,4.0096,4.0096,4.0096,4.0096,4.0096,4.0096,4.0096,4.0096,4.0096,4.0096,4.0096,4.0096,4.0096,4.0096,4.0096,4.0096,4.0096,4.0096,3.9017,3.5994,3.56,3.56,3.56,3.56,3.56,3.56,3.56,3.503,3.3688,3.2087,3.1195,3.1195,3.1195,3.1195,3.1195,3.1195,2.9723,2.67,2.67,2.67,2.67,2.67,2.67,2.67,2.67,2.67,2.67,2.67,2.67,2.67,2.67,2.67,2.67,2.67,2.67,2.67,2.67,2.67,2.67,2.67,2.67,2.678,2.7237,2.7663,2.7946,2.7799,2.8032,2.8349,2.8349,2.9207,3.0188,3.0526,3.1454,3.2293,3.2293,3.2299,3.2198,3.1784,3.1386,3.0988,3.0619,2.9885,2.9231,2.8981,2.7942,2.7014,2.6547,2.77,0.0,2.9303,3.1217,3.2492,3.2492,3.3134,3.3657,3.3974,3.5414,0.0,3.5734,3.8261,3.8575,3.6112,3.746,3.8732,3.979,4.2254,4.3506,4.3466,4.1196,4.0654,4.1626,4.0576,4.0096,4.0096,4.0096,4.0096,4.0096,4.0096,4.0096,4.0096,4.0096,4.0096,4.0096,4.0096,4.0096,4.0096,4.0096,4.0096,4.0096,4.0096,4.0096,4.0096,4.0096,4.0096,3.9017,3.5994,3.56,3.56,3.56,3.56,3.56,3.56,3.56,3.4359,3.1381,3.1195,3.1195,3.1195,3.1195,3.1195,3.1195,3.0755,2.9271,2.67,2.67,2.67,2.67,2.67,2.67,2.67,2.67,2.67,2.67,2.67,2.67,2.67,2.67,2.67,2.67,2.67,2.67,2.67,2.67,2.67,2.67,2.67,2.6903,2.7326,2.8344,2.8581,2.8581,2.9034,2.9242,2.9314,2.9196,2.9791,3.0581,3.1212,3.1995,3.2627,3.2627,3.2621,3.2639,3.2621,3.2536,3.2351,3.1954,3.039,2.9281,2.9627,2.7624,2.6146,2.6482,0.0,2.9157,3.0133,3.2671,3.4412,3.4523,3.6347,3.6976,3.573,3.812,3.9298,3.8569,4.0197,4.0328,3.8451,3.9824,4.0864,4.1464,4.2823,4.3506,4.347,4.1545,4.1637,4.3427,4.1144,4.0096,4.0096,4.0096,4.0096,4.0096,4.0096,4.0096,4.0096,4.0096,4.0096,4.0096,4.0096,4.0096,4.0096,4.0096,4.0096,4.0096,4.0096,4.0096,4.0096,4.0096,4.0096,3.9017,3.5994,3.56,3.56,3.56,3.56,3.56,3.56,3.56,3.4359,3.1381,3.1195,3.1195,3.1195,3.1195,3.1195,3.1195,2.8708,2.7173,2.67,2.67,2.67,2.67,2.67,2.67,2.67,2.67,2.67,2.67,2.67,2.67,2.67,2.67,2.67,2.67,2.67,2.67,2.67,2.67,2.67,2.67,2.67,2.7838,2.9416,3.0417,3.0311,2.9828,2.9895,3.0362,3.0722,3.0108,3.0925,3.1984,3.2107,3.3146,3.4161,3.4161,3.4157,3.4169,3.4167,3.3655,3.3028,3.2355,3.0966,2.9945,3.0003,2.8918,2.8056,2.806,0.0,3.2538,3.2719,3.5214,3.7191,3.7859,3.7669,3.8177,3.9811,3.9774,4.0059,4.0917,4.2151,4.2751,4.2566,4.1544,4.1687,4.3102,4.3378,4.3506,4.3506,4.3137,4.3169,4.3427,4.1144,4.0096,4.0096,4.0096,4.0096,4.0096,4.0096,4.0096,4.0096,4.0096,4.0096,4.0096,4.0096,4.0096,4.0096,4.0096,4.0096,4.0096,4.0096,4.0096,3.9542,3.7922,3.7686,3.7172,3.5774,3.56,3.56,3.56,3.56,3.56,3.56,3.4157,3.3333,3.3553,3.2087,3.1195,3.1195,3.1195,3.1195,3.1195,2.8235,2.67,2.67,2.67,2.67,2.67,2.67,2.7579,2.9114,2.9114,2.9114,2.9013,2.7389,2.67,2.67,2.67,2.67,2.67,2.67,2.67,2.6919,2.8544,2.9114,2.9114,2.9114,2.9745,3.0596,3.1043,3.0975,3.0683,3.0683,3.0925,3.1212,3.1263,3.2075,3.2887,3.2887,3.3699,3.4494,3.4494,3.481,3.4974,3.4579,3.4556,3.4241,3.3107,3.1686,3.0818,3.1212,3.0052,0.0,0.0,3.2534,3.4348,3.544,3.7476,3.9115,3.9911,3.9662,4.0011,4.1436,4.1205,4.1503,4.2689,4.3064,4.3451,4.3851,4.292,4.2749,4.3488,4.3506,4.3506,4.3506,4.3506,4.3506,4.3457,4.2416,4.1251,4.0096,4.0096,4.0096,4.0096,4.0096,4.0096,4.0096,4.0096,4.0096,4.0096,4.0096,4.0096,4.0096,4.0096,4.0096,4.0096,4.0096,3.9531,3.8261,3.596,3.56,3.56,3.56,3.56,3.56,3.56,3.56,3.56,3.56,3.3531,3.3181,3.5453,3.2843,3.1195,3.1195,3.1195,3.1195,3.1195,2.8928,2.7749,2.7749,2.7749,2.7389,2.6716,2.7427,2.8611,3.0146,3.0146,3.0146,2.9994,2.7677,2.67,2.67,2.67,2.67,2.67,2.67,2.7139,2.7964,2.9571,3.0603,3.1195,3.1195,3.1195,3.1195,3.1195,3.1195,3.1263,3.1618,3.1804,3.1995,3.2435,3.309,3.3705,3.3874,3.4336,3.4844,3.5205,3.5605,3.5769,3.5368,3.5605,3.5475,3.4157,3.2713,3.1934,3.2622,0.0,0.0,0.0,3.4512,3.6125,3.7848,3.9486,4.0767,4.1585,4.1654,4.194,4.2621,4.2674,4.3065,4.3938,4.3739,4.3733,4.4031,4.3695,4.3506,4.3506,4.3506,4.3506,4.3483,4.2968,4.2991,4.3475,4.2954,4.1743,4.0096,4.0096,4.0096,4.0096,4.0096,4.0096,4.0096,4.0096,4.0096,4.0096,4.0096,4.0096,4.0096,4.0096,4.0096,4.0096,4.0096,3.7787,3.5859,3.5633,3.56,3.56,3.56,3.56,3.56,3.56,3.56,3.56,3.56,3.5402,3.5368,3.5588,3.2843,3.1195,3.1195,3.1195,3.1195,3.1195,3.0975,3.0874,3.0874,3.0874,2.9441,2.6763,2.9559,2.9504,2.7038,2.7038,2.7038,2.7021,2.6784,2.67,2.67,2.67,2.67,2.67,2.67,2.8442,3.0536,2.7947,2.8827,3.1195,3.1195,3.1195,3.1195,3.1195,3.1195,3.1466,3.2843,3.3598,3.3874,3.344,3.3863,3.4573,3.5267,3.5481,3.5893,3.7319,3.7167,3.6885,3.751,3.715,3.6445,3.5594,3.4224,3.3431,3.3963,0.0,0.0,3.5181,3.7119,3.8721,3.9629,4.113,4.2437,4.3249,4.3322,4.3636,4.4367,4.442,4.4451,4.453,4.453,4.4213,4.3563,4.3513,4.3506,4.3506,4.3506,4.3506,4.347,4.1358,4.1457,4.3431,4.1313,4.026,4.0096,4.0096,4.0096,4.0096,4.0096,4.0096,4.0096,4.0096,4.0096,4.0096,4.0096,4.0096,4.0096,4.0096,4.0096,4.0096,4.0096,3.7601,3.56,3.56,3.56,3.56,3.56,3.56,3.56,3.56,3.56,3.56,3.56,3.56,3.56,3.56,3.2843,3.1195,3.1195,3.1195,3.1195,3.1195,3.1195,3.1195,3.1195,2.9334,2.8781,2.947,2.8747,2.8798,2.9402,2.7524,2.67,2.67,2.67,2.67,2.6869,2.8742,2.9487,2.9487,2.9487,3.0197,3.1043,2.9893,3.0231,3.1195,3.1195,3.1195,3.1195,3.1195,3.1195,3.1668,3.4066,3.4917,3.5019,3.4816,3.4629,3.4797,3.6045,3.6334,3.6611,3.7649,3.8041,3.8114,3.7939,3.8041,3.7928,3.7172,3.6197,3.5822,3.6824,0.0,3.649,3.8277,3.9472,4.0489,4.1283,4.2364,4.3153,4.3469,4.3506,4.3803,4.4537,4.4378,4.4347,4.4583,4.4173,4.3787,4.3519,4.3506,4.3506,4.3506,4.3506,4.3506,4.3466,4.1196,4.1285,4.3427,4.1144,4.0096,4.0096,4.0096,4.0096,4.0096,4.0096,4.0096,4.0096,4.0096,4.0096,4.0096,4.0096,4.0096,4.0096,4.0096,3.9339,3.8696,3.8696,3.6986,3.56,3.56,3.56,3.56,3.56,3.56,3.56,3.56,3.56,3.56,3.56,3.56,3.56,3.56,3.2843,3.1618,3.2544,3.2572,3.2154,3.1212,3.1195,3.1195,3.1195,2.9136,2.9165,3.1128,2.8116,2.8302,3.1111,2.9034,2.7596,2.6763,2.7715,2.7579,2.6886,2.8945,3.0349,3.1195,3.1195,3.1195,3.1195,3.1195,3.1195,3.1195,3.1195,3.1195,3.136,3.229,3.3227,3.4214,3.5284,3.6051,3.648,3.6163,3.5819,3.5825,3.6881,3.7149,3.739,3.8375,3.8808,3.8926,3.865,3.8802,3.8859,3.8345,3.7641,3.7536,3.8754,3.837,3.8622,4.0636,4.1237,4.178,4.2585,4.3153,4.3506,4.3506,4.3506,4.3746,4.4375,4.415,4.4113,4.4406,4.382,4.3506,4.3506,4.3506,4.3506,4.3506,4.3506,4.3506,4.3466,4.1196,4.092,4.2386,4.0803,4.0096,4.0096,4.0096,4.0096,4.0096,4.0096,4.0096,4.0096,4.0096,4.0096,4.0096,4.0096,4.0096,4.0096,4.0079,3.7652,3.56,3.56,3.56,3.56,3.56,3.56,3.56,3.56,3.56,3.56,3.56,3.56,3.56,3.56,3.56,3.56,3.56,3.286,3.2544,3.547,3.5583,3.4207,3.1263,3.1195,3.1195,3.1195,3.1195,3.1195,3.1128,2.8138,2.8324,3.1195,3.1195,2.9537,2.6936,2.9926,2.947,2.6733,2.6733,2.8522,3.1195,3.1195,3.1195,3.1195,3.1195,3.1195,3.1195,3.1195,3.1212,3.1754,3.4681,3.7677,3.9512,3.6514,3.7047,3.8384,3.7376,3.7505,3.7912,3.7907,3.7917,3.8294,3.9777,3.9525,3.922,3.9954,3.9531,3.9017,3.9017,3.8413,3.8265,3.9337,3.9519,4.0183,4.2049,4.2304,4.2602,4.3414,4.3506,4.3506,4.3506,4.3506,4.3637,4.3978,4.4009,4.4009,4.4005,4.3673,4.3506,4.3506,4.3506,4.3506,4.3506,4.3506,4.3506,4.3466,4.1196,4.0096,4.0096,4.0096,4.0096,4.0096,4.0096,4.0096,4.0096,4.0096,4.0096,4.0096,4.0096,4.0096,4.0096,4.0096,4.0096,4.0096,3.7358,3.6219,3.56,3.56,3.56,3.56,3.56,3.56,3.56,3.56,3.56,3.56,3.56,3.56,3.56,3.56,3.56,3.56,3.56,3.4782,3.4675,3.5566,3.3615,3.2104,3.1212,3.1195,3.1195,3.1195,3.1195,3.1195,3.1178,3.0282,3.0337,3.1195,3.1195,3.0705,2.9926,3.0823,3.0671,2.9864,2.9864,3.04,3.1195,3.1195,3.1195,3.1195,3.1195,3.1195,3.1195,3.1195,3.2577,3.4439,3.5312,3.7663,3.991,3.9017,3.8677,3.8461,3.7826,3.8156,3.8667,3.8678,3.8662,3.892,3.9889,3.9937,3.9829,4.0056,3.992,3.9768,3.9768,3.9898,4.0256,4.0987,4.1466,4.2076,4.3016,4.3139,4.3231,4.3469,4.3506,4.3506,4.3506,4.3506,4.3637,4.3978,4.4009,4.3904,4.3662,4.3542,4.3506,4.3506,4.3506,4.3506,4.3506,4.3506,4.3506,4.3466,4.1196,4.0096,4.0096,4.0096,4.0096,4.0096,4.0096,4.0096,4.0096,4.0096,4.0096,4.0096,4.0096,4.0096,4.0096,4.0096,4.0096,4.0096,3.7736,3.6422,3.56,3.56,3.56,3.56,3.56,3.56,3.56,3.56,3.56,3.56,3.56,3.56,3.56,3.56,3.56,3.56,3.56,3.56,3.56,3.56,3.3886,3.2944,3.2944,3.1804,3.1195,3.1195,3.1195,3.1195,3.1195,3.1195,3.1195,3.1195,3.1195,3.1195,3.1195,3.1195,3.1195,3.1195,3.1195,3.1195,3.1331,3.2505,3.2944,3.2944,3.2944,3.2944,3.2944,3.2944,3.4123,3.56,3.56,3.7669,4.0096,4.0096,3.9661,3.9134,3.8846,3.9092,3.944,3.9442,3.9441,3.9552,4.0003,4.0096,4.0096,4.0096,4.0096,4.0096,4.0096,4.0534,4.1104,4.1697,4.2307,4.2888,4.3423,4.3506,4.3506,4.3506,4.3506,4.3676,4.4093,4.4034,4.405,4.4253,4.4274,4.4056,4.3519,4.3506,4.3506,4.3506,4.3506,4.3506,4.3506,4.3506,4.3042,4.2142,4.0761,4.0096,4.0096,4.0096,4.0096,4.0096,4.0096,4.0096,4.0096,4.0096,4.0096,4.0096,4.0096,4.0096,4.0096,4.0096,4.0096,4.0096,4.0096,3.7669,3.56,3.56,3.56,3.56,3.56,3.56,3.56,3.56,3.56,3.56,3.56,3.56,3.56,3.56,3.56,3.56,3.56,3.56,3.56,3.56,3.56,3.56,3.56,3.2713,3.1195,3.1195,3.1195,3.1195,3.1195,3.1195,3.1195,3.1212,3.1483,3.1449,3.1212,3.1478,3.1584,3.1584,3.1584,3.1584,3.1884,3.4574,3.56,3.56,3.56,3.56,3.56,3.56,3.5774,3.5994,3.5994,3.7889,4.0096,4.0096,4.0096,4.0096,4.0096,4.0096,4.0096,4.0096,4.0096,4.0096,4.0096,4.0096,4.0096,4.0096,4.0096,4.0148,4.0262,4.0734,4.1294,4.1883,4.249,4.3048,4.3537,4.3616,4.3635,4.3708,4.3708,4.4093,4.508,4.4943,4.4828,4.4883,4.4828,4.4466,4.3653,4.3616,4.3561,4.3506,4.3506,4.3506,4.3506,4.3308,4.2157,4.0096,4.0096,4.0096,4.0119,4.0305,4.0392,4.038,4.0196,4.021,4.0397,4.0173,4.0096,4.0096,4.0096,4.0096,4.0096,4.0096,4.0276,4.0462,4.0096,3.7669,3.56,3.56,3.56,3.56,3.56,3.56,3.56,3.56,3.56,3.56,3.56,3.56,3.56,3.56,3.56,3.56,3.56,3.56,3.56,3.56,3.56,3.56,3.56,3.2713,3.1195,3.1195,3.1195,3.1195,3.1195,3.1195,3.1195,3.1297,3.3615,3.3362,3.1348,3.3666,3.4641,3.4641,3.4641,3.4641,3.4726,3.5368,3.56,3.56,3.56,3.56,3.56,3.56,3.7172,3.9119,3.9119,3.9559,4.0096,4.0096,4.0096,4.0096,4.0096,4.0096,4.0096,4.0096,4.0096,4.0096,4.0096,4.0096,4.0096,4.0096,4.0096,4.0435,4.1547,4.2189,4.2739,4.3348,4.3907,4.4309,4.4411,4.4447,4.4668,4.5301,4.5374,4.5466,4.57,4.5663,4.581,4.6227,4.5883,4.5296,4.448,4.4447,4.4158,4.3524,4.3506,4.3506,4.3506,4.1739,4.0588,4.0096,4.0096,4.0096,4.0165,4.1956,4.2754,4.2663,4.0873,4.1116,4.2611,4.085,4.0096,4.0096,4.0096,4.0096,4.0096,4.0096,4.1602,4.3288,4.0096,3.8831,3.7291,3.5859,3.56,3.56,3.56,3.56,3.56,3.56,3.56,3.56,3.56,3.56,3.56,3.56,3.56,3.56,3.56,3.56,3.56,3.56,3.56,3.56,3.56,3.4089,3.3299,3.3299,3.3299,3.3299,3.3266,3.185,3.1195,3.1331,3.4275,3.4743,3.3401,3.4951,3.56,3.56,3.56,3.56,3.56,3.56,3.56,3.56,3.56,3.56,3.56,3.56,3.7601,4.0096,4.0096,4.0096,4.0096,4.0096,4.0096,4.0096,4.0096,4.0096,4.0096,4.0096,4.0096,4.0096,4.0096,4.0096,4.0191,4.055,4.0618,4.1044,4.2471,4.2851,4.3284,4.4308,4.46,4.4828,4.5218,4.5273,4.5512,4.6195,4.6067,4.6049,4.6448,4.6815,4.6998,4.6902,4.6627,4.6113,4.5328,4.5273,4.4966,4.4277,4.3763,4.3506,4.3506,4.1235,4.0096,4.0096,4.0096,4.0678,4.1754,4.2959,4.3506,4.3436,4.2238,4.2401,4.3325,4.1036,4.0096,4.0248,4.168,4.1365,4.0276,4.1721,4.3254,4.4371,3.9994,4.0096,3.9153,3.6135,3.56,3.56,3.56,3.56,3.56,3.56,3.56,3.56,3.56,3.56,3.56,3.56,3.6062,3.6372,3.6372,3.5893,3.56,3.56,3.56,3.56,3.56,3.56,3.56,3.56,3.56,3.56,3.5554,3.3097,3.1957,3.2053,3.4506,3.56,3.56,3.56,3.56,3.56,3.56,3.56,3.56,3.56,3.56,3.56,3.56,3.5926,3.6372,3.6372,3.8024,4.0096,4.0096,4.0096,4.0096,4.0096,4.0096,4.0096,4.0096,4.0096,4.0096,4.0096,4.0191,4.0292,4.0292,4.0292,4.0506,4.1238,4.147,4.1988,4.338,4.355,4.3911,4.5225,4.5263,4.5342,4.6012,4.6099,4.6324,4.6906,4.6709,4.6801,4.7521,4.8154,4.826,4.7649,4.7429,4.6952,4.6159,4.6067,4.5759,4.5117,4.4057,4.3506,4.3506,4.1759,4.0874,4.0874,4.0874,4.1781,4.3506,4.3506,4.3506,4.3506,4.3506,4.3506,4.3325,4.1036,4.0096,4.04,4.3423,4.3068,4.1172,4.3677,4.4608,4.4608,3.9599,4.0096,3.9153,3.6135,3.56,3.56,3.56,3.56,3.56,3.56,3.56,3.56,3.56,3.56,3.56,3.56,3.799,3.9497,3.9497,3.7054,3.56,3.56,3.56,3.56,3.56,3.56,3.56,3.56,3.56,3.56,3.5588,3.5199,3.4997,3.5013,3.5419,3.56,3.56,3.56,3.56,3.56,3.56,3.56,3.56,3.56,3.56,3.56,3.56,3.728,3.9497,3.9497,3.9751,4.0096,4.0096,4.0096,4.0096,4.0096,4.0096,4.0096,4.0096,4.0096,4.0096,4.0096,4.0584,4.1045,4.1045,4.1045,4.1255,4.2005,4.2608,4.3439,4.4777,4.5475,4.6055,4.6727,4.68,4.6801,4.6911,4.6934,4.7227,4.7984,4.8636,4.9169,4.9567,4.9509,4.9472,4.9609,4.8687,4.7783,4.6989,4.6723,4.6122,4.5135,4.4057,4.3506,4.3506,4.3822,4.3982,4.3982,4.3982,4.3813,4.3506,4.3506,4.3506,4.3506,4.3506,4.3506,4.3325,4.1036,4.0096,4.04,4.3423,4.4354,4.4032,4.4455,4.4608,4.4608,3.7324,3.7584,3.7172,3.5825,3.56,3.56,3.56,3.56,3.56,3.56,3.56,3.56,3.56,3.56,3.56,3.56,3.8351,4.0096,4.0096,3.8842,3.7358,3.5667,3.56,3.56,3.56,3.56,3.56,3.56,3.56,3.56,3.56,3.56,3.56,3.56,3.56,3.56,3.56,3.56,3.56,3.56,3.56,3.56,3.56,3.56,3.56,3.5825,3.7516,3.8966,4.0096,4.0096,4.0096,4.0096,4.0096,4.0096,4.0096,4.0096,4.0096,4.0096,4.0096,4.0096,4.0225,4.0794,4.1176,4.1593,4.228,4.2425,4.2527,4.2855,4.3456,4.4321,4.5676,4.6107,4.6584,4.761,4.7388,4.7264,4.7709,4.7764,4.7911,4.826,4.8618,4.8893,4.9035,4.893,4.9118,4.9729,4.8857,4.8356,4.8489,4.7916,4.7388,4.6906,4.5737,4.4798,4.412,4.4444,4.4608,4.4612,4.6007,4.6494,4.6177,4.6177,4.6177,4.6177,4.6177,4.5388,4.4038,4.3029,4.2611,4.2746,4.4083,4.4608,4.4608,4.4608,4.4608,4.4608]},{"header":{"parameterUnit":"m.s-1","parameterCategory":1,"la1":30.6,"la2":28.766,"lo1":-90.7593,"lo2":-88.6598,"dy":0.0162,"dx":0.0183,"nx":116,"ny":114,"refTime":"2023-11-22T18:00:00:Z","depth":0,"parameterNumber":3,"parameterNumberName":"V-component_of_WINDS"},"data":[0.0,0.0,0.0,0.0,0.0,0.0,0.0,0.0,0.0,0.0,0.0,0.0,0.0,0.0,0.0,0.0,0.0,0.0,0.0,0.0,0.0,0.0,0.0,0.0,0.0,0.0,0.0,0.0,0.0,0.0,0.0,0.0,0.0,0.0,0.0,0.0,0.0,0.0,0.0,0.0,0.0,0.0,0.0,0.0,0.0,0.0,0.0,0.0,0.0,0.0,0.0,0.0,0.0,0.0,0.0,0.0,0.0,0.0,0.0,0.0,0.0,0.0,0.0,0.0,0.0,0.0,0.0,0.0,0.0,0.0,0.0,0.0,0.0,0.0,0.0,0.0,0.0,0.0,0.0,0.0,0.0,0.0,0.0,0.0,0.0,0.0,0.0,0.0,0.0,0.0,0.0,0.0,0.0,0.0,0.0,0.0,0.0,0.0,0.0,0.0,0.0,0.0,0.0,0.0,0.0,0.0,0.0,0.0,0.0,0.0,0.0,0.0,0.0,0.0,0.0,0.0,0.0,0.0,0.0,0.0,0.0,0.0,0.0,0.0,0.0,0.0,0.0,0.0,0.0,0.0,0.0,0.0,0.0,0.0,0.0,0.0,0.0,0.0,0.0,0.0,0.0,0.0,0.0,0.0,0.0,0.0,0.0,0.0,0.0,0.0,0.0,0.0,0.0,0.0,0.0,0.0,0.0,0.0,0.0,0.0,0.0,0.0,0.0,0.0,0.0,0.0,0.0,0.0,0.0,0.0,0.0,0.0,0.0,0.0,0.0,0.0,0.0,0.0,0.0,0.0,0.0,0.0,0.0,0.0,0.0,0.0,0.0,0.0,0.0,0.0,0.0,0.0,0.0,0.0,0.0,0.0,0.0,0.0,0.0,0.0,0.0,0.0,0.0,0.0,0.0,0.0,0.0,0.0,0.0,0.0,0.0,0.0,0.0,0.0,0.0,0.0,0.0,0.0,0.0,0.0,0.0,0.0,0.0,0.0,0.0,0.0,0.0,0.0,0.0,0.0,0.0,0.0,0.0,0.0,0.0,0.0,0.0,0.0,0.0,0.0,0.0,0.0,0.0,0.0,0.0,0.0,0.0,0.0,0.0,0.0,0.0,0.0,0.0,0.0,0.0,0.0,0.0,0.0,0.0,0.0,0.0,0.0,0.0,0.0,0.0,0.0,0.0,0.0,0.0,0.0,0.0,0.0,0.0,0.0,0.0,0.0,0.0,0.0,0.0,0.0,0.0,0.0,0.0,0.0,0.0,0.0,0.0,0.0,0.0,0.0,0.0,0.0,0.0,0.0,0.0,0.0,0.0,0.0,0.0,0.0,0.0,0.0,0.0,0.0,0.0,0.0,0.0,0.0,0.0,0.0,0.0,0.0,0.0,0.0,0.0,0.0,0.0,0.0,0.0,0.0,0.0,0.0,0.0,0.0,0.0,0.0,0.0,0.0,0.0,0.0,0.0,0.0,0.0,0.0,0.0,0.0,0.0,0.0,0.0,0.0,0.0,0.0,0.0,0.0,0.0,0.0,0.0,0.0,0.0,0.0,0.0,0.0,0.0,0.0,0.0,0.0,0.0,0.0,0.0,0.0,0.0,0.0,0.0,0.0,0.0,0.0,0.0,0.0,0.0,0.0,0.0,0.0,0.0,0.0,0.0,0.0,0.0,0.0,0.0,0.0,0.0,0.0,0.0,0.0,0.0,0.0,0.0,0.0,0.0,0.0,0.0,0.0,0.0,0.0,0.0,0.0,0.0,0.0,0.0,0.0,0.0,0.0,0.0,0.0,0.0,0.0,0.0,0.0,0.0,0.0,0.0,0.0,0.0,0.0,0.0,0.0,0.0,0.0,0.0,0.0,0.0,0.0,0.0,0.0,0.0,0.0,0.0,0.0,0.0,0.0,0.0,0.0,0.0,0.0,0.0,0.0,0.0,0.0,0.0,0.0,0.0,0.0,0.0,0.0,0.0,0.0,0.0,0.0,0.0,0.0,0.0,0.0,0.0,0.0,0.0,0.0,0.0,0.0,0.0,0.0,0.0,0.0,0.0,0.0,0.0,0.0,0.0,0.0,0.0,0.0,0.0,0.0,0.0,0.0,0.0,0.0,0.0,0.0,0.0,0.0,0.0,0.0,0.0,0.0,0.0,0.0,0.0,0.0,0.0,0.0,0.0,0.0,0.0,0.0,0.0,0.0,0.0,0.0,0.0,0.0,0.0,0.0,0.0,0.0,0.0,0.0,0.0,0.0,0.0,0.0,0.0,0.0,0.0,0.0,0.0,0.0,0.0,0.0,0.0,0.0,0.0,0.0,0.0,0.0,0.0,0.0,0.0,0.0,0.0,0.0,0.0,0.0,0.0,0.0,0.0,0.0,0.0,0.0,0.0,0.0,0.0,0.0,0.0,0.0,0.0,0.0,0.0,0.0,0.0,0.0,0.0,0.0,0.0,0.0,0.0,0.0,0.0,0.0,0.0,0.0,0.0,0.0,0.0,0.0,0.0,0.0,0.0,0.0,0.0,0.0,0.0,0.0,0.0,0.0,0.0,0.0,0.0,0.0,0.0,0.0,0.0,0.0,0.0,0.0,0.0,0.0,0.0,0.0,0.0,0.0,0.0,0.0,0.0,0.0,0.0,0.0,0.0,0.0,0.0,0.0,0.0,0.0,0.0,0.0,0.0,0.0,0.0,0.0,0.0,0.0,0.0,0.0,0.0,0.0,0.0,0.0,0.0,0.0,0.0,0.0,0.0,0.0,0.0,0.0,0.0,0.0,0.0,0.0,0.0,0.0,0.0,0.0,0.0,0.0,0.0,0.0,0.0,0.0,0.0,0.0,0.0,0.0,0.0,0.0,0.0,0.0,0.0,0.0,0.0,0.0,0.0,0.0,0.0,0.0,0.0,0.0,0.0,0.0,0.0,0.0,0.0,0.0,0.0,0.0,0.0,0.0,0.0,0.0,0.0,0.0,0.0,0.0,0.0,0.0,0.0,0.0,0.0,0.0,0.0,0.0,0.0,0.0,0.0,0.0,0.0,0.0,0.0,0.0,0.0,0.0,0.0,0.0,0.0,0.0,0.0,0.0,0.0,0.0,0.0,0.0,0.0,0.0,0.0,0.0,0.0,0.0,0.0,0.0,0.0,0.0,0.0,0.0,0.0,0.0,0.0,0.0,0.0,0.0,0.0,0.0,0.0,0.0,0.0,0.0,0.0,0.0,0.0,0.0,0.0,0.0,0.0,0.0,0.0,0.0,0.0,0.0,0.0,0.0,0.0,0.0,0.0,0.0,0.0,0.0,0.0,0.0,0.0,0.0,0.0,0.0,0.0,0.0,0.0,0.0,0.0,0.0,0.0,0.0,0.0,0.0,0.0,0.0,0.0,0.0,0.0,0.0,0.0,0.0,0.0,0.0,0.0,0.0,0.0,0.0,0.0,0.0,0.0,0.0,0.0,0.0,0.0,0.0,0.0,0.0,0.0,0.0,0.0,0.0,0.0,0.0,0.0,0.0,0.0,0.0,0.0,0.0,0.0,0.0,0.0,0.0,0.0,0.0,0.0,0.0,0.0,0.0,0.0,0.0,0.0,0.0,0.0,0.0,0.0,0.0,0.0,0.0,0.0,0.0,0.0,0.0,0.0,0.0,0.0,0.0,0.0,0.0,0.0,0.0,0.0,0.0,0.0,0.0,0.0,0.0,0.0,0.0,0.0,0.0,0.0,0.0,0.0,0.0,0.0,0.0,0.0,0.0,0.0,0.0,0.0,0.0,0.0,0.0,0.0,0.0,0.0,0.0,0.0,0.0,0.0,0.0,0.0,0.0,0.0,0.0,0.0,0.0,0.0,0.0,0.0,0.0,0.0,0.0,0.0,0.0,0.0,0.0,0.0,0.0,0.0,0.0,0.0,0.0,0.0,0.0,0.0,0.0,0.0,0.0,0.0,0.0,0.0,0.0,0.0,0.0,0.0,0.0,0.0,0.0,0.0,0.0,0.0,0.0,0.0,0.0,0.0,0.0,0.0,0.0,0.0,0.0,0.0,0.0,0.0,0.0,0.0,0.0,0.0,0.0,0.0,0.0,0.0,0.0,0.0,0.0,0.0,0.0,0.0,0.0,0.0,0.0,0.0,0.0,0.0,0.0,0.0,0.0,0.0,0.0,0.0,0.0,0.0,0.0,0.0,0.0,0.0,0.0,0.0,0.0,0.0,0.0,0.0,0.0,0.0,0.0,0.0,0.0,0.0,0.0,0.0,0.0,0.0,0.0,0.0,0.0,0.0,0.0,0.0,0.0,0.0,0.0,0.0,0.0,0.0,0.0,0.0,0.0,0.0,0.0,0.0,0.0,0.0,0.0,0.0,0.0,0.0,0.0,0.0,0.0,0.0,0.0,0.0,0.0,0.0,0.0,0.0,0.0,0.0,0.0,0.0,0.0,0.0,0.0,0.0,0.0,0.0,0.0,0.0,0.0,0.0,0.0,0.0,0.0,0.0,0.0,0.0,0.0,0.0,0.0,0.0,0.0,0.0,0.0,0.0,0.0,0.0,0.0,0.0,0.0,0.0,0.0,0.0,0.0,0.0,0.0,0.0,0.0,0.0,0.0,0.0,0.0,0.0,0.0,0.0,0.0,0.0,0.0,0.0,0.0,0.0,0.0,0.0,0.0,0.0,0.0,0.0,0.0,0.0,0.0,0.0,0.0,0.0,0.0,0.0,0.0,0.0,0.0,0.0,0.0,0.0,0.0,0.0,0.0,0.0,0.0,0.0,0.0,0.0,0.0,0.0,0.0,0.0,0.0,0.0,0.0,0.0,0.0,0.0,0.0,0.0,0.0,0.0,0.0,0.0,0.0,0.0,0.0,0.0,0.0,0.0,0.0,0.0,0.0,0.0,0.0,0.0,0.0,0.0,0.0,0.0,0.0,0.0,0.0,0.0,0.0,0.0,0.0,0.0,0.0,0.0,0.0,0.0,0.0,0.0,0.0,0.0,0.0,0.0,0.0,0.0,0.0,0.0,0.0,0.0,0.0,0.0,0.0,0.0,0.0,0.0,0.0,0.0,0.0,0.0,0.0,0.0,0.0,0.0,0.0,0.0,0.0,0.0,0.0,0.0,0.0,0.0,0.0,0.0,0.0,0.0,0.0,0.0,0.0,0.0,0.0,0.0,0.0,0.0,0.0,0.0,0.0,0.0,0.0,0.0,0.0,0.0,0.0,0.0,0.0,0.0,0.0,0.0,0.0,0.0,0.0,0.0,0.0,0.0,0.0,0.0,0.0,0.0,0.0,0.0,0.0,0.0,0.0,0.0,0.0,0.0,0.0,0.0,0.0,0.0,0.0,0.0,0.0,0.0,0.0,0.0,0.0,0.0,0.0,0.0,0.0,0.0,0.0,0.0,0.0,0.0,0.0,0.0,0.0,0.0,0.0,0.0,0.0,0.0,0.0,0.0,0.0,0.0,0.0,0.0,0.0,0.0,0.0,0.0,0.0,0.0,0.0,0.0,0.0,0.0,0.0,0.0,0.0,0.0,0.0,0.0,0.0,0.0,0.0,0.0,0.0,0.0,0.0,0.0,0.0,0.0,0.0,0.0,0.0,0.0,0.0,0.0,0.0,0.0,0.0,0.0,0.0,0.0,0.0,0.0,0.0,0.0,0.0,0.0,0.0,0.0,0.0,0.0,0.0,0.0,0.0,0.0,0.0,0.0,0.0,0.0,0.0,0.0,0.0,0.0,0.0,0.0,0.0,0.0,0.0,0.0,0.0,0.0,0.0,0.0,0.0,0.0,0.0,0.0,0.0,0.0,0.0,0.0,0.0,0.0,0.0,0.0,0.0,0.0,0.0,0.0,0.0,0.0,0.0,0.0,0.0,0.0,0.0,0.0,0.0,0.0,0.0,0.0,0.0,0.0,0.0,0.0,0.0,0.0,0.0,0.0,0.0,0.0,0.0,0.0,0.0,0.0,0.0,0.0,0.0,0.0,0.0,0.0,0.0,0.0,0.0,0.0,0.0,0.0,0.0,0.0,0.0,0.0,0.0,0.0,0.0,0.0,0.0,0.0,0.0,0.0,0.0,0.0,0.0,0.0,0.0,0.0,0.0,0.0,0.0,0.0,0.0,0.6884,0.0,0.0,0.0,0.0,0.0,0.0,0.0,0.0,0.0,0.0,0.0,0.0,0.0,0.0,0.0,0.0,0.0,0.0,0.0,0.0,0.0,0.0,0.0,0.0,0.0,0.0,0.0,0.0,0.0,0.0,0.0,0.0,0.0,0.0,0.0,0.0,0.0,1.0297,1.0399,0.0,0.0,0.0,0.0,0.0,0.0,0.0,0.0,0.0,0.0,0.0,0.0,0.0,0.0,0.0,0.0,0.0,0.0,0.0,0.0,0.0,0.0,0.0,0.0,0.0,0.0,0.0,0.0,0.0,0.0,0.0,0.0,0.0,0.0,0.0,0.0,0.0,0.0,0.0,0.0,0.0,0.0,0.0,0.0,0.0,0.0,0.0,0.0,0.0,0.0,0.0,0.0,0.0,0.0,0.0,0.0,0.0,0.0,0.0,0.0,0.0,0.0,0.0,0.0,0.0,0.0,0.0,0.0,0.0,0.0,0.0,0.0,0.0,0.0,0.0,0.0,0.0,0.7358,0.0,0.0,0.0,0.0,0.0,0.0,0.0,0.0,0.0,0.0,0.0,0.0,0.0,0.0,0.0,0.0,0.0,0.0,0.0,0.0,0.0,0.0,0.0,0.8384,0.8725,0.8802,0.9229,0.953,0.9603,0.9593,0.94,0.8996,0.9684,0.9955,0.9703,1.0303,1.0681,1.0837,0.0,0.0,0.0,0.0,0.0,0.0,0.0,0.0,0.0,0.0,0.0,0.0,0.0,0.0,0.0,0.0,0.0,0.0,0.0,0.0,0.0,0.0,0.0,0.0,0.0,0.0,0.0,0.0,0.0,0.0,0.0,0.0,0.0,0.0,0.0,0.0,0.0,0.0,0.0,0.0,0.0,0.0,0.0,0.0,0.0,0.0,0.0,0.0,0.0,0.0,0.0,0.0,0.0,0.0,0.0,0.0,0.0,0.0,0.0,0.0,0.0,0.0,0.0,0.0,0.0,0.0,0.0,0.0,0.0,0.0,0.9887,0.9519,0.9719,0.9719,0.9719,0.9709,0.9469,0.9022,0.8695,0.0,0.0,0.0,0.0,0.0,0.0,0.0,0.0,0.0,0.0,0.0,0.0,0.0,0.0,0.0,0.0,0.0,0.0,0.0,0.0,0.0,0.0,0.8411,0.8835,0.9193,0.9388,0.9648,0.9998,1.0445,1.0505,1.0108,1.0529,1.0927,1.1291,1.1396,1.1813,1.2571,0.0,0.0,1.3077,1.3672,1.4127,1.4411,1.3368,0.0,0.0,0.0,0.0,0.0,0.0,0.0,0.0,0.0,0.0,0.0,0.0,0.0,0.0,0.0,0.0,0.0,0.0,0.0,0.0,0.0,0.0,0.0,0.0,0.0,0.0,0.0,0.0,0.0,0.0,0.0,0.0,0.0,0.0,0.0,0.0,0.0,0.0,0.0,0.0,0.0,0.0,0.0,0.5571,0.8461,0.0,0.0,0.0,0.0,0.0,0.0,0.0,0.0,0.0,0.0,0.0,0.0,0.0,0.8421,0.8791,0.9842,1.094,1.2071,1.1908,1.2385,1.3404,1.3404,1.3404,1.3604,1.7233,0.0,1.4217,1.3287,0.0,0.0,0.0,0.0,0.0,0.0,0.0,0.0,0.0,0.0,0.0,0.0,0.0,0.0,0.0,0.0,0.0,0.0,0.0,0.0,0.0,0.9536,1.006,1.0241,1.1716,1.2209,1.118,1.235,1.2358,1.0709,1.1529,1.1998,1.1943,1.2201,1.2625,1.3239,1.3734,1.4311,1.4974,1.5375,1.5928,1.6568,1.6026,1.5266,1.4381,1.3994,0.0,0.0,0.0,0.0,0.0,0.0,0.0,0.0,0.0,0.0,0.0,0.0,0.0,0.0,0.0,0.0,0.0,0.0,0.0,0.0,0.0,0.0,0.0,0.0,0.0,0.0,0.0,0.0,0.0,0.0,0.0,0.0,0.0,0.0,0.0,0.0,0.0,0.0,0.0,0.6487,0.7872,1.0457,1.0201,0.9815,0.0,0.0,0.0,0.0,0.0,0.0,0.0,0.0,0.0,0.9751,1.0428,1.1096,1.177,1.2303,1.2818,1.3323,1.3958,1.4541,1.5154,1.7905,1.9153,1.926,2.1178,2.0596,1.8104,1.5417,1.3747,1.27,0.0,0.0,0.0,0.0,0.8798,0.8898,0.0,0.0,0.0,0.0,0.0,0.0,0.0,0.0,0.0,0.0,0.0,0.0,1.0014,1.0942,1.1675,1.2156,1.3978,1.4332,1.2551,1.3545,1.327,1.117,1.187,1.2282,1.2202,1.2865,1.3457,1.3986,1.5124,1.6169,1.7133,1.7553,1.8221,1.9066,1.8922,1.7472,1.5078,1.4863,1.4291,0.0,0.0,0.0,0.0,0.0,0.0,0.0,0.0,0.0,0.0,0.0,0.0,0.0,0.0,0.0,0.0,0.0,0.0,0.0,0.0,0.0,0.0,0.0,0.0,0.0,0.0,0.0,0.0,0.0,0.0,0.0,0.0,0.0,0.0,0.0,0.0,0.0,0.0,0.8129,0.9914,1.1659,1.1366,1.0921,0.0,0.0,0.0,0.0,0.0,0.0,1.0967,1.0483,1.0703,1.1888,1.2752,1.3634,1.4533,1.4536,1.4536,1.4564,1.6661,1.7673,1.7794,2.1445,2.3091,2.3091,2.3091,2.2391,2.1016,1.7987,1.5732,1.4102,1.305,1.2033,1.1104,1.0647,1.0149,0.9873,0.0,0.0,0.0,0.0,0.0,0.0,0.0,0.0,0.0,0.0,0.0,0.9554,1.1553,1.2389,1.3514,1.5311,1.5234,1.4755,1.3947,1.3088,1.2301,1.1604,1.1016,1.1179,1.2176,1.3406,1.4459,1.5305,1.7133,1.8673,1.9912,2.0375,2.1087,2.1964,2.146,1.9951,1.7758,1.6926,1.6073,1.5143,0.0,0.0,0.0,0.0,0.0,0.0,0.0,0.0,0.0,0.0,0.0,0.0,0.0,0.0,0.0,0.0,0.0,0.0,0.0,0.0,0.0,0.0,0.0,0.0,0.0,0.0,0.0,0.0,0.0,0.0,0.0,0.0,0.0,0.0,0.0,0.0,0.0,0.0,0.0,1.0674,1.1594,0.0,0.0,0.0,0.0,0.8671,0.9781,1.1015,1.2151,1.3243,1.4355,1.5501,1.5583,1.5643,1.5703,1.5703,1.5703,1.5774,2.0485,2.2731,2.2742,2.2993,2.3091,2.3091,2.3091,2.3053,2.2839,2.1065,1.9315,1.7737,1.767,1.7601,1.734,1.5686,1.3816,1.2298,0.0,0.0,0.0,0.0,0.0,0.0,0.0,0.0,0.7794,0.8338,0.9125,1.0477,1.2687,1.3988,1.5417,1.7214,1.7835,1.7436,1.5782,1.5258,1.4282,1.2638,1.2254,1.2505,1.3399,1.4708,1.5939,1.7068,1.8555,2.0144,2.1772,2.194,2.2676,2.3861,2.3668,2.2686,2.1021,1.8933,1.7392,1.6169,1.3986,1.2754,0.0,0.0,0.0,0.0,0.0,0.0,0.0,0.0,0.0,0.0,0.0,0.0,0.0,0.0,0.0,0.0,0.0,0.0,0.0,0.0,0.0,0.0,0.0,0.0,0.0,0.0,0.0,0.0,0.0,0.0,0.0,0.0,0.0,0.0,0.0,0.0,0.0,1.3948,1.3654,0.0,1.1806,1.1336,1.1416,1.216,1.3287,1.4118,1.4527,1.4965,1.5386,1.5788,1.5808,1.5808,1.5808,1.5808,1.5808,1.5861,2.0764,2.3091,2.3091,2.3091,2.3091,2.3091,2.3091,2.3091,2.3052,2.2459,2.1845,2.1171,2.0088,1.9667,1.9352,1.6653,1.7173,1.9305,0.0,0.0,0.0,0.0,0.0,0.0,0.0,0.0,0.7913,0.861,0.9813,1.1549,1.4042,1.5614,1.7265,1.9218,1.9636,1.9026,1.7225,1.6182,1.4943,1.3401,1.3192,1.331,1.375,1.5752,1.7434,1.8705,2.051,2.2175,2.3676,2.3676,2.4275,2.536,2.5163,2.4805,2.4225,2.193,1.9635,1.7342,1.5041,1.4129,1.3899,0.0,0.0,0.0,0.0,0.0,0.0,0.0,0.0,0.0,0.0,0.0,0.0,0.0,0.0,0.0,0.0,0.0,0.0,0.0,0.0,0.0,0.0,0.0,0.0,0.0,0.0,0.0,0.0,0.0,0.0,0.0,0.0,0.0,0.0,0.0,1.626,1.5855,1.5008,1.3978,1.2732,1.2429,1.297,1.4556,1.5368,1.5808,1.5808,1.5808,1.5808,1.5808,1.5808,1.5808,1.5808,1.5808,1.6631,1.8295,2.1545,2.3091,2.3091,2.3091,2.3091,2.3091,2.3091,2.3091,2.3091,2.3091,2.3091,2.2995,2.1885,2.1446,2.1185,1.9055,2.0316,2.3091,0.0,0.0,0.0,0.0,0.0,0.0,0.0,0.7111,0.8022,0.8641,1.0414,1.2716,1.5634,1.7186,1.8975,2.1315,2.0464,1.9317,1.8168,1.5597,1.4016,1.3802,1.3625,1.3438,1.3259,1.6544,1.8899,2.0209,2.2976,2.4764,2.5632,2.5632,2.5954,2.6512,2.5942,2.6297,2.7233,2.5837,2.2824,1.8829,1.698,1.6713,1.7054,0.0,0.0,0.0,0.0,0.0,0.0,0.0,0.0,0.0,0.0,0.0,0.0,0.0,0.0,0.0,0.0,0.0,0.0,0.0,0.0,0.0,0.0,0.0,0.0,0.0,0.0,0.0,0.0,0.0,0.0,0.0,0.0,0.0,1.0762,1.4773,1.7237,1.6007,1.5536,1.4778,1.341,1.3808,1.4623,1.5775,1.5861,1.5848,1.5796,1.5808,1.5808,1.5808,1.5808,1.5808,1.5808,1.5955,1.8418,2.3091,2.3091,2.3091,2.3091,2.3091,2.3091,2.3091,2.3091,2.3091,2.3091,2.3091,2.3091,2.3091,2.3091,2.3091,2.308,2.2938,2.2971,2.3091,0.0,0.0,0.0,0.0,0.0,0.0,0.0,0.7111,0.812,0.9015,1.0827,1.3301,1.6628,1.7848,1.9416,2.1868,2.0677,1.9317,1.8168,1.5862,1.4252,1.361,1.3808,1.4827,1.676,1.8623,2.0566,2.2578,2.3961,2.5207,2.6252,2.6252,2.6767,2.7654,2.7494,2.7595,2.7816,2.669,2.5082,2.3053,2.0271,1.8623,1.7581,0.0,0.0,0.0,0.0,0.0,0.0,0.0,0.0,0.0,0.0,0.0,0.0,0.0,0.0,0.0,0.0,0.0,0.0,0.0,0.0,0.0,0.0,0.0,0.0,0.0,0.0,0.0,0.0,0.0,0.0,0.0,0.0,1.4371,1.4371,1.7571,1.9221,1.7324,1.7647,1.7252,1.5284,1.5246,1.5838,1.7027,1.7114,1.6714,1.5848,1.5808,1.5808,1.5808,1.5808,1.5808,1.5808,1.932,2.1765,2.3091,2.3091,2.3091,2.3091,2.3091,2.3091,2.3091,2.3091,2.3091,2.3091,2.3091,2.3091,2.3091,2.3091,2.3091,2.2666,1.9123,2.0056,2.3091,0.0,0.0,0.0,0.0,0.0,0.0,0.0,0.7111,0.8159,0.9169,1.1579,1.4285,1.7093,1.852,2.0006,2.1815,2.0425,1.8982,1.7837,1.5764,1.4423,1.406,1.4998,1.6524,1.8703,2.063,2.2341,2.3837,2.5189,2.6184,2.6842,2.7069,2.7503,2.81,2.81,2.8217,2.8402,2.7812,2.6817,2.5445,2.3416,2.1509,1.9641,1.7409,1.6914,1.721,1.575,1.5603,1.5896,1.468,0.0,0.0,0.0,0.0,0.0,0.0,0.0,0.0,0.0,0.0,0.0,0.0,0.0,0.0,0.0,0.0,0.0,0.0,0.0,0.0,0.0,0.0,0.0,0.0,1.3581,1.7599,2.0612,2.1403,2.1506,2.1046,2.0239,1.8887,1.6754,1.6107,1.6088,1.6781,1.7301,1.7294,1.6588,1.6068,1.7065,1.9854,1.7741,1.7297,1.8844,2.1687,2.3091,2.3091,2.3091,2.3091,2.312,2.3863,2.3783,0.0,2.3091,2.3091,2.3091,2.3091,2.3091,0.0,0.0,0.0,0.0,0.0,2.0663,2.3091,0.0,0.0,0.0,0.0,0.0,0.0,0.0,0.7111,0.8176,0.9227,1.2316,1.5157,1.7083,1.8881,2.0314,2.1237,1.9821,1.8357,1.7125,1.5418,1.4604,1.4935,1.6734,1.8379,1.9767,2.2407,2.4049,2.4635,2.6425,2.7352,2.7491,2.7971,2.8235,2.8288,2.8288,2.8565,2.9019,2.907,2.8111,2.6549,2.6187,2.4636,2.2303,1.9884,1.9746,2.0644,1.9298,1.8693,1.8322,1.7108,0.0,0.0,0.0,0.0,0.0,0.0,0.0,0.0,0.0,0.0,0.0,0.0,0.0,0.0,0.0,0.0,0.0,0.0,0.0,0.0,0.0,0.0,0.0,0.0,1.7627,2.0905,2.6948,2.5317,2.4035,2.5426,2.2976,2.0357,1.8257,1.7365,1.6918,1.6918,1.7905,1.8512,1.8512,0.0,0.0,0.0,0.0,2.008,2.3359,2.3383,2.3383,2.3394,2.3188,2.3091,2.3149,2.4701,2.4565,2.311,2.3316,2.3287,2.3121,2.3305,2.3287,2.3091,2.3091,2.3091,2.3091,2.3091,2.3091,2.3091,0.0,0.0,0.0,0.0,0.0,0.0,0.0,0.7111,0.8278,0.9606,1.1889,1.4213,1.6364,1.7638,1.8828,2.0022,1.8888,1.7386,1.5646,1.5018,1.506,1.5818,1.7944,1.9924,2.1645,2.3327,2.5028,2.6722,2.7106,2.7742,2.8584,2.8706,2.8994,2.9475,2.9475,2.9528,2.9654,3.0096,2.8991,2.7013,2.7358,2.5679,2.2858,2.1699,2.1621,2.1952,2.0684,2.081,2.1386,1.9752,1.9032,1.8591,1.7406,0.0,0.0,0.0,0.0,0.0,0.0,0.0,0.0,0.0,0.0,0.0,0.0,0.0,0.0,0.0,0.0,0.0,0.0,0.0,0.0,1.7543,2.2612,2.5864,2.4827,2.6159,2.6668,2.5088,2.479,2.3704,2.1156,2.2656,2.3793,2.3793,2.3996,2.4131,2.4131,2.391,2.4366,2.565,2.468,2.4471,2.5187,2.5199,2.5199,2.5179,0.0,0.0,2.311,2.3453,2.3424,2.3179,2.4594,2.4399,2.3208,2.4623,2.437,2.3091,2.3091,2.3091,2.3091,2.3091,2.3091,2.3091,0.0,0.0,0.0,0.0,0.0,0.0,0.0,0.6999,0.8168,0.9746,1.2115,1.4244,1.5834,1.7225,1.8062,1.8093,1.6898,1.5942,0.0,1.5434,1.6357,1.841,2.0006,2.1962,2.4342,2.5317,2.6434,2.7704,2.7971,2.8367,2.891,2.9217,2.9506,2.9801,2.9801,2.9801,2.9839,3.0372,2.9592,2.7992,2.7931,2.7119,2.5751,2.3874,2.3281,2.3339,2.2501,2.2461,2.2606,2.1328,2.0546,1.9936,1.9003,1.718,1.5171,0.0,0.0,0.0,0.0,0.0,0.0,0.0,0.0,0.0,0.0,0.0,0.0,0.0,0.0,1.3066,0.0,0.0,1.7903,1.8798,2.1693,2.4358,2.5841,2.7353,2.7854,2.6646,2.6799,2.6468,2.5133,2.543,2.5706,2.5706,2.5706,2.5706,2.5706,2.5706,2.5706,2.5706,2.5706,2.5706,2.5706,2.5706,2.5706,2.5686,2.4818,2.4399,2.4399,2.4399,2.4399,2.4457,2.5325,2.5208,2.4399,2.4399,2.3892,2.3091,2.3091,2.3091,2.3091,2.3091,2.3091,2.3091,0.0,0.0,0.0,0.0,0.0,0.0,0.0,0.6701,0.7933,0.9584,1.2189,1.4253,1.5188,1.6551,1.7003,1.5981,1.5068,1.4901,0.0,1.6215,1.7843,2.0901,2.213,2.3957,2.6535,2.7163,2.7717,2.8251,2.8684,2.896,2.9095,2.9569,2.9801,2.9792,2.9905,2.9965,2.9993,3.0635,3.0245,2.9141,2.8711,2.8687,2.8667,2.6273,2.5228,2.4961,2.4468,2.3715,2.2878,2.2236,2.1446,2.0605,1.9999,1.8981,1.7721,1.6173,1.5061,0.0,0.0,0.0,0.0,0.0,0.0,0.0,0.0,0.0,1.5753,1.4948,1.4781,1.5077,1.6075,1.7976,1.9456,1.9629,1.9985,2.192,2.6753,2.7924,2.8304,2.8304,2.8304,2.8304,2.8304,2.7028,2.6057,2.5725,2.5706,2.5706,2.5706,2.5706,2.5706,2.5706,2.5706,2.5706,2.5706,2.5706,2.5706,2.5706,2.5706,2.5706,2.5706,2.5706,2.5706,2.5706,2.5706,2.5511,2.5091,2.3687,2.3091,2.3091,2.3091,2.3091,2.3091,2.3091,2.3091,2.3091,0.0,0.0,0.0,0.0,0.0,0.0,0.0,0.0,0.7614,0.8935,1.1247,1.314,1.4078,1.4414,1.4436,1.4114,1.4718,0.0,1.6009,1.7138,1.8899,2.1411,2.3552,2.5285,2.6571,2.7533,2.8267,2.8809,2.8872,2.917,2.9691,2.9776,2.9801,2.9817,3.0306,3.051,3.0585,3.1591,3.1331,3.0264,3.0666,3.0234,2.9294,2.8976,2.8181,2.7129,2.6311,2.4528,2.2547,2.246,2.1845,2.1191,2.1514,2.0976,1.9946,1.8386,0.0,1.5361,1.3067,1.1842,1.1411,1.234,1.2943,1.3547,0.0,0.0,1.672,1.7127,1.7207,1.7361,1.7842,1.8746,1.9652,2.0425,2.2101,2.3543,2.4211,2.6608,2.8304,2.8304,2.8304,2.8304,2.8304,2.8115,2.7373,2.5813,2.5706,2.5706,2.5706,2.5706,2.5706,2.5706,2.5706,2.5706,2.5706,2.5706,2.5706,2.5706,2.5706,2.5706,2.5706,2.5706,2.5706,2.5706,2.5706,2.4828,2.3385,2.3179,2.3091,2.3091,2.3091,2.3091,2.3091,2.3091,2.3091,2.3091,0.0,0.0,0.0,0.0,0.0,0.0,0.0,0.0,0.0,0.8379,1.0248,1.1756,1.2626,1.2431,1.2383,1.2786,0.0,0.0,1.5771,1.8046,2.0635,2.3575,2.5125,2.6728,2.8427,2.8522,2.8853,2.9418,2.9418,2.9543,2.9801,2.9801,2.9967,3.0281,3.0497,3.0773,3.1122,3.1878,3.1919,3.1435,3.1274,3.1334,3.1443,3.0382,2.9061,2.7539,2.5765,2.4242,0.0,0.0,2.0937,2.0938,2.1357,2.0889,2.0021,1.914,1.7669,0.0,1.376,1.2878,1.2644,0.0,1.39,1.4794,1.5155,1.5899,1.6734,1.7448,1.8164,1.8705,1.8873,2.0103,2.1559,0.0,2.4064,2.5077,2.6245,2.7501,2.8304,2.8304,2.7399,2.7184,2.8193,2.738,2.6479,2.5754,2.6635,2.6774,2.5754,2.6654,2.7214,2.7214,2.7214,2.6735,2.5715,2.5706,2.5706,2.5706,2.5706,2.5706,2.5706,2.5706,2.5706,2.5706,2.5706,2.5286,2.4602,2.4602,2.4019,2.3091,2.3091,2.3091,2.3091,2.3091,2.3091,2.3091,0.0,0.0,0.0,0.0,0.0,0.0,0.0,0.0,0.0,0.0,0.9384,1.0627,1.1287,1.1083,1.1051,1.141,0.0,0.0,0.0,1.832,2.1496,2.47,2.6086,2.774,2.9757,2.9368,2.9355,2.9801,2.9801,2.9801,2.9801,2.9801,3.0093,3.06,3.0748,3.121,3.1886,3.2277,3.253,3.2607,3.1976,3.2186,3.2667,3.0896,2.9192,2.7461,2.5358,2.3608,0.0,0.0,1.9619,1.9804,2.0323,2.0137,1.9707,1.9512,1.8046,1.6081,1.4253,1.3513,0.0,1.3277,1.4438,1.5646,1.5932,1.6466,1.7108,1.7809,1.8732,1.9395,1.9395,2.0888,2.269,2.4458,2.5203,2.6198,2.8033,2.8304,2.8115,2.7646,2.604,2.5679,2.7409,2.644,2.5706,2.5706,2.7311,2.7754,2.6479,2.7604,2.8304,2.8304,2.8304,2.7695,2.643,2.594,2.5706,2.5706,2.5706,2.5706,2.5706,2.5706,2.5706,2.5706,2.5706,2.5706,2.5706,2.5706,2.4672,2.3091,2.3091,2.3383,2.3824,2.3824,2.3511,2.3091,0.0,0.0,0.0,0.0,0.0,0.0,0.0,0.0,0.0,0.0,0.0,0.0,0.0,1.064,1.0604,0.0,0.0,0.0,0.0,1.7629,2.0851,2.3807,2.6079,2.807,2.976,2.9789,2.9789,2.9801,2.9801,2.9801,2.9801,2.9801,3.0093,3.0613,3.1135,3.1999,3.3052,3.3065,3.3368,3.3809,3.326,3.2721,3.2043,3.043,2.8787,2.7147,2.5846,0.0,0.0,0.0,1.8136,1.7644,1.8431,1.8966,0.0,1.9766,1.8225,1.6085,1.4596,0.0,1.2516,1.33,1.4259,1.5454,1.7141,1.7856,1.8283,1.8756,1.9159,1.9395,1.9395,2.0616,2.211,2.3603,2.5146,2.6664,2.8104,2.8304,2.7676,2.5979,2.4243,2.3851,0.0,2.5725,2.5706,2.5706,2.7311,2.8285,2.8213,2.8262,2.8304,2.8304,2.8304,2.8271,2.8213,2.6537,2.5706,2.5706,2.5706,2.5706,2.5706,2.5706,2.5706,2.5706,2.5706,2.5706,2.5706,2.5706,2.4672,2.3091,2.3091,2.4124,2.5618,2.5618,2.4555,2.3091,0.0,0.0,0.0,0.0,0.0,0.0,0.0,0.0,0.0,0.0,0.0,0.0,0.0,0.0,0.0,0.0,0.0,0.0,0.0,1.7116,2.0116,2.1769,2.5357,2.7559,2.8131,2.8841,2.9393,2.9801,2.9801,2.9801,2.9801,2.9801,3.0093,3.0613,3.116,3.18,3.2528,3.2939,3.2966,3.2729,3.2187,3.1637,3.0962,2.9292,2.7193,2.4842,0.0,0.0,0.0,1.7098,1.6683,1.7043,1.7619,1.7697,1.7438,1.6723,1.615,1.5583,1.4912,0.0,1.6115,1.5987,1.7379,1.8725,1.8516,1.8745,1.8979,1.8917,1.9173,1.9314,1.9053,2.0385,2.2245,2.4437,2.6155,2.7443,2.8191,2.8304,2.7226,2.4321,2.3463,0.0,0.0,0.0,0.0,2.5706,2.7311,2.8304,2.8304,2.8304,2.8304,2.8304,2.8304,2.7744,2.6586,2.7145,2.7432,2.7409,2.6242,2.5706,2.5706,2.5706,2.5706,2.5706,2.5706,2.5706,2.5706,2.5706,2.5355,2.4828,2.4828,2.5177,2.5706,2.5706,2.5335,2.4828,0.0,0.0,0.0,0.0,0.0,0.0,0.0,0.0,0.0,0.0,0.0,0.0,0.0,0.0,0.0,0.0,0.0,0.0,0.0,0.0,1.8604,1.9961,2.3555,2.5607,2.5799,2.6464,2.7125,2.7729,2.7729,2.7921,2.8307,2.8307,2.88,2.9732,3.0269,3.1035,3.1938,3.2114,3.175,3.0952,3.0231,2.9252,2.8063,2.6377,2.4393,0.0,0.0,0.0,0.0,1.5599,1.5425,1.6069,1.6383,1.6797,1.6849,1.5268,1.5486,1.6268,1.6304,1.7802,1.9455,1.9882,2.0114,2.027,2.0409,1.9794,1.9174,1.9092,1.9139,1.8933,1.8103,1.964,2.17,2.375,2.5602,2.7057,2.7861,2.79,2.7116,2.5193,2.3863,2.3541,0.0,0.0,0.0,2.5706,2.7311,2.8304,2.8304,2.8304,2.8304,2.8304,2.8304,2.7764,2.6635,2.7744,2.7988,2.7363,2.6245,2.5706,2.5706,2.5706,2.5706,2.5706,2.5706,2.5706,2.5706,2.5706,2.5706,2.5706,2.5706,2.5706,2.5706,2.5706,2.5706,2.5706,0.0,0.0,0.0,0.0,0.0,0.0,0.0,0.0,0.0,0.0,0.0,0.0,0.0,0.0,0.0,0.0,0.0,0.0,0.0,0.0,0.0,1.8338,2.0864,2.2458,2.297,2.3032,2.3354,2.3954,2.3954,2.4469,2.5473,2.5473,2.6327,2.7874,2.8417,2.9531,3.0994,3.054,2.9698,2.8592,2.7548,2.585,2.3774,2.2092,0.0,0.0,0.0,0.0,0.0,0.0,1.4459,1.4907,1.4926,1.6357,1.7617,1.5557,1.6323,1.7989,1.8647,2.0301,2.2367,2.4561,2.2422,2.036,2.2618,2.098,1.9046,1.9296,1.9073,1.8351,0.0,0.0,2.0289,2.1497,2.3632,2.5669,2.7175,2.7204,2.7341,0.0,0.0,0.0,0.0,0.0,0.0,2.5832,0.0,2.8304,2.8304,2.8304,2.8304,2.8304,2.8304,2.8304,2.8304,2.8304,2.7467,2.5832,2.5832,2.5784,2.5706,2.5706,2.5706,2.5706,2.5706,2.5706,2.5706,2.5706,2.5706,2.5706,2.5706,2.5706,2.5706,2.5706,2.5706,2.5706,0.0,0.0,0.0,0.0,0.0,0.0,0.0,0.0,0.0,0.0,0.0,0.0,0.0,0.0,0.0,0.0,0.0,0.0,0.0,0.0,0.0,0.0,0.0,0.0,0.0,0.0,0.0,0.0,0.0,2.3466,2.3742,2.3742,2.3968,2.4407,2.4992,2.5485,2.5933,2.659,2.6487,2.5778,0.0,2.4187,2.3149,0.0,0.0,0.0,0.0,0.0,0.0,0.0,0.0,0.0,1.6629,1.7521,1.8239,1.7187,1.7639,1.8772,2.0182,2.2813,2.5387,2.6263,2.5659,2.4371,2.2566,2.177,2.0852,1.8904,1.8899,1.8846,0.0,0.0,0.0,1.863,2.2678,0.0,2.696,2.7594,0.0,2.6489,0.0,2.696,2.696,2.7383,0.0,0.0,2.8047,2.8304,2.8304,2.8304,2.8304,2.8304,2.8304,2.8304,2.8304,2.8304,2.8089,2.7646,2.7646,2.696,2.5706,2.5706,2.5706,2.5706,2.5706,2.5706,2.5706,2.5706,2.5706,2.5706,2.5706,2.5706,2.5706,2.5706,2.5706,2.5706,0.0,0.0,0.0,0.0,0.0,0.0,0.0,0.0,0.0,0.0,0.0,0.0,0.0,0.0,0.0,0.0,0.0,0.0,0.0,0.0,0.0,0.0,0.0,0.0,0.0,0.0,0.0,0.0,0.0,0.0,0.0,2.1867,2.227,2.2776,2.3353,2.374,2.3994,2.4602,0.0,0.0,0.0,0.0,0.0,0.0,0.0,0.0,0.0,0.0,0.0,0.0,0.0,1.7218,1.8426,1.9502,2.0082,1.894,0.0,2.2326,2.3057,2.5766,2.8384,2.8399,2.7608,2.629,2.4206,2.2125,2.0264,1.8997,1.8658,0.0,1.5683,1.4199,0.0,0.0,0.0,0.0,2.6254,2.684,2.7087,0.0,2.7705,0.0,2.8304,2.8304,2.8304,0.0,2.9018,2.9447,2.9447,2.8724,2.8304,2.8304,2.8304,2.8304,2.8304,2.8304,2.8304,2.8304,2.8304,2.7393,2.5706,2.5706,2.5706,2.5706,0.0,2.5706,2.5706,2.5706,2.5706,2.5706,2.5706,2.5706,2.5706,2.5706,2.5706,2.5706,0.0,0.0,0.0,0.0,0.0,0.0,0.0,0.0,0.0,0.0,0.0,0.0,0.0,0.0,0.0,0.0,0.0,0.0,0.0,0.0,0.0,0.0,0.0,0.0,0.0,0.0,0.0,0.0,0.0,0.0,0.0,0.0,0.0,0.0,0.0,0.0,0.0,0.0,0.0,0.0,0.0,0.0,0.0,0.0,0.0,0.0,0.0,0.0,0.0,0.0,1.7384,1.827,2.0371,2.1905,2.2658,2.1283,2.3713,2.6782,2.6608,2.8686,3.0805,3.0391,2.881,2.7116,2.624,2.2803,1.9681,1.9251,0.0,1.5782,1.2839,1.2187,1.3643,1.8416,0.0,2.4123,2.5806,2.605,2.6618,2.8115,2.8304,2.8304,2.8304,2.8304,2.8304,2.8304,2.9701,3.0547,3.0547,2.9125,2.8304,2.8304,2.8304,2.8304,2.8304,2.8304,2.8304,2.8304,2.8304,2.7519,2.605,2.605,2.605,2.605,2.605,0.0,2.5715,2.5949,2.605,2.605,2.605,2.605,2.6018,2.5796,2.5706,2.5706,0.0,0.0,0.0,0.0,0.0,0.0,0.0,0.0,0.0,0.0,0.4621,0.0,0.0,0.0,0.0,0.0,0.0,0.0,0.0,0.0,0.0,0.0,0.0,0.0,0.0,0.0,0.0,0.0,0.0,0.0,0.0,0.0,0.0,0.0,0.0,0.0,0.0,0.0,0.0,0.0,0.0,0.0,0.0,0.0,0.0,0.0,0.0,0.0,0.0,0.0,1.928,2.0859,2.2666,2.4121,2.5268,2.5914,2.7001,2.8296,2.9659,3.0466,3.0869,3.0805,2.9967,2.8474,2.5875,2.5969,0.0,0.0,1.4662,1.1911,1.2238,1.1534,1.3402,2.1068,2.3974,2.5876,2.7607,2.7851,2.7959,0.0,0.0,0.0,0.0,0.0,0.0,0.0,0.0,2.8754,2.8754,2.8457,2.8304,2.8304,2.8304,2.8304,2.8304,2.8304,2.8304,2.8304,2.8304,2.8135,2.7851,2.7851,2.7851,2.7851,2.7851,0.0,2.5813,2.7253,2.7851,2.7851,2.7851,2.7851,2.7676,2.6235,2.5706,2.5706,0.0,0.0,0.0,0.0,0.0,0.0,0.0,0.0,0.0,0.0,0.4912,0.4742,0.0,0.0,0.0,0.0,0.0,0.0,0.0,0.0,0.0,0.0,0.0,0.0,0.0,0.0,0.0,0.0,0.0,0.0,0.0,0.0,0.0,0.0,0.0,0.0,0.0,0.0,0.0,0.0,0.0,0.0,0.0,0.0,0.0,0.0,0.0,0.0,0.0,0.0,1.9767,2.2536,2.4531,2.5879,2.7012,2.8356,2.876,2.909,3.0512,3.0903,3.0903,3.0903,3.0581,2.9659,2.7298,0.0,0.0,0.0,1.2167,1.0768,1.1306,1.1453,0.0,1.7662,1.8091,1.9972,2.6089,2.7734,0.0,2.8304,0.0,0.0,0.0,0.0,0.0,0.0,0.0,2.8705,2.96,2.8793,2.8304,2.8304,2.8304,2.8304,2.8304,2.8304,2.8304,2.8304,2.8304,2.8304,2.8304,2.8304,2.8304,2.8304,2.8304,0.0,2.7116,2.7959,2.8304,2.8304,2.8304,2.7744,2.6852,2.602,2.6274,2.7057,0.0,0.0,0.0,0.0,0.0,0.0,0.0,0.41,0.4527,0.545,0.5279,0.4836,0.4216,0.368,0.3325,0.0,0.0,0.0,0.0,0.0,0.0,0.0,0.0,0.0,0.0,0.0,0.0,0.0,0.0,0.0,0.0,0.0,0.0,0.0,0.0,0.0,0.0,0.0,0.0,0.0,0.0,0.0,0.0,0.0,0.0,0.0,0.0,0.0,0.0,0.0,1.8801,2.1435,2.4394,2.6389,2.7855,2.901,2.9277,2.9452,3.0591,3.0903,3.0864,3.0669,3.0483,2.9799,2.7676,1.8767,0.0,1.0648,1.0601,1.0601,1.0601,1.1326,1.2374,0.0,1.287,1.4869,2.2941,2.6191,2.7881,0.0,2.8636,0.0,0.0,0.0,0.0,0.0,0.0,0.0,3.0278,2.9033,2.8304,2.8304,2.8304,2.8304,2.8304,2.8304,2.8304,2.8304,2.8304,2.8304,2.8304,2.8304,2.8304,2.8304,2.8304,0.0,0.0,2.8304,2.8304,2.8304,2.8304,2.7233,2.5745,2.6128,2.7126,2.8304,0.0,0.0,0.0,0.0,0.0,0.0,0.0,0.3771,0.4429,0.5069,0.5434,0.5372,0.4709,0.4,0.34,0.0,0.0,0.0,0.0,0.0,0.0,0.0,0.0,0.0,0.0,0.0,0.0,0.0,0.0,0.0,0.0,0.0,0.0,0.0,0.0,0.0,0.0,0.0,0.0,0.0,0.0,0.0,0.0,0.0,0.0,0.0,0.0,0.0,0.0,0.0,0.0,1.478,2.0156,2.4422,2.7409,2.7311,0.0,0.0,3.0591,3.0903,3.0708,2.9921,2.9115,2.7666,2.4342,0.0,1.1853,1.0807,1.0601,1.0601,1.0601,1.0688,0.0,0.0,0.0,1.7243,1.8608,2.2927,2.6528,2.8105,0.0,0.0,0.0,0.0,0.0,0.0,0.0,0.0,2.8525,2.8392,2.8304,2.8304,2.8304,2.8304,2.8304,2.8304,2.8304,2.8304,2.8304,2.8304,2.8304,2.8304,2.8304,2.8304,2.8304,0.0,0.0,2.8304,2.8304,2.8304,2.8304,2.7233,2.5891,2.749,2.8154,2.8304,0.0,0.0,0.0,0.0,0.0,0.0,0.0,0.4365,0.5397,0.6889,0.6837,0.6393,0.5682,0.4803,0.3894,0.0,0.0,0.0,0.0,0.0,0.0,0.0,0.0,0.0,0.0,0.0,0.0,0.0,1.7836,0.0,0.0,0.0,0.0,0.0,0.0,0.0,0.0,0.0,0.0,0.0,0.0,0.0,0.0,0.0,0.0,0.0,0.0,0.0,0.0,0.0,0.0,0.0,1.7072,1.8888,0.0,0.0,2.7383,2.8988,3.0493,3.0903,3.0825,3.0473,2.933,2.6614,2.0172,0.0,1.198,1.0834,1.0601,1.0601,1.0601,1.0601,1.1146,0.0,0.0,0.0,1.6531,1.9263,2.2909,2.7736,2.8906,0.0,0.0,0.0,0.0,0.0,0.0,0.0,2.8363,2.8304,2.8304,2.8304,2.8304,2.8304,2.8304,2.8304,2.8304,2.8304,2.8304,2.8304,2.8304,2.8304,2.8304,2.8304,2.8304,0.0,0.0,2.8304,2.8304,2.8304,2.8304,2.7871,2.7223,2.6872,2.7399,2.8304,0.0,0.0,0.0,0.0,0.0,0.0,0.3544,0.4534,0.5764,0.7393,0.7474,0.7133,0.6451,0.5408,0.4403,0.3508,0.0,0.0,0.0,0.0,0.0,0.0,0.0,0.0,0.0,0.0,0.0,0.0,0.0,1.7445,0.0,0.0,1.8375,1.9678,0.0,0.0,0.0,0.0,0.0,0.0,0.0,0.0,0.0,0.0,0.0,0.0,0.0,0.0,0.0,0.0,0.0,0.0,0.0,0.0,0.0,0.0,2.564,2.7842,2.9252,3.0258,3.0903,3.0903,2.9985,2.7394,0.0,0.0,1.1574,1.0768,1.0601,1.0601,1.0601,1.0601,1.0976,0.0,0.0,1.3965,1.5625,1.6753,1.9937,0.0,0.0,0.0,0.0,0.0,0.0,0.0,0.0,0.0,2.8373,2.8793,2.8828,2.8324,2.8304,2.8304,2.8304,2.8304,2.8304,2.8304,2.8304,2.8304,2.8304,2.8304,2.8304,2.8304,2.8304,0.0,0.0,2.8304,2.8304,2.8304,2.8304,2.8304,2.8086,2.6342,2.6801,2.8304,0.0,0.0,0.0,0.0,0.0,0.0,0.0,0.3962,0.5102,0.5657,0.682,0.7393,0.6855,0.5659,0.4841,0.4695,0.0,0.0,0.0,0.0,0.0,0.0,0.0,0.0,0.0,0.0,0.0,0.0,0.0,0.0,0.0,1.6233,1.7211,1.9588,0.0,0.0,0.0,0.0,0.0,0.0,0.0,0.0,1.4457,0.0,0.0,0.0,0.0,0.0,0.0,0.0,0.0,0.0,0.0,0.8871,1.0295,0.0,2.2584,2.5864,2.649,2.8738,3.0903,3.0903,3.0893,3.04,0.0,0.0,1.0606,1.0601,1.0601,1.0601,1.0601,1.0601,1.0609,1.0623,1.2681,0.0,1.584,1.59,1.8292,0.0,0.0,0.0,0.0,0.0,0.0,0.0,0.0,0.0,2.8304,2.9946,3.0082,2.834,2.8304,2.8304,2.8304,2.8304,2.8304,2.8304,2.8304,2.8304,2.8304,2.8304,2.8304,0.0,0.0,0.0,0.0,2.8304,2.8304,2.8304,2.8304,2.8304,2.8086,2.6342,2.6801,2.8304,0.0,0.0,0.0,0.0,0.0,0.0,0.0,0.3097,0.4164,0.631,0.674,0.668,0.6231,0.5418,0.4645,0.4005,0.0,0.0,0.0,0.0,0.0,0.0,0.0,0.0,0.0,0.0,0.0,0.0,0.0,0.0,0.0,0.0,0.0,0.0,1.6173,0.0,0.0,0.0,0.0,0.0,0.0,1.3128,1.3192,0.0,0.0,0.0,0.0,0.0,0.0,0.0,0.0,0.0,0.0,0.0,0.0,1.4811,1.9099,2.3039,2.6751,2.8431,2.9418,3.061,2.6316,2.1248,1.9083,1.445,1.0601,1.0601,0.9942,0.9493,0.9909,1.0318,1.0601,1.0601,1.1571,0.0,0.0,0.0,0.0,2.3397,0.0,0.0,0.0,0.0,0.0,0.0,0.0,0.0,3.001,2.9463,2.8867,2.8324,2.8304,2.8304,2.8304,2.8304,2.8304,2.8304,2.8304,2.8304,2.8304,2.8304,2.8304,0.0,0.0,0.0,0.0,2.8304,2.8304,2.8174,2.6989,2.7243,2.8223,2.7685,2.7832,2.8304,0.0,0.0,0.0,0.0,0.0,0.0,0.0,0.2699,0.3461,0.5589,0.5972,0.6039,0.6019,0.5235,0.494,0.5513,0.0,0.0,0.0,0.0,0.0,0.0,0.0,0.0,0.0,0.0,0.0,0.0,0.0,0.0,0.0,0.0,0.0,0.0,0.0,0.0,0.0,0.0,0.0,0.0,1.3513,1.2899,1.2603,0.0,0.0,0.0,0.0,0.0,0.0,0.0,0.0,0.0,0.0,0.0,0.0,0.0,1.4212,1.7497,2.3706,2.4435,2.3401,2.3264,1.9076,0.0,0.0,1.1964,1.0466,1.0009,0.9681,0.9453,0.9372,0.9667,1.0069,1.0527,1.1984,1.402,0.0,0.0,0.0,0.0,0.0,0.0,0.0,0.0,0.0,0.0,0.0,0.0,2.9907,2.8891,2.8304,2.8304,2.8304,2.8304,2.8304,2.8304,2.8304,2.8304,2.8304,2.8304,2.8304,2.8304,2.8304,0.0,0.0,0.0,0.0,2.8304,2.8304,2.8125,2.6381,2.6362,2.7402,2.8057,2.8304,2.8304,0.0,0.0,0.0,0.0,0.0,0.0,0.0,0.0,0.0,0.0,0.4724,0.5516,0.6079,0.5132,0.5534,0.0,0.0,0.0,0.0,0.0,0.0,0.0,0.0,0.0,0.0,0.0,0.0,1.5525,1.8334,1.8555,1.6394,0.0,0.0,0.0,0.0,0.0,0.0,1.3252,1.307,1.2899,1.2899,1.2899,0.0,0.0,0.0,0.0,0.0,0.0,0.0,0.0,0.0,0.0,0.0,0.0,0.0,0.0,0.0,0.0,0.0,1.746,1.4345,1.1351,1.0601,0.0,0.0,0.0,0.0,0.9031,0.9694,1.013,0.9011,0.8798,0.9199,1.0399,1.3323,1.5488,0.0,2.0187,0.0,0.0,0.0,0.0,0.0,0.0,0.0,0.0,0.0,0.0,2.8564,2.8373,2.8304,2.8304,2.8304,2.8304,2.8304,2.8304,2.8304,2.8304,2.8304,2.8304,2.8304,2.8304,2.8304,0.0,0.0,0.0,0.0,2.8304,2.8304,2.8125,2.6381,2.5774,2.6076,2.7705,2.8304,2.8304,0.0,0.0,0.0,0.0,0.0,0.0,0.0,0.0,0.0,0.0,0.4347,0.5355,0.5496,0.5257,0.4994,0.0,0.0,0.0,0.0,0.0,0.0,0.0,0.0,0.0,0.0,0.0,0.0,1.2738,1.7409,2.0407,2.1734,2.0347,0.0,0.0,0.0,1.6108,1.5605,1.3757,1.2942,1.2899,1.2899,1.2899,0.0,0.0,0.0,0.0,0.8798,0.8798,0.0,0.0,0.0,0.0,0.0,0.0,0.0,0.0,0.8798,0.9206,1.1065,0.0,1.1554,1.0791,1.0601,1.0674,0.0,0.0,0.0,0.0,0.0,0.9138,0.8851,0.8798,0.9199,1.0399,1.129,1.245,1.4253,0.0,0.0,0.0,0.0,0.0,0.0,0.0,0.0,0.0,0.0,3.0727,3.0317,2.9014,2.8304,2.8304,2.8304,2.8304,2.8304,2.8304,2.8304,2.8304,2.8304,2.8304,2.8304,2.8304,2.8304,0.0,0.0,0.0,2.8304,2.8304,2.8304,2.8125,2.6381,2.6508,2.7744,2.8158,2.8304,2.8304,0.0,0.0,0.0,0.0,0.0,0.0,0.0,0.0,0.0,0.0,0.0,0.0,0.0,0.0,0.0,0.0,0.0,0.0,0.0,0.0,0.0,0.0,0.0,0.0,0.0,0.0,0.0,0.0,0.0,2.0422,0.0,0.0,0.0,0.0,0.0,1.5876,1.4761,1.3454,1.2899,1.2899,1.2899,0.0,0.0,0.0,0.0,0.0,0.8798,0.8798,0.0,0.8798,0.9232,0.9707,0.0,0.0,0.0,0.0,0.8798,0.8798,0.8798,0.9279,0.9774,0.9774,0.9774,0.9774,0.9774,0.0,0.0,0.0,0.0,0.8798,0.8798,0.9679,1.0449,1.0579,1.1042,0.0,0.0,0.0,0.0,0.0,0.0,0.0,0.0,0.0,0.0,0.0,0.0,3.0903,3.0903,2.9252,2.8304,2.8304,2.8304,2.8304,2.8304,2.8304,2.8304,2.8304,2.8304,2.8304,2.8304,2.8304,2.8304,0.0,0.0,0.0,2.8304,2.8304,2.7832,2.7097,2.695,2.7471,2.8304,2.8304,2.8304,2.8304,0.0,0.0,0.0,0.0,0.0,0.0,0.0,0.0,0.0,0.0,0.0,0.0,0.0,0.0,0.0,0.0,0.0,0.0,0.0,0.0,0.0,0.0,0.0,0.0,0.0,0.0,0.0,0.0,0.0,0.0,0.0,0.0,1.9932,0.0,1.7339,1.5152,1.2899,1.2899,1.2899,1.2899,1.2899,0.0,0.0,0.0,0.0,0.0,0.0,0.0,0.0,0.8798,0.8798,0.8891,0.9399,0.0,0.0,0.0,0.0,0.0,0.8798,0.8798,0.8885,0.9245,0.9332,0.9238,0.8878,0.0,0.0,0.0,0.0,0.0,0.0,1.0575,0.0,0.0,0.0,0.0,0.0,0.0,0.0,0.0,0.0,0.0,0.0,0.0,0.0,0.0,0.0,3.0503,3.0503,2.9092,2.8304,2.8304,2.8304,2.8304,2.8304,2.8304,2.8304,2.8304,2.8304,2.8304,2.8304,2.8304,2.8304,2.8304,0.0,0.0,2.8304,2.8304,2.7428,2.6245,2.7725,2.8304,2.8304,2.8304,2.8304,2.8304,0.0,0.0,0.0,0.0,0.0,0.0,0.0,0.0,0.0,0.0,0.0,0.0,0.0,0.0,0.0,0.0,0.0,0.0,0.0,0.0,0.0,0.0,0.0,0.0,0.0,0.0,0.0,0.0,0.0,0.0,1.9753,2.1969,2.0853,1.6995,1.6656,1.5152,1.2899,1.2899,1.2899,1.2899,1.2899,0.0,0.0,0.0,0.0,0.0,0.0,0.0,0.0,0.8798,0.8798,0.8818,0.8905,0.0,0.0,0.0,0.0,0.0,0.8798,0.8798,0.9278,1.1269,1.1755,1.1234,0.9252,0.0,0.0,0.0,0.0,0.0,0.0,0.9928,0.0,0.0,0.0,0.0,0.0,0.0,0.0,0.0,0.0,0.0,0.0,0.0,0.0,0.0,0.0,2.8705,2.8705,2.8451,2.8304,2.8304,2.8304,2.8304,2.8304,2.8304,2.8304,2.8304,2.8304,2.8304,2.8304,2.8304,2.8304,2.8304,0.0,2.8304,2.8304,2.8304,2.8135,2.793,2.8207,2.8304,2.8304,2.8304,2.8304,2.8304,0.0,0.0,0.0,0.0,0.0,0.0,0.0,0.0,0.0,0.0,0.0,0.0,0.0,0.0,0.0,0.0,0.0,0.0,0.0,0.0,0.0,0.0,0.0,0.0,0.0,0.0,0.0,0.0,0.0,2.0034,2.3933,2.2312,1.9747,1.6434,1.5135,1.3937,1.2899,1.2899,1.2899,1.2768,0.0,0.0,0.0,0.0,0.0,0.0,0.0,0.0,0.0,0.0,0.8798,0.8798,0.8798,0.0,0.0,0.0,0.0,0.0,0.8798,0.9726,1.1109,1.2839,1.183,1.0294,0.9868,0.0,0.0,0.0,0.0,0.0,0.0,0.0,0.0,0.0,0.0,0.0,0.0,0.0,0.0,0.0,0.0,0.0,0.0,0.0,0.0,0.0,0.0,0.0,2.8304,2.8304,2.8304,2.8304,2.8304,2.8304,2.8304,2.8304,2.8304,2.8304,2.8304,2.7812,2.6931,2.7871,2.8304,2.8304,0.0,2.8304,2.8304,2.8304,2.7744,2.6901,2.6901,2.7467,2.8197,2.7243,2.7487,2.8177,0.0,0.0,0.0,0.0,0.0,0.0,0.0,0.0,0.0,0.0,0.0,0.0,0.0,0.0,0.0,0.0,0.0,0.0,0.0,0.0,0.0,0.0,0.0,0.0,0.0,0.0,1.5923,1.4753,1.6964,2.0958,2.6441,2.1392,1.8117,1.6385,1.3983,1.2899,1.2899,1.2899,1.2899,1.2664,0.0,0.0,0.0,0.0,0.0,0.0,0.0,0.0,0.0,0.0,0.0,0.0,0.0,0.0,0.0,0.8798,0.8798,0.8798,0.8798,1.0113,1.177,1.2985,0.0,0.9533,1.0734,0.0,0.0,0.0,0.0,0.0,0.0,0.0,0.0,0.0,0.0,0.0,0.0,0.0,0.0,0.0,0.0,0.0,0.0,0.0,0.0,0.0,0.0,0.0,2.8304,2.8304,2.8304,2.8304,2.79,2.7695,2.7695,2.7695,2.79,2.8304,2.7891,2.6999,2.5745,2.7087,2.791,2.8304,2.8304,2.8066,2.7695,2.7695,2.6898,2.5706,2.5706,2.6518,2.7526,2.6196,2.6801,2.8105,0.0,0.0,0.0,0.0,0.0,0.0,0.0,0.0,0.0,0.0,0.0,0.0,0.0,0.0,0.0,0.0,0.0,0.0,0.0,0.0,0.0,0.0,0.0,0.0,0.0,1.4374,1.7427,1.9334,2.1547,2.2893,2.3338,1.8848,1.6656,1.6385,1.3983,1.2899,1.2899,1.2899,1.2899,1.2664,0.9906,0.0,0.0,0.0,0.0,0.0,0.0,0.0,0.0,0.0,0.0,0.0,0.0,0.0,0.8798,0.8798,0.8798,0.8798,0.8798,0.8925,0.9339,1.0553,1.0661,0.0,1.1919,0.0,0.0,0.0,0.0,0.0,0.0,0.0,0.0,0.0,0.0,0.0,0.0,0.0,0.0,0.0,0.0,0.0,0.0,0.0,0.0,0.0,0.0,0.0,2.8304,2.8304,2.8304,2.8304,2.6735,2.5891,2.5891,2.5891,2.6693,2.8271,2.6667,2.5823,2.5706,2.5832,2.6774,2.8304,2.8304,2.738,2.5891,2.5891,2.5813,2.5706,2.5706,2.5774,2.5871,2.5745,2.6801,2.8271,0.0,0.0,0.0,0.0,0.0,0.0,0.0,0.0,0.0,0.0,0.0,0.0,0.0,0.0,0.0,0.0,0.0,0.0,0.0,0.0,0.0,0.0,0.0,1.0419,1.1879,1.628,1.9635,2.1848,2.4573,2.4225,2.0977,1.7923,0.0,1.6385,1.3983,1.2899,1.2899,1.2899,1.2899,1.2664,0.9906,0.8798,0.0,0.0,0.0,0.0,0.0,0.0,0.0,0.0,0.8798,0.8798,0.8798,0.8798,0.8798,0.8798,0.8798,0.8798,0.8798,0.8798,0.9092,1.0298,0.0,0.0,0.0,0.0,0.0,0.0,0.0,0.0,0.0,0.0,0.0,0.0,0.0,0.0,0.0,0.0,0.0,0.0,0.0,0.0,0.0,0.0,0.0,0.0,0.0,0.0,2.8304,2.8304,2.7803,2.6726,2.6037,2.5706,2.5706,2.5706,2.6027,2.6687,2.6008,2.5706,2.5706,2.5706,2.6057,2.6674,2.6674,2.6313,2.5706,2.5706,2.5706,2.5706,2.5706,2.5706,2.5706,2.5706,2.6128,2.6674,0.0,0.0,0.0,0.0,0.0,0.0,0.0,0.0,0.0,0.0,0.0,0.0,0.0,0.0,0.0,0.0,0.0,0.0,0.0,0.0,0.0,0.0,0.0,1.1115,1.286,1.6748,2.018,2.31,2.6112,2.4928,1.9748,0.0,0.0,0.0,1.3634,1.2899,1.2899,1.2899,1.2403,1.1439,0.9564,0.8798,0.0,0.0,0.0,0.0,0.0,0.0,0.0,0.0,0.8798,0.8798,0.8798,0.8798,0.8798,0.8798,0.8798,0.8798,0.8798,0.8798,0.9272,0.0,0.0,0.0,0.0,0.0,0.0,0.0,0.0,0.0,0.0,0.0,0.0,0.0,0.0,0.0,0.0,0.0,0.0,0.0,0.0,0.0,0.0,0.0,0.0,0.0,0.0,0.0,0.0,2.749,2.6928,2.5735,2.5706,2.5706,2.5706,2.5706,2.5706,2.5706,2.5706,2.5706,2.5706,2.5706,2.5706,2.5706,2.5706,2.5706,2.5706,2.5706,2.5706,2.5706,2.5706,2.5706,2.5706,2.5706,2.5706,2.5706,0.0,0.0,0.0,0.0,0.0,0.0,0.0,0.0,0.0,0.0,0.0,0.0,0.0,0.0,0.0,0.0,0.0,0.0,0.0,0.0,0.0,0.0,0.0,1.1094,1.2855,1.5294,1.8682,2.307,2.6042,2.4845,1.9717,1.7527,0.0,0.0,1.2919,1.2913,1.2899,1.2899,1.1332,0.8837,0.8811,0.8798,0.8798,0.0,0.0,0.0,0.0,0.0,0.0,0.0,0.8798,0.8798,0.8798,0.8798,0.8798,0.8798,0.8798,0.8798,0.8798,0.8798,0.9645,0.0,0.0,0.0,0.0,0.0,0.0,0.0,0.0,0.0,0.0,0.0,0.0,0.0,0.0,0.0,0.0,0.0,0.0,0.0,0.0,0.0,0.0,0.0,0.0,0.0,0.0,0.0,0.0,2.5706,2.5706,2.5706,2.5706,2.5706,2.5706,2.5706,2.5706,2.5706,2.5706,2.5706,2.5706,2.5686,2.5686,2.5706,2.5706,2.5706,2.5706,2.5706,2.5706,2.5706,2.5706,2.5706,2.5706,2.5706,2.5706,2.5706,0.0,0.0,0.0,0.0,0.0,0.0,0.0,0.0,0.0,0.0,0.0,0.0,0.0,0.0,0.0,0.0,0.0,0.0,0.0,0.0,0.0,0.0,0.0,0.0,0.0,0.0,1.9466,2.0777,2.0114,1.9003,0.0,0.0,0.0,1.2948,0.0,0.0,1.2899,1.2899,1.2428,1.152,0.9576,0.8798,0.8798,0.0,0.0,0.0,0.0,0.0,0.0,0.0,0.0,0.0,0.8798,0.8798,0.8798,0.8798,0.8798,0.8798,0.8798,0.8798,0.0,1.1161,0.0,0.0,0.0,0.0,0.0,0.0,0.0,0.0,0.0,0.0,0.0,0.0,0.0,0.0,0.0,0.0,0.0,0.0,0.0,0.0,0.0,0.0,0.0,0.0,0.0,0.0,0.0,2.5706,2.5706,2.5706,2.5706,2.5706,2.5706,2.5706,2.5706,2.5706,2.5706,2.5706,2.5657,2.4428,2.4545,2.5706,2.5706,2.5706,2.5706,2.5706,2.5706,2.5706,2.5706,2.5706,2.5706,2.5706,2.5706,2.5706,0.0,0.0,0.0,0.0,0.0,0.0,0.0,0.0,0.0,0.0,0.0,0.0,0.0,0.0,0.0,0.0,0.0,0.0,0.0,0.0,0.0,0.0,0.0,0.0,0.0,1.712,1.8487,0.0,0.0,0.0,0.0,0.0,0.0,1.4909,0.0,1.3851,0.0,1.2899,1.2271,1.1131,0.9466,0.8798,0.8798,0.0,0.0,0.0,0.0,0.0,0.0,0.0,0.0,0.0,0.8798,0.8798,0.9144,1.0914,1.0178,0.8798,0.8798,0.8798,0.0,1.0298,1.2695,1.5072,0.0,0.0,0.0,0.0,0.0,0.0,0.0,0.0,0.0,0.0,0.0,0.0,0.0,0.0,0.0,0.0,0.0,0.0,0.0,0.0,0.0,0.0,0.0,0.0,0.0,2.4672,2.4672,2.4672,2.4672,2.5004,2.5696,2.5706,2.5706,2.5696,2.5004,2.4672,2.4633,2.359,2.3666,2.4711,2.5403,2.5706,2.5647,2.4955,2.5082,2.5706,2.5706,2.5706,2.5706,2.5706,2.5706,2.5706,0.0,0.0,0.0,0.0,0.0,0.0,0.0,0.0,0.0,0.0,0.0,0.0,0.0,0.0,0.0,0.0,0.0,0.0,0.0,0.0,0.0,0.0,0.0,0.0,0.0,0.0,0.0,0.0,0.0,0.0,0.0,0.0,1.7196,1.8322,0.0,1.328,0.0,1.2958,1.1457,0.9153,0.8903,0.8798,0.8798,0.8798,0.0,0.0,0.0,0.0,0.0,0.0,0.0,0.0,0.8798,0.8798,0.9589,1.3621,1.2029,0.8945,0.8831,0.0,0.0,1.0754,1.3544,0.0,1.7348,0.0,0.0,0.0,0.0,0.0,0.0,0.0,0.0,0.0,0.0,0.0,0.0,0.0,0.0,0.0,0.0,0.0,0.0,0.0,0.0,0.0,0.0,0.0,0.0,2.3091,2.3091,2.3091,2.3091,2.3851,2.5452,2.5462,2.5462,2.5442,2.3863,2.3091,2.3091,2.3091,2.3091,2.319,2.4779,2.5462,2.5345,2.3744,2.4136,2.5706,2.5706,2.5706,2.5706,2.5706,2.5706,2.5706,0.0,0.0,0.0,0.0,0.0,0.0,0.0,0.0,0.0,0.0,0.0,0.0,0.0,0.0,0.0,0.0,0.0,0.0,0.0,0.0,0.0,0.0,0.0,0.0,0.0,0.0,0.0,0.0,0.0,0.0,0.0,0.0,0.0,2.1857,0.0,1.6135,1.4775,1.346,1.2566,1.1828,0.9667,0.8798,0.8798,0.8798,0.8798,0.0,0.0,0.0,0.0,0.0,0.0,0.0,0.8798,0.8798,0.8984,0.9944,1.0222,1.0017,0.9058,1.0139,0.0,0.0,1.5959,1.7288,1.7535,1.7401,0.0,0.0,0.0,0.0,0.0,0.0,0.0,0.0,0.0,0.0,0.0,0.0,0.0,0.0,0.0,0.0,0.0,0.0,0.0,0.0,0.0,0.0,2.3091,2.3091,2.3091,2.3091,2.3091,2.3287,2.3658,2.3668,2.3668,0.0,2.3287,2.3091,2.3091,2.3091,2.3091,2.312,2.3502,2.3668,2.3627,2.3247,2.4136,2.5706,2.5706,2.5706,2.5706,2.5706,2.5706,2.5706,0.0,0.0,0.0,0.0,0.0,0.0,0.0,0.0,0.0,0.0,0.0,0.0,0.0,0.0,0.0,0.0,0.0,0.0,0.0,0.0,0.0,0.0,0.0,0.0,0.0,0.0,0.0,0.0,0.0,0.0,0.0,0.0,0.0,2.291,0.0,1.5803,1.4147,1.3264,1.2899,1.2768,1.1338,0.9977,0.8798,0.8798,0.8798,0.8798,0.8798,0.0,0.0,0.0,0.0,0.0,0.0,0.0,0.8798,0.8798,0.9239,0.96,0.8971,0.0,0.0,1.5361,0.0,1.674,1.674,1.674,0.0,0.0,0.0,0.0,0.0,0.0,0.0,0.0,0.0,0.0,0.0,0.0,0.0,0.0,0.0,0.0,0.0,0.0,0.0,0.0,0.0,2.3091,2.3091,2.3091,2.3091,2.3091,2.3091,2.3091,2.3091,2.3091,2.3091,2.3091,2.3091,2.3091,2.3091,2.3091,2.3091,2.3091,2.3091,2.3091,2.3091,2.3091,2.3638,2.4457,2.4457,2.4974,2.5706,2.5706,2.5706,2.5706,0.0,0.0,0.0,0.0,0.0,0.0,0.0,0.0,0.0,0.0,0.0,0.0,0.0,0.0,0.0,0.0,0.0,0.0,0.0,0.0,0.0,0.0,0.0,0.0,0.0,0.0,0.0,0.0,0.0,0.0,0.0,0.0,0.0,2.2326,0.0,0.0,1.2899,1.2899,1.2899,1.2899,1.2899,1.125,0.8798,0.8798,0.8798,0.8798,0.8798,0.8798,0.8798,0.8798,0.0,0.0,0.0,0.0,0.8798,0.8798,0.8798,0.8844,0.9058,0.0,1.4623,1.5561,1.5808,0.0,1.5808,1.5808,0.0,0.0,0.0,0.0,0.0,0.0,0.0,0.0,0.0,0.0,0.0,0.0,0.0,0.0,0.0,0.0,0.0,0.0,0.0,0.0,0.0,2.3091,2.3091,2.3091,2.3091,2.3091,2.3091,2.3091,2.3091,2.3091,2.3091,2.3091,2.3091,2.3091,2.3091,2.3091,2.3091,2.3091,2.3091,2.3091,2.3091,2.3091,2.3091,2.3091,2.3091,2.3978,2.5296,2.5589,2.5706,2.5706,0.0,0.0,0.0,0.0,0.0,0.0,0.0,0.0,0.0,0.0,0.0,0.0,0.0,0.0,0.0,0.0,0.0,0.0,0.2819,0.0,0.0,1.0649,1.0975,1.1132,0.0,0.0,0.0,0.0,0.0,0.0,0.0,0.0,0.0,2.01,0.0,0.0,0.0,1.2899,1.2899,1.2899,1.2899,1.125,0.8798,0.8798,0.8798,0.8798,0.8798,0.8798,0.8798,0.8798,0.8798,0.0,0.0,0.0,0.8798,0.8798,0.8798,0.9031,0.0,0.0,1.5608,0.0,1.5808,1.5808,0.0,0.0,0.0,0.0,0.0,0.0,0.0,0.0,0.0,0.0,0.0,0.0,0.0,0.0,0.0,0.0,0.0,0.0,0.0,0.0,0.0,0.0,2.3091,2.3091,2.3091,2.3091,2.3091,2.3091,2.3091,2.3091,2.3091,2.3091,2.3091,2.3091,2.3091,2.3091,2.3091,2.3091,2.3091,2.3091,2.3091,2.3091,2.3091,2.3091,2.3091,2.3091,2.3091,2.3237,2.3627,2.5138,2.5706,2.5706,0.0,0.0,0.0,0.0,0.0,0.0,0.0,0.0,0.0,0.0,0.0,0.0,0.0,0.0,0.0,0.3604,0.2121,0.1763,0.3117,0.7657,1.0303,1.0303,1.0303,1.0762,1.1741,0.0,0.0,0.0,0.0,0.0,0.0,1.4619,1.5591,0.0,0.0,0.0,0.0,0.0,0.0,1.2768,1.1219,0.988,0.8798,0.8798,0.0,0.0,0.0,0.0,0.0,0.8798,0.8798,0.8798,0.8798,0.0,0.0,0.0,0.8798,0.8911,0.9446,1.1204,1.3363,0.0,1.5808,1.5808,1.5808,0.0,0.0,0.0,0.0,0.0,0.0,0.0,0.0,0.0,0.0,0.0,0.0,0.0,0.0,0.0,0.0,0.0,0.0,0.0,0.0,0.0,2.3091,2.3091,2.3091,2.3091,2.3091,2.3091,2.3091,2.3091,2.3091,2.3091,2.3091,2.3091,2.3091,2.3091,2.3091,2.3091,2.3091,2.3091,2.3091,2.3091,2.3091,2.3091,2.3091,2.3091,2.3091,2.3091,2.3188,2.396,2.4231,2.4231,0.0,0.0,0.0,0.0,0.0,0.0,0.0,0.0,0.0,0.0,0.0,0.0,0.0,0.0,0.0,0.0,0.1954,0.1678,0.3482,0.7279,0.9707,1.0283,1.0718,1.1569,1.287,0.0,0.0,0.0,0.0,0.0,1.2944,1.4619,1.4964,0.0,1.3727,0.0,0.0,0.0,0.0,0.0,0.0,0.8798,0.8798,0.0,0.0,0.0,0.0,0.0,0.0,0.0,0.0,0.0,0.0,0.8798,0.0,0.0,0.0,0.0,0.0,0.0,1.1589,1.3897,1.4932,1.5441,0.0,0.0,0.0,0.0,0.0,0.0,0.0,0.0,0.0,0.0,0.0,0.0,0.0,0.0,0.0,0.0,0.0,0.0,0.0,0.0,0.0,0.0,2.3091,2.3091,2.3091,2.2703,2.2459,2.2459,2.2878,2.3091,2.3091,2.3091,2.3091,2.3091,2.3091,2.3091,2.3091,2.3091,2.3091,2.3091,2.3091,2.3091,2.3091,2.3091,2.3091,2.3091,2.3091,2.3091,2.3091,2.3091,2.3091,2.3091,0.0,0.0,0.0,0.0,0.0,0.0,0.0,0.0,0.0,0.0,0.0,0.0,0.0,0.3604,0.3604,0.3604,0.3487,0.3467,0.3593,0.584,0.8106,1.0205,1.1882,0.0,1.2899,0.0,0.0,0.0,0.0,0.0,1.2944,1.4619,1.6233,1.7658,1.6008,1.4385,1.2899,0.0,0.0,0.0,0.0,0.0,0.0,0.0,0.0,0.0,0.0,0.0,0.0,0.0,0.0,0.0,0.0,0.0,0.0,0.0,0.0,0.0,0.0,1.0466,0.0,1.1102,1.2537,0.0,0.0,0.0,0.0,0.0,0.0,0.0,0.0,0.0,0.0,0.0,0.0,0.0,0.0,0.0,0.0,0.0,0.0,0.0,0.0,0.0,0.0,0.0,2.3091,2.3091,2.3091,2.1592,2.0723,2.0723,2.2264,2.3091,2.3091,2.3091,2.3091,2.3091,2.3091,2.3091,2.3091,2.3091,2.3091,2.3091,2.3091,2.3091,2.3091,2.3091,2.3091,2.3091,2.3091,2.3091,2.3091,2.3091,2.3091,2.3091,0.0,0.0,0.0,0.0,0.0,0.0,0.0,0.0,0.0,0.0,0.0,0.0,0.0,0.3604,0.3604,0.3604,0.3597,0.3601,0.3604,0.5733,0.7701,0.9265,1.055,1.1749,1.288,0.0,0.0,0.0,0.0,1.2899,1.2944,1.4619,1.5727,1.6262,1.4551,1.4059,1.4502,1.4502,0.0,0.0,0.0,0.0,0.0,0.0,0.0,0.0,0.0,0.0,0.0,0.0,0.0,0.0,0.0,0.0,0.0,0.0,0.0,0.0,0.0,0.0,0.0,1.0506,1.1485,1.2473,1.2877,1.4436,0.0,0.0,0.0,0.0,0.0,0.0,0.0,0.0,0.0,0.0,0.0,0.0,0.0,0.0,0.0,0.0,0.0,0.0,0.0,0.0,0.0,2.2635,2.1543,2.0928,2.0605,2.0605,2.1182,2.2011,2.3092,2.3091,2.3091,2.3091,2.3091,2.3091,2.3091,2.3091,2.3091,2.3091,2.3091,2.3091,2.3091,2.3091,2.3091,2.3091,2.3091,2.3091,2.3091,2.3091,2.3091,2.3091,0.0,0.0,0.0,0.0,0.0,0.0,0.0,0.0,0.0,0.0,0.0,0.0,0.0,0.0,0.3682,0.3883,0.3716,0.3604,0.3604,0.5733,0.7358,0.8164,0.9547,1.1115,1.286,0.0,0.0,0.0,0.0,0.0,0.0,0.0,1.4561,1.4541,1.3975,0.0,0.0,0.0,0.0,1.0099,0.0,0.0,0.8798,0.0,0.0,0.0,0.0,0.0,0.0,0.0,0.0,0.0,0.0,0.0,0.0,0.0,0.0,0.0,0.8798,0.0,0.0,0.0,0.0,1.0887,1.1089,0.0,0.0,0.0,0.0,0.0,0.0,0.0,0.0,0.0,0.0,0.0,0.0,0.0,0.0,0.0,0.0,0.0,0.0,0.0,0.0,0.0,0.0,0.0,2.0684,2.0605,2.0605,2.0605,2.0605,2.1133,2.2255,2.2265,2.2547,2.3091,2.3091,2.3091,2.3091,2.3091,2.3091,2.3091,2.3091,2.3091,2.3091,2.3091,2.3091,2.3091,2.3091,2.3091,2.3091,2.3091,2.3091,2.3091,0.0,0.0,0.0,0.0,0.0,0.0,0.0,0.0,0.0,0.0,0.0,0.0,0.0,0.0,0.0,0.4447,0.3962,0.3661,0.375,0.5826,0.7053,0.7053,0.9188,1.1137,1.2745,0.0,0.0,0.0,0.0,0.0,0.0,0.0,1.2899,0.0,1.46,1.4424,1.2899,0.0,1.2928,1.2737,0.0,0.887,0.8804,0.0,0.0,0.0,0.8905,0.8858,0.0,0.0,0.0,0.0,0.0,0.0,0.0,0.0,0.0,0.0,0.0,0.0,0.0,0.0,0.0,0.0,1.0453,0.0,1.1251,0.0,0.0,0.0,0.0,0.0,0.0,0.0,0.0,0.0,0.0,0.0,0.0,0.0,0.0,0.0,0.0,0.0,0.0,0.0,2.3034,2.2323,2.0684,2.0605,2.0605,2.0605,2.0547,2.0556,2.0605,2.0605,2.1416,2.3034,2.3034,2.3053,2.3091,2.3091,2.3091,2.3091,2.3091,2.3091,2.3091,2.3091,2.3091,2.3091,2.3091,2.3091,2.3091,2.3091,2.3091,2.3091,0.0,0.0,0.0,0.0,0.0,0.0,0.0,0.0,0.0,0.0,0.0,0.0,0.0,0.0,0.0,0.4484,0.4344,0.5136,0.7225,0.7954,0.8298,0.8298,1.0791,1.148,0.997,0.0,0.0,0.0,0.0,0.0,0.0,0.0,0.0,0.0,1.3382,1.3333,1.2899,1.2899,0.0,0.0,1.2557,1.0573,0.0,0.0,0.0,0.0,0.0,1.024,0.0,0.0,0.9379,1.003,0.0,0.0,0.0,0.0,0.0,0.0,0.8798,0.0,0.0,0.0,0.0,0.0,1.0089,1.0385,1.078,0.0,0.0,0.0,0.0,0.0,0.0,0.0,0.0,0.0,0.0,0.0,0.0,0.0,0.0,0.0,0.0,0.0,0.0,0.0,2.1299,2.1084,2.0615,2.0605,2.0605,2.0605,1.9383,1.9316,2.0595,2.0605,2.083,2.1299,2.1299,2.1934,2.3091,2.3091,2.3091,2.3091,2.3091,2.3091,2.3091,2.3091,2.3091,2.3091,2.3091,2.3091,2.3091,2.3091,2.3091,2.3091,0.0,0.0,0.0,0.0,0.0,0.0,0.0,0.0,0.0,0.0,0.0,0.0,0.0,0.0,0.0,0.6294,0.6294,0.7008,0.8692,0.8798,0.9309,1.0464,1.2054,1.1616,0.8857,0.0,0.0,0.0,0.0,0.0,0.0,0.0,0.0,0.0,0.0,0.0,0.0,0.0,0.0,0.0,1.4851,0.0,0.0,1.2075,1.2577,0.0,0.0,0.0,1.1352,1.0002,1.0016,0.0,0.0,0.0,0.0,0.0,0.0,0.0,0.0,0.0,0.0,0.0,0.0,0.0,0.9895,0.9922,0.9855,0.0,0.0,0.0,0.0,0.0,0.0,0.0,0.0,0.0,0.0,0.0,0.0,0.0,0.0,0.0,0.0,2.0605,2.0605,2.0605,2.0605,2.0605,2.0605,2.0605,2.0605,2.0605,1.8915,1.8496,1.9511,1.952,1.9872,2.0605,2.0605,2.1114,2.2079,2.278,2.3091,2.3091,2.3091,2.3091,2.3091,2.3091,2.3091,2.3091,2.3091,2.3091,2.3091,2.3091,2.3091,2.3091,0.0,0.0,0.0,0.0,0.0,0.0,0.0,0.0,0.0,0.0,0.0,0.0,0.0,0.0,0.0,0.0,0.8976,0.8798,0.8798,0.8798,1.0028,1.2783,1.2899,1.176,0.9309,0.0,0.0,0.0,0.0,0.0,0.0,0.0,0.0,0.0,0.0,0.0,0.0,0.0,0.0,1.3169,1.6211,1.5723,0.0,0.0,1.4473,0.0,1.4873,1.5522,1.5171,1.1754,1.062,0.0,0.0,0.0,0.0,0.0,0.8905,0.0,0.0,0.0,0.0,0.0,0.0,0.0,0.9712,0.9312,0.8798,0.8798,1.2171,0.0,0.0,0.0,0.0,0.0,0.0,0.0,0.0,0.0,0.0,0.0,0.0,0.0,2.0605,2.0419,2.0312,2.0312,2.0312,2.0312,2.0312,2.0488,2.0507,2.0312,1.8809,1.7999,1.7999,1.7999,1.8867,2.0605,2.0605,2.0605,2.0644,2.2148,2.2819,2.2829,2.3024,2.3091,2.3091,2.3091,2.3091,2.3091,2.3091,2.3091,2.3091,2.3091,2.3091,2.3091,0.6337,0.0,0.0,0.0,0.0,0.0,0.0,0.0,0.0,0.0,0.0,0.0,0.0,0.0,0.0,0.0,1.0079,0.8798,0.8798,0.8798,1.0028,1.2783,1.2899,1.2652,1.211,0.9932,0.0,0.0,0.0,0.0,0.0,0.0,0.0,0.0,0.0,0.0,0.0,0.0,0.0,1.2958,1.3633,0.0,1.4951,1.5276,1.5198,1.4954,1.5286,1.6293,1.6792,0.0,1.0778,1.096,0.0,0.0,0.0,0.0,0.0,0.0,0.0,0.0,0.0,0.0,0.0,0.0,0.9025,0.8911,0.8798,0.0,1.1248,0.0,0.0,0.0,0.0,0.0,0.0,0.0,0.0,0.0,0.0,0.0,0.0,0.0,2.0605,1.9325,1.8506,1.8506,1.8506,1.8506,1.8506,1.9833,1.996,1.8555,1.8175,1.7999,1.7999,1.7999,1.8867,2.0605,2.0605,2.0605,2.0605,2.0948,2.1084,2.1162,2.2507,2.3091,2.3091,2.3091,2.3091,2.3091,2.3091,2.3091,2.3091,2.3091,2.3091,2.3091,0.7897,0.0,0.0,0.0,0.0,0.0,0.0,0.0,0.0,0.0,0.0,0.0,0.0,0.0,0.0,0.0,0.0,0.0,0.0,0.0,1.1457,1.2844,1.2899,1.2899,1.2899,1.1554,1.0169,0.0,0.0,0.0,0.0,0.0,0.0,0.0,0.0,0.0,0.0,0.0,1.1654,1.2899,1.2899,0.0,1.5396,1.5396,1.5396,1.5396,1.5396,1.5952,1.5991,1.1278,1.0386,0.0,0.0,1.0788,1.052,0.0,1.0182,0.9962,0.0,0.0,0.0,0.942,0.0,0.0,0.0,0.8225,0.8235,0.8699,0.99,1.1276,1.2652,0.0,0.0,0.0,0.0,0.0,0.0,0.0,0.0,0.0,0.0,0.0,1.9296,1.8516,1.7999,1.7999,1.8399,1.8467,1.8029,1.8837,1.8896,1.8029,1.7999,1.7999,1.7999,1.7999,1.8867,2.0605,2.0605,2.0605,2.0605,2.0605,2.0605,2.0654,2.1494,2.2333,2.3091,2.3091,2.3091,2.3091,2.3091,2.3091,2.3091,2.3091,2.3091,2.3091,0.8798,0.0,0.0,0.0,0.0,0.0,0.0,0.0,0.0,0.0,0.0,0.0,0.0,0.0,0.0,0.0,0.0,0.0,0.0,0.0,0.0,1.2899,1.2899,1.2899,1.2899,1.2385,1.1023,0.8798,0.0,0.0,0.0,0.0,0.0,0.0,0.0,0.0,0.0,0.0,0.0,1.2899,0.0,1.3896,1.5396,1.5396,1.5396,1.5396,1.5396,1.5396,1.4793,1.0809,0.0,1.1357,1.1431,1.1247,0.0,0.0,0.0,0.0,0.0,0.0,0.0,0.0,0.0,0.6837,0.0,0.0,0.0,0.8246,0.86,0.0,0.0,0.0,0.0,0.0,0.0,0.0,0.0,0.0,0.0,0.0,0.0,0.0,1.7472,1.7501,1.7638,1.7971,1.8496,1.8564,1.8029,1.7999,1.7999,1.7999,1.7999,1.8077,1.8243,1.8077,1.8711,2.0097,2.0439,2.0605,2.0605,2.0605,2.0605,2.0605,2.0605,2.1367,2.2634,2.2965,2.3091,2.3091,2.3091,2.3091,2.3091,2.3091,2.3091,2.3091,0.8798,0.8533,0.0,0.0,0.0,0.0,0.0,0.0,0.0,0.0,0.0,0.0,0.0,0.0,0.0,0.0,0.0,0.0,1.2899,0.0,0.0,1.2899,1.2899,1.2899,1.2899,1.0509,0.9113,0.8798,0.0,0.0,0.0,0.0,0.0,0.0,1.0028,0.0,0.0,0.0,1.0394,0.0,1.2899,1.3896,0.0,1.5396,1.5396,1.5396,1.5396,1.5396,1.504,0.0,1.1559,1.1204,0.0,1.1354,0.0,0.0,0.0,0.0,0.0,0.0,0.0,0.0,0.9492,0.0,0.0,0.0,0.7366,0.6942,0.0,0.0,0.0,0.0,0.0,0.0,0.0,0.0,0.0,0.0,0.0,0.0,0.0,0.0,0.0,1.5696,1.634,1.7874,1.7376,1.729,1.7961,1.7999,1.7999,1.7999,1.7999,1.837,1.914,1.8389,1.8097,1.8312,1.9862,2.0605,2.0605,2.0605,2.0605,2.0605,2.0605,2.0713,2.0996,2.2488,2.3091,2.3091,2.3091,2.3091,2.3091,2.3091,2.3091,2.3091,0.8798,0.7451,0.0,0.0,0.0,0.0,0.0,0.0,0.0,0.0,0.0,0.0,0.0,0.0,0.0,0.0,0.0,1.3942,0.0,0.0,0.0,0.0,1.2899,1.2899,1.2899,1.0208,0.8798,0.8798,0.8798,0.0,0.0,0.0,0.0,0.0,1.0052,0.0,0.8964,0.0,0.0,0.0,0.0,0.0,0.0,1.5396,1.5396,1.5396,1.5396,1.5396,1.5275,0.0,1.3068,0.0,0.0,0.0,0.0,0.0,0.0,0.0,0.0,0.0,0.0,0.0,0.0,0.0,0.7194,0.0,0.6817,0.0,0.0,0.0,0.0,0.0,0.0,0.0,1.2034,0.0,0.0,0.0,0.0,0.0,0.0,0.0,0.0,0.0,0.0,0.0,1.56,1.6547,1.7931,1.7999,1.7999,1.7999,1.7999,1.8175,1.8545,1.9189,1.9003,1.8009,1.874,1.83,1.6917,1.9452,2.0605,2.0605,2.0605,2.0605,2.0723,2.241,2.3091,2.3091,2.3091,2.3091,2.3091,2.3091,2.3091,2.3091,0.7624,0.0,0.0,0.0,0.0,0.0,0.0,0.0,0.0,0.0,0.0,0.0,1.3587,1.4007,0.0,0.0,0.0,1.4199,0.0,0.0,1.3587,1.3587,1.3587,0.0,0.0,1.0774,0.9299,0.9299,0.0,0.0,0.0,0.0,0.0,0.0,0.0,0.9929,0.9063,0.0,0.0,1.5288,1.4079,1.404,1.4759,1.5227,1.5396,1.5396,1.5396,1.5396,1.5396,1.5396,1.3813,0.0,1.1228,0.0,0.0,0.0,0.0,0.0,1.1451,0.0,0.0,0.0,0.0,0.0,0.0,0.0,0.0,0.0,0.0,0.0,0.0,0.0,0.0,0.0,0.0,1.3317,0.0,0.0,0.0,0.0,0.0,0.0,0.0,0.0,0.0,1.1865,1.2899,1.4667,1.715,1.7296,1.7511,1.798,1.7999,1.8077,1.8252,1.9344,1.9491,1.8692,1.786,1.6271,1.4208,1.7376,1.882,1.8879,2.0079,2.0605,2.0693,2.1914,2.241,2.2459,2.2926,2.3091,2.3091,2.3091,2.3091,2.3091,0.4639,0.4563,0.0,0.0,0.0,0.0,0.0,0.0,0.0,0.0,0.0,0.0,0.0,0.0,0.0,0.0,0.0,1.2958,1.2893,0.0,1.5325,1.5325,1.5325,1.5325,0.0,0.0,1.0539,1.0539,0.0,0.0,0.0,0.0,0.0,0.0,0.0,0.9929,0.8982,1.1795,1.3923,1.5403,1.5337,1.4385,1.3163,0.0,1.5396,1.5396,1.5396,0.0,0.0,1.5396,1.329,0.0,0.0,0.0,0.0,0.0,0.0,0.0,0.0,0.0,0.0,1.0759,0.0,0.0,0.0,0.0,0.8557,0.0,0.0,0.0,0.0,0.0,0.0,0.0,0.0,0.0,0.0,0.0,0.0,0.0,0.0,0.0,0.0,0.0,0.899,0.8936,0.8983,1.0908,1.5255,1.5474,1.6262,1.795,1.7999,1.8281,1.8865,1.835,1.8896,2.0478,1.7484,1.5374,1.4099,1.424,1.4313,1.4538,1.877,2.0605,2.0595,2.0664,2.0674,2.084,2.2469,2.3091,2.3091,2.3091,2.3091,2.3091,0.0,0.0,0.0,0.0,0.0,0.0,0.0,1.3192,0.0,0.0,0.0,0.0,0.0,0.0,1.9257,0.0,0.0,1.5789,1.4629,1.405,0.0,0.0,0.0,1.4258,0.0,0.0,0.0,0.0,0.0,0.0,0.0,0.0,0.0,0.0,0.0,0.9627,0.0,0.0,0.0,0.0,0.0,1.4401,1.2958,0.0,0.0,1.3893,1.5003,1.5396,0.0,1.5396,1.468,1.3471,1.1716,1.1032,1.0912,1.1122,1.1229,0.0,0.0,0.0,1.1317,1.1014,0.0,0.0,0.0,0.0,0.0,0.0,0.0,0.0,0.0,0.0,0.0,0.0,0.0,0.0,0.0,0.0,0.0,0.0,0.0,0.0,0.0,0.0,0.0,0.8798,0.8798,0.9453,1.0949,1.2759,1.4413,1.5895,1.728,1.8105,1.8301,1.8097,1.8301,1.8877,1.7822,1.7099,1.6625,1.4895,1.567,1.8481,1.9962,2.0605,2.0605,2.0605,2.0605,2.0664,2.1211,2.2118,2.3091,2.3091,2.3091,2.3091,0.6396,0.0,0.0,0.0,0.0,0.0,0.0,0.0,0.0,0.0,1.6484,0.0,1.7246,0.0,2.0146,0.0,1.8925,1.8456,1.7314,1.5075,0.0,1.5347,1.3786,0.0,0.0,0.0,0.0,0.0,0.0,1.4345,0.0,0.0,0.0,0.0,0.0,0.0,1.2333,0.0,1.3522,0.0,0.0,1.3857,0.0,0.0,1.4493,1.3046,0.0,1.4895,1.5396,1.5396,1.4641,1.3325,1.1249,1.0601,1.0601,1.0601,1.0838,1.1089,1.0962,1.1022,0.0,1.0954,1.0758,0.0,0.9433,0.0,0.0,0.0,0.0,0.0,0.0,0.0,0.0,0.0,0.0,0.0,0.0,0.8798,0.0,0.0,0.0,0.0,0.0,0.0,0.8798,0.8798,0.8798,0.8798,0.0,0.0,1.3319,1.4846,1.6618,1.7688,1.7999,1.7999,1.7999,1.7999,1.7999,1.7999,1.7903,1.5292,1.6486,2.0605,2.0605,2.0605,2.0605,2.0605,2.0605,2.0605,2.0605,2.1621,2.3091,2.3091,2.3091,2.3091,0.0,0.0,0.0,0.0,0.8018,0.0,0.0,0.0,1.5461,0.0,1.8612,2.0693,2.0605,2.0605,2.0605,2.0605,2.0605,0.0,2.0605,1.742,0.0,0.0,1.4056,1.3861,1.5374,0.0,0.0,0.0,0.0,0.0,0.0,0.0,0.0,0.0,1.0601,0.0,1.5061,1.3536,1.2899,1.2899,1.2899,1.2899,1.3437,1.8355,1.7173,1.2899,1.2899,1.3923,1.5286,1.5366,1.337,1.0815,1.0648,1.0601,1.0601,1.0601,1.0601,1.0601,1.0601,1.0601,1.0601,1.0601,0.0,0.0,0.0,0.0,0.9867,0.0,0.0,0.0,0.0,0.0,0.0,0.0,0.0,0.0,0.0,0.0,0.0,0.0,0.0,0.0,0.0,1.0399,0.885,0.8798,0.8798,0.8804,0.0,0.0,1.2833,1.4721,1.5983,1.7074,1.7991,1.7914,1.7914,1.7999,1.7999,1.7999,1.792,1.5424,1.6476,2.0294,2.0508,2.0605,2.0605,2.0605,2.0605,2.0615,2.0684,2.1699,2.3091,2.3091,2.3091,2.3091,1.0144,0.9665,0.9214,0.0,0.9904,1.1686,0.0,0.0,0.0,0.0,2.1133,2.1982,2.0742,2.0605,2.0605,2.0605,2.0605,0.0,0.0,0.0,0.0,1.9217,1.7616,1.6289,1.5422,1.4186,0.0,1.5396,0.0,0.0,1.533,0.0,0.0,0.0,0.0,0.0,1.1882,1.2601,1.2899,1.2899,1.2899,1.2899,0.0,0.0,1.4053,1.2899,1.2899,1.3183,1.3727,1.4983,1.485,1.3755,1.1351,1.0601,1.0601,1.0601,1.0601,1.0601,1.0601,1.0601,1.0601,1.0601,1.0601,1.068,0.0,0.0,0.0,0.0,0.0,0.0,0.0,0.0,0.0,0.0,0.0,0.0,0.0,0.0,0.0,1.0878,0.0,0.0,1.0823,1.025,0.9549,0.885,0.8798,0.8885,0.9091,0.0,0.0,1.298,1.4698,1.636,1.7982,1.662,1.662,1.7999,1.7999,1.7999,1.7975,1.7303,1.6548,1.5949,1.9186,2.0605,2.0605,2.0605,2.0605,2.0723,2.1962,2.2722,2.3091,2.3091,2.3091,2.3091,1.0601,0.0,0.0,1.0601,0.0,0.0,1.4908,0.0,0.0,2.0134,2.1423,0.0,2.0703,2.0605,2.0605,2.0605,2.0605,0.0,2.0605,0.0,0.0,2.0566,1.8935,1.7532,1.6564,1.4863,0.0,1.5396,0.0,0.0,1.533,0.0,0.0,0.0,0.0,1.0601,0.0,1.225,1.2899,1.2899,1.2899,0.0,0.0,1.2899,1.3352,1.3991,1.3991,1.3519,1.3046,1.3991,1.4307,1.4123,1.304,1.1733,1.0601,1.0601,1.0601,1.0601,1.0601,1.096,1.1221,1.072,1.0601,1.068,1.0977,1.1615,1.2343,0.0,0.0,0.0,0.0,0.0,0.0,0.0,0.0,0.0,0.0,0.0,0.0,0.0,1.0623,0.0,1.045,0.9929,0.9367,0.8837,0.8965,0.9105,0.9197,0.0,0.0,1.2349,1.4017,1.5503,1.6768,1.488,1.5296,1.8009,1.8769,1.874,1.7999,1.7999,1.6568,1.4338,1.871,2.0605,2.0605,2.0605,2.1026,2.1787,2.2731,2.3091,2.3091,2.3091,2.3091,2.3091,0.0,0.0,0.0,0.0,0.0,0.0,0.0,1.6076,0.0,1.9578,0.0,2.0087,2.0556,2.0605,2.0605,2.0605,0.0,2.0605,2.0605,2.0605,2.0605,2.0605,1.8935,1.7999,1.7999,1.6291,0.0,0.0,0.0,0.0,0.0,0.0,0.0,0.0,0.0,0.0,0.0,1.2656,1.3104,1.2899,1.2899,1.2899,1.2919,1.3137,1.4131,1.5396,1.5396,1.4463,1.3196,1.2971,1.2899,1.3147,1.4612,1.2912,1.04,1.0546,1.0601,1.0601,1.0601,1.132,1.1839,1.0847,1.0601,1.0601,1.0601,1.1919,1.3283,1.3787,1.3804,1.3971,0.0,0.0,0.0,0.0,0.0,0.0,0.0,0.0,0.0,0.0,0.0,0.0,1.0728,0.9685,0.8937,0.8811,0.9118,0.9292,0.9231,0.0,0.0,1.2193,1.3478,1.4452,1.5053,0.0,1.4122,1.751,1.96,1.9804,1.8341,1.8341,1.6794,1.4338,1.871,2.0605,2.0605,2.0605,2.1592,2.3091,2.3091,2.3091,2.3091,2.3091,2.3091,2.3091,0.0,0.0,0.0,0.0,0.0,1.5718,1.9155,1.9686,1.8876,1.6612,1.6315,1.7411,2.0292,2.0605,2.0605,2.0605,2.0605,0.0,0.0,0.0,0.0,2.0605,1.8935,1.7999,1.7999,1.6291,1.472,0.0,0.0,0.0,0.0,0.0,0.0,0.0,0.0,0.0,1.4578,1.4852,0.0,1.2899,1.2899,1.2899,1.3049,1.444,1.5142,1.5396,1.5396,1.521,1.4749,1.3368,1.2899,1.2948,1.3251,1.1388,0.9312,1.0305,1.0601,1.0601,1.0601,1.0748,1.0847,1.0648,1.0601,1.0601,1.0601,1.2852,1.4817,1.4377,1.4449,1.4629,1.4771,0.0,0.0,0.0,0.0,0.0,0.0,0.0,0.0,0.0,0.0,1.0494,0.0,1.0238,0.9693,0.8864,0.8864,0.9038,0.9352,0.0,0.0,0.0,1.1967,0.0,0.0,0.0,1.3625,1.4823,1.8744,2.0439,2.0136,2.0136,1.793,1.4338,1.871,2.0605,2.0605,2.0605,2.1592,2.3091,2.3091,2.3091,2.3091,2.3091,2.3091,2.3091,0.0,0.0,0.0,0.0,0.0,0.0,0.0,2.0605,0.0,1.8318,1.8103,1.8738,2.0429,2.0605,2.0605,2.0605,2.0605,2.0605,2.0605,2.0605,2.0195,1.9286,1.8447,0.0,1.7999,1.6291,1.458,1.2899,0.0,0.0,0.0,0.0,0.0,0.0,0.0,1.3949,0.0,0.0,0.0,1.2899,1.2899,1.3421,1.4287,1.509,1.5396,1.5396,1.5396,1.4837,1.4108,1.4186,1.362,1.2899,1.2899,1.1437,0.9848,1.0425,1.0601,1.0601,1.0601,1.0601,1.0601,1.0601,1.0601,1.1044,1.271,1.4284,1.5312,1.4995,1.502,1.4918,1.4284,1.2935,0.0,0.0,0.0,0.0,0.0,0.0,0.0,0.0,0.0,0.0,0.0,0.0,0.0,0.0,0.0,0.8975,0.9379,0.0,0.0,0.0,0.0,0.0,0.0,0.0,0.0,1.7498,1.9599,2.0605,2.0605,2.0605,1.9462,1.7457,1.7295,1.8511,2.0674,2.1543,2.2371,2.3091,2.3091,2.3091,2.3091,2.3091,2.3091,2.3091,0.0,1.2611,0.0,0.0,1.8596,0.0,2.0439,2.0908,2.0996,2.0654,2.0605,2.0605,2.0605,2.0605,2.0605,2.0605,2.0605,2.0605,2.0605,2.0605,1.9814,1.8077,1.7999,1.7999,1.7999,1.6291,1.4749,0.0,0.0,0.0,0.0,0.0,0.0,0.0,0.0,0.0,0.0,0.0,1.3104,1.3424,1.3424,1.4219,1.5396,1.5396,1.5396,1.5396,1.5396,1.4316,1.3163,1.4837,1.4515,1.3424,1.3424,1.2134,1.0728,1.1421,1.1616,1.1554,1.1194,1.1107,1.1151,1.134,1.1253,1.191,1.4979,1.563,1.5627,1.5737,1.5647,1.5198,1.4052,1.2902,0.0,0.0,0.0,0.0,0.0,0.0,0.0,0.0,0.0,0.0,0.9657,0.0,0.0,0.0,0.0,0.8998,0.9441,0.9722,1.0104,0.0,0.0,1.1686,1.2291,0.0,1.6705,1.9225,2.0157,2.0605,2.0605,2.0605,2.0605,2.0362,1.5982,1.657,2.0723,2.241,2.3091,2.3091,2.3091,2.3091,2.3091,2.3091,2.3091,2.3091,0.0,0.0,0.0,0.0,0.0,0.0,2.0811,2.1894,2.2313,2.0801,2.0605,2.0605,2.0605,2.0605,2.0605,2.0605,2.0605,2.0605,2.0605,2.0605,1.9814,1.8077,1.7999,1.7999,1.7999,1.6291,1.5325,0.0,0.0,0.0,0.0,0.0,0.0,0.0,0.0,0.0,0.0,1.3616,1.3783,1.5169,1.5169,1.5256,1.5396,1.5396,1.5396,1.5396,1.5396,1.4316,1.3163,1.4837,1.5305,1.5169,1.5169,1.3065,1.117,1.4083,1.4955,1.4627,1.3167,1.278,1.2965,1.3761,1.3361,1.3444,1.6003,1.6389,1.6348,1.6841,1.6463,1.5744,1.4769,1.367,1.2711,0.0,0.0,0.0,0.0,0.0,0.0,0.0,0.0,0.0,0.0,0.8871,0.0,0.0,0.8805,0.9052,0.9645,0.9538,0.9808,1.0581,0.0,1.1686,1.2291,1.3601,1.4411,1.4762,1.871,2.0605,2.0605,2.0605,2.0605,2.0362,1.5982,1.657,2.0723,2.241,2.3091,2.3091,2.3091,2.3091,2.3091,2.3091,2.3091,2.3091,0.0,0.0,0.0,0.0,0.0,0.0,0.0,2.1816,2.1719,2.206,2.1211,2.0605,2.0605,2.0605,2.0605,2.0605,2.0605,2.0605,2.0605,1.9618,1.873,1.8029,1.7999,1.7999,1.7999,1.6291,1.5396,0.0,0.0,0.0,0.0,0.0,0.0,0.0,0.0,1.5396,1.5364,1.4681,1.4795,1.5396,1.5396,1.5396,1.5396,1.5396,1.5396,1.5396,1.5396,1.4964,1.4502,1.5178,1.5396,1.5396,1.5396,1.4523,1.3732,1.5028,1.4717,1.4034,1.4345,1.4443,1.4651,1.5524,1.5479,1.5442,1.627,1.6375,1.6258,1.6108,1.6092,1.5649,1.4191,1.3778,1.318,0.0,0.0,0.0,0.0,0.0,0.0,0.0,0.0,0.0,0.0,0.0,0.0,0.0,0.0,0.7925,0.7846,0.906,1.0329,1.1581,0.0,1.2402,1.3367,1.3858,1.4099,1.4145,1.8521,2.0605,2.0605,2.0605,2.0605,2.0362,1.5982,1.7138,2.2148,2.2819,2.3091,2.3091,2.3091,2.3091,2.3091,2.3091,2.3091,2.3091,2.0733,0.0,2.3091,0.0,2.3091,2.3091,2.3091,2.2109,2.1758,2.2946,2.1631,2.0605,2.0605,2.0605,2.0605,2.0605,2.0605,2.0605,2.0605,1.9452,1.8535,1.8029,1.7999,0.0,1.7999,1.6791,1.5913,1.5396,1.5396,0.0,0.0,0.0,0.0,0.0,1.4745,1.5396,1.5396,1.5396,1.5396,1.5396,1.5396,1.5396,1.5396,1.5396,1.5396,1.5396,1.5396,1.5396,1.5396,1.5396,1.5396,1.5396,1.5396,1.5396,1.5396,1.5396,1.4599,1.3951,1.5094,1.55,1.5752,1.6369,1.6617,1.6685,1.6639,1.6619,1.6502,1.6084,1.6246,1.5997,1.4432,1.4122,1.3539,1.1841,0.0,0.0,0.0,0.0,0.0,0.0,1.1854,1.1059,0.9362,0.9117,0.0,0.0,0.0,0.0,0.7422,0.9006,0.0,0.0,0.0,0.0,0.0,1.4099,1.4266,1.4651,1.9179,2.1075,2.0605,2.0605,2.0869,2.1157,1.8077,1.9153,2.3091,2.3091,2.3091,2.3091,2.3091,2.3091,2.3091,2.3091,2.3091,2.3091,2.3062,2.3092,2.3091,2.3091,2.3091,2.3091,2.3091,2.3081,2.3082,2.3091,2.1631,2.0605,2.0605,2.0605,2.0605,2.0605,2.0605,2.0605,2.0605,2.0576,1.9804,0.0,0.0,1.7999,1.7999,1.798,1.7122,1.5396,0.0,0.0,1.2278,0.0,1.2305,1.5366,1.5391,1.5396,1.5396,1.5396,1.5396,1.5396,1.5396,1.5396,1.5396,1.5396,1.5396,1.5396,1.5396,1.5396,1.5396,1.5396,1.5396,1.5396,1.5396,1.5396,1.5396,1.5396,1.5388,1.5381,1.5388,1.5737,1.6085,1.6095,1.6414,1.6822,1.7284,1.7389,1.738,1.738,1.738,1.7064,1.6063,1.4896,1.3834,1.3017,0.0,0.0,0.0,0.0,0.0,0.0,1.1555,1.0748,0.9334,0.9499,0.0,0.0,0.0,0.0,0.0,0.0,0.0,1.0601,1.1706,0.0,1.4085,1.4099,1.4669,1.5841,2.0729,2.2206,2.0605,2.0605,2.1494,2.3062,2.3007,2.3028,2.3091,2.3091,2.3091,2.3091,2.3091,2.3091,2.3091,2.3091,2.3091,2.3091,2.3091,2.3091,2.3091,2.3091,2.3091,2.3091,2.3091,2.3091,2.2693,2.1553,2.0928,2.0605,2.0605,2.0605,2.0605,0.0,2.0605,2.0605,0.0,2.0605,1.9814,1.8077,1.7999,1.7999,1.7999,1.7999,1.715,1.5396,0.0,0.0,0.0,1.3021,1.4419,1.5396,1.5396,1.5396,1.5396,1.5396,1.5396,1.5396,1.5396,1.5396,1.5396,1.5396,1.5396,1.5396,1.5396,1.5396,1.5396,1.5396,1.5396,1.5396,1.5396,1.5396,1.5396,1.5396,1.5396,1.5396,1.5396,1.574,1.6163,1.6445,1.6615,1.6822,1.7293,1.7148,1.6927,1.6927,1.6927,1.6363,1.4525,1.4289,1.3937,1.2637,1.2955,0.0,0.0,0.0,0.0,0.0,1.1945,1.1163,0.0,0.9912,0.0,0.0,0.0,0.0,0.0,0.0,0.0,0.0,1.1495,0.0,1.4085,1.4099,1.4676,1.5861,2.0764,2.2226,2.0644,2.1787,2.2596,2.3091,2.3091,2.121,1.8376,2.1721,2.3091,2.3091,2.3091,2.3091,2.3091,2.3091,2.3091,2.3091,2.3091,2.3091,2.3091,2.3091,2.3091,2.3091,2.3091,2.3091,2.2498,2.082,2.0605,2.0605,2.0605,2.0605,0.0,2.0605,2.0605,2.0605,2.0605,1.9989,1.914,1.8048,1.7999,1.7999,1.7999,0.0,0.0,1.6379,1.4508,1.3197,1.2451,1.4464,1.5396,1.5396,1.5396,1.5396,1.5396,1.5396,1.5396,1.5396,1.5396,1.5396,1.5396,1.5396,1.5396,1.5396,1.5396,1.5396,1.5396,1.5396,1.5396,1.5396,1.5396,1.5396,1.5396,1.5396,1.5396,1.5396,1.5396,1.585,1.6346,1.6455,1.683,1.7261,1.7559,1.7404,1.7192,1.7192,1.7005,1.6385,1.4882,1.4832,1.4563,1.3135,1.3493,1.3875,1.3734,0.0,0.0,0.0,0.0,0.0,0.0,1.0507,1.0251,0.0,0.0,0.0,0.0,0.0,0.0,0.9999,1.1513,0.0,1.4085,1.4099,1.4676,1.5861,2.0764,2.2547,2.1562,2.2625,2.3091,2.3091,2.3091,2.1367,1.8779,2.1832,2.3091,2.3091,2.3091,2.3091,2.3091,2.3091,2.3091,2.3091,2.3091,2.3091,0.0,0.0,2.3091,0.0,2.3091,2.3091,2.2498,2.082,2.0605,2.0605,2.0605,2.0605,2.0605,2.0605,0.0,0.0,0.0,1.8974,1.7999,1.7999,1.7999,1.7999,1.7999,1.7999,1.7941,1.7824,1.3196,1.2466,1.5396,1.5396,1.5396,1.5396,1.5396,1.5396,1.5396,1.5396,1.5396,1.5396,1.5396,1.5396,1.5396,1.5396,1.5396,1.5396,1.5396,1.5396,1.5396,1.5396,1.5396,1.5396,1.5396,1.5415,1.5435,1.5405,1.5415,1.5452,1.5452,1.6081,1.6664,1.6283,1.7117,1.804,1.804,1.804,1.803,1.8009,1.7533,1.7005,1.6606,1.6162,1.5476,1.4337,1.4099,1.3826,1.3173,0.0,0.0,0.0,0.0,0.0,0.0,1.1184,1.0658,0.0,0.0,0.0,0.0,0.0,0.8703,1.0411,1.1701,1.2919,1.4085,1.4179,1.4756,1.5861,2.0764,2.3091,2.3091,2.3091,2.3091,2.3091,2.3091,2.3091,2.3091,2.3091,2.3091,2.3091,2.3091,2.3091,2.3091,2.3091,2.3091,2.3091,0.0,0.0,2.3091,2.3091,2.3091,2.3091,2.3091,2.3091,2.2498,2.082,2.0605,2.0605,2.0605,2.0605,2.0605,2.0605,2.0605,2.0605,2.0605,1.8974,1.7999,1.7999,1.7999,1.7999,1.7999,1.7999,1.7345,1.6018,1.4837,1.4649,1.5396,1.5396,1.5396,1.5396,1.5396,1.5396,1.5396,1.5396,1.5396,1.5396,1.5396,1.5396,1.5396,1.5396,1.5396,1.5396,1.5396,1.5396,1.5396,1.5396,1.5396,1.5396,1.5396,1.5652,1.5855,1.5508,1.5644,1.5931,1.5931,1.6568,1.7205,1.7124,1.7775,1.846,1.846,1.846,1.8372,1.8059,1.7641,1.7011,1.5949,1.5584,1.5282,1.4786,1.4612,1.4599,1.4787,1.3862,0.0,0.0,1.1997,1.1252,1.1112,1.1169,1.0462,0.0,0.0,0.0,0.0,0.6654,0.7696,0.9026,1.1623,1.3347,1.4092,1.4959,1.5535,1.5861,2.0764,2.3091,2.3091,2.3091,2.3091,2.3091,2.3091,2.3091,2.3091,2.3091,2.3091,2.3091,2.3091,2.3091,2.3091,2.3091,2.3091,2.3091,2.3091,2.3091,2.3091,2.3091,2.3091,2.3091,2.3091,2.3091,2.2498,2.082,2.0605,2.0605,2.0605,2.0605,2.0605,2.0605,2.0605,2.0263,1.9462,1.8525,1.7999,1.7999,1.7999,1.7999,1.7999,1.7999,1.715,1.5396,1.5396,1.5396,1.5396,1.5396,1.5396,1.5396,1.5396,1.5396,1.5396,1.5396,1.5396,1.5396,1.5396,1.5396,1.5396,1.5396,1.5396,1.5396,1.5396,1.5396,1.5396,1.5396,1.5396,1.5452,1.5715,1.5992,1.6165,1.603,1.6174,1.6367,1.6367,1.6873,1.744,1.7635,1.8137,1.8598,1.8598,1.886,1.8954,1.8385,1.8178,1.7655,1.6259,1.5974,1.5748,1.5177,1.4886,1.4715,1.4592,1.3735,0.0,1.2789,1.2198,1.1806,1.1806,1.2039,1.1313,0.9193,0.9324,0.0,0.6432,0.7871,0.9161,1.0036,1.029,1.1726,1.4482,1.5366,1.5808,1.5861,2.0764,2.193,1.9841,2.2074,2.3091,2.3091,2.3091,2.3091,2.3091,2.3091,2.3091,2.3091,2.3091,2.3091,2.3091,2.3091,2.3091,2.3091,2.3091,2.3091,2.3091,2.3091,2.3091,2.3091,2.3091,2.3091,2.2498,2.082,2.0605,2.0605,2.0605,2.0605,2.0605,2.0605,2.0605,1.9862,1.8107,1.7999,1.7999,1.7999,1.7999,1.7999,1.7999,1.7745,1.6879,1.5396,1.5396,1.5396,1.5396,1.5396,1.5396,1.5396,1.5396,1.5396,1.5396,1.5396,1.5396,1.5396,1.5396,1.5396,1.5396,1.5396,1.5396,1.5396,1.5396,1.5396,1.5396,1.5396,1.5513,1.5757,1.6375,1.6512,1.6512,1.6742,1.6851,1.6882,1.6814,1.7189,1.7656,1.8009,1.8449,1.8801,1.8801,1.9275,1.9551,1.8929,1.888,1.8537,1.7158,1.6845,1.6546,1.5753,1.5145,1.4549,1.3887,0.0,1.2734,1.228,1.2388,1.2525,1.2565,1.3207,1.2473,0.9731,1.017,0.9582,0.7323,0.9604,1.1421,1.2366,0.9733,1.0485,1.5079,1.5573,1.5808,1.5849,2.0011,1.9818,1.5967,2.0865,2.3091,2.3091,2.3091,2.3091,2.3091,2.3091,2.3091,2.3091,2.3091,2.3091,2.3091,2.3091,2.3091,2.3091,2.3091,2.3091,2.3091,2.3091,2.3091,2.3091,2.3091,2.3091,2.2498,2.082,2.0605,2.0605,2.0605,2.0605,2.0605,2.0605,2.0605,1.9862,1.8107,1.7999,1.7999,1.7999,1.7999,1.7999,1.7999,1.6564,1.5669,1.5396,1.5396,1.5396,1.5396,1.5396,1.5396,1.5396,1.5396,1.5396,1.5396,1.5396,1.5396,1.5396,1.5396,1.5396,1.5396,1.5396,1.5396,1.5396,1.5396,1.5396,1.5396,1.5396,1.6042,1.6941,1.755,1.75,1.7243,1.7282,1.7529,1.7726,1.7383,1.7843,1.8431,1.849,1.9113,1.9698,1.9698,1.9783,1.984,1.9727,1.9443,1.9044,1.8411,1.7732,1.7235,1.7094,1.5752,1.4712,1.4705,0.0,1.3364,1.3282,1.3341,1.3514,1.3791,1.3687,1.2762,1.0725,1.0483,1.0162,0.9529,1.0083,1.1894,1.5073,1.4267,1.4392,1.5661,1.5761,1.5808,1.5808,1.6572,1.6544,1.5967,2.0865,2.3091,2.3091,2.3091,2.3091,2.3091,2.3091,2.3091,2.3091,2.3091,2.3091,2.3091,2.3091,2.3091,2.3091,2.3091,2.3091,2.3091,2.3091,2.3091,2.2801,2.1894,2.1758,2.1475,2.0693,2.0605,2.0605,2.0605,2.0605,2.0605,2.0605,1.9745,1.9257,1.9384,1.8525,1.7999,1.7999,1.7999,1.7999,1.7999,1.6291,1.5396,1.5396,1.5396,1.5396,1.5396,1.5396,1.5903,1.6799,1.6799,1.6799,1.674,1.5803,1.5396,1.5396,1.5396,1.5396,1.5396,1.5396,1.5396,1.5522,1.6459,1.6799,1.6799,1.6799,1.7152,1.7631,1.7911,1.7872,1.7715,1.7715,1.7843,1.8009,1.8038,1.8507,1.8975,1.8975,1.9444,1.9903,1.9903,2.0098,2.0205,1.9951,1.9951,1.9794,1.9102,1.8282,1.7793,1.8009,1.6648,0.0,0.0,1.4273,1.3682,1.3571,1.3872,1.4225,1.4551,1.4436,1.3436,1.1224,1.0957,1.0588,0.9929,1.0625,1.2075,1.4328,1.5067,1.5546,1.5801,1.5808,1.5808,1.5808,1.5808,1.5808,1.5884,1.8141,2.0609,2.3091,2.3091,2.3091,2.3091,2.3091,2.3091,2.3091,2.3091,2.3091,2.3091,2.3091,2.3091,2.3091,2.3091,2.3091,2.3091,2.3091,2.278,2.209,2.0801,2.0605,2.0605,2.0605,2.0605,2.0605,2.0605,2.0605,2.0605,2.0605,1.9383,1.9169,2.0507,1.8974,1.7999,1.7999,1.7999,1.7999,1.7999,1.6691,1.6,1.6,1.6,1.5803,1.5405,1.5815,1.6498,1.7394,1.7394,1.7394,1.7306,1.5969,1.5396,1.5396,1.5396,1.5396,1.5396,1.5396,1.5649,1.6135,1.7062,1.7658,1.7999,1.7999,1.7999,1.7999,1.7999,1.7999,1.8038,1.8243,1.8351,1.8449,1.8703,1.9092,1.9472,1.957,1.9824,2.0117,2.0313,2.0557,2.0664,2.042,2.0557,2.0508,1.9745,1.8887,1.8321,1.8375,0.0,0.0,0.0,1.4417,1.3912,1.3822,1.4347,1.4825,1.5148,1.5186,1.4135,1.1632,1.1435,1.11,1.0333,1.1223,1.2373,1.3764,1.5099,1.5808,1.5808,1.5808,1.5808,1.5813,1.6953,1.6894,1.5837,1.6988,1.9548,2.3091,2.3091,2.3091,2.3091,2.3091,2.3091,2.3091,2.3091,2.3091,2.3091,2.3091,2.3091,2.3091,2.3091,2.3091,2.3091,2.3091,2.1816,2.0742,2.0625,2.0605,2.0605,2.0605,2.0605,2.0605,2.0605,2.0605,2.0605,2.0605,2.0478,2.0459,2.0586,1.8974,1.7999,1.7999,1.7999,1.7999,1.7999,1.7872,1.7814,1.7814,1.7814,1.6976,1.5442,1.7044,1.7023,1.5591,1.5591,1.5591,1.5581,1.5444,1.5396,1.5396,1.5396,1.5396,1.5396,1.5396,1.64,1.7619,1.6125,1.6633,1.7999,1.7999,1.7999,1.7999,1.7999,1.7999,1.8155,1.8974,1.9385,1.9532,1.9307,1.9551,1.9961,2.04,2.0537,2.0762,2.1573,2.1445,2.1269,2.167,2.1435,2.1015,2.0576,1.9784,1.889,1.7916,0.0,0.0,1.4741,1.4318,1.4165,1.4411,1.497,1.5433,1.5715,1.5741,1.4667,1.2057,1.1863,1.182,1.175,1.1828,1.3031,1.5534,1.573,1.5808,1.5808,1.5808,1.5808,1.5849,2.0395,2.0192,1.5955,2.0486,2.2764,2.3091,2.3091,2.3091,2.3091,2.3091,2.3091,2.3091,2.3091,2.3091,2.3091,2.3091,2.3091,2.3091,2.3091,2.3091,2.3091,2.3091,2.1709,2.0605,2.0605,2.0605,2.0605,2.0605,2.0605,2.0605,2.0605,2.0605,2.0605,2.0605,2.0605,2.0605,2.0605,1.8974,1.7999,1.7999,1.7999,1.7999,1.7999,1.7999,1.7999,1.7999,1.6926,1.6596,1.7004,1.6576,1.6605,1.6965,1.5881,1.5396,1.5396,1.5396,1.5396,1.5493,1.6584,1.7013,1.7013,1.7013,1.7423,1.7911,1.7248,1.7443,1.7999,1.7999,1.7999,1.7999,1.7999,1.8732,1.968,2.0017,2.0185,2.0244,2.0126,1.9943,1.9964,2.0771,2.1323,2.17,2.186,2.1963,2.1992,2.1904,2.1963,2.1884,2.1475,2.0898,2.0177,1.9272,0.0,1.5854,1.5842,1.5436,1.5126,1.5064,1.5406,1.5693,1.5795,1.5808,1.4723,1.2103,1.2673,1.2782,1.1933,1.3439,1.477,1.5772,1.5808,1.5808,1.5808,1.5808,1.5808,1.5861,2.0764,2.0542,1.5967,2.0865,2.3091,2.3091,2.3091,2.3091,2.3091,2.3091,2.3091,2.3091,2.3091,2.3091,2.3091,2.3091,2.3091,2.3091,2.3091,2.2684,2.2313,2.2313,2.1367,2.0605,2.0605,2.0605,2.0605,2.0605,2.0605,2.0605,2.0605,2.0605,2.0605,2.0605,2.0605,2.0605,2.0605,1.8974,1.8243,1.8789,1.8817,1.8564,1.8009,1.7999,1.7999,1.7999,1.68,1.6828,1.796,1.6223,1.633,1.795,1.6742,1.5913,1.5442,1.5981,1.5903,1.5503,1.6701,1.7511,1.7999,1.7999,1.7999,1.7999,1.7999,1.7999,1.7999,1.7999,1.7999,1.8105,1.8643,1.9633,2.0609,2.0603,2.0605,2.06,2.0604,2.0498,2.0527,2.1119,2.1787,2.23,2.2282,2.2392,2.246,2.2314,2.2402,2.2421,2.2139,2.1718,2.0994,1.9706,1.7956,1.6631,1.6263,1.5907,1.5634,1.5539,1.5693,1.5808,1.5808,1.5808,1.489,1.2685,1.338,1.35,1.2576,1.4609,1.5808,1.5808,1.5808,1.5808,1.5808,1.5808,1.5808,1.5861,2.0764,2.1344,1.8211,2.1567,2.3091,2.3091,2.3091,2.3091,2.3091,2.3091,2.3091,2.3091,2.3091,2.3091,2.3091,2.3091,2.3091,2.3091,2.3081,2.1738,2.0605,2.0605,2.0605,2.0605,2.0605,2.0605,2.0605,2.0605,2.0605,2.0605,2.0605,2.0605,2.0605,2.0605,2.0605,2.0605,2.0605,1.8984,1.8789,2.0517,2.0595,1.9774,1.8038,1.7999,1.7999,1.7999,1.7999,1.7999,1.796,1.6225,1.6332,1.7999,1.7999,1.7043,1.5532,1.7267,1.7004,1.5415,1.5415,1.6457,1.7999,1.7999,1.7999,1.7999,1.7999,1.7999,1.7999,1.7999,1.8009,1.8321,2.0048,2.0617,2.0623,2.0619,2.0628,2.0624,2.0598,2.1247,2.1834,2.1488,2.1864,2.2459,2.298,2.2791,2.2615,2.3024,2.278,2.2498,2.2498,2.2178,2.1129,1.8789,1.8402,1.7694,1.5695,1.5398,1.5493,1.5775,1.5808,1.5808,1.5808,1.5808,1.5266,1.3998,1.3902,1.3902,1.3914,1.5104,1.5808,1.5808,1.5808,1.5808,1.5808,1.5808,1.5808,1.5861,2.0764,2.3091,2.3091,2.3091,2.3091,2.3091,2.3091,2.3091,2.3091,2.3091,2.3091,2.3091,2.3091,2.3091,2.3091,2.3091,2.3091,2.3091,2.1582,2.0938,2.0605,2.0605,2.0605,2.0605,2.0605,2.0605,2.0605,2.0605,2.0605,2.0605,2.0605,2.0605,2.0605,2.0605,2.0605,2.0605,2.0605,2.0107,2.0058,2.0586,1.9432,1.8535,1.8009,1.7999,1.7999,1.7999,1.7999,1.7999,1.799,1.7472,1.7493,1.7999,1.7999,1.7716,1.7267,1.7785,1.7697,1.722,1.722,1.754,1.7999,1.7999,1.7999,1.7999,1.7999,1.7999,1.7999,1.7999,1.8809,1.9921,2.0439,2.1404,2.2351,2.2342,2.2344,2.2094,2.0913,2.1643,2.2635,2.2148,2.2448,2.2897,2.3059,2.3014,2.2967,2.3082,2.3004,2.2917,2.2917,2.213,2.097,1.9413,1.8462,1.7388,1.5896,1.5675,1.5708,1.5795,1.5808,1.5808,1.5808,1.5808,1.5266,1.3998,1.3902,1.4292,1.5194,1.5593,1.5808,1.5808,1.5808,1.5808,1.5808,1.5808,1.5808,1.5861,2.0764,2.3091,2.3091,2.3091,2.3091,2.3091,2.3091,2.3091,2.3091,2.3091,2.3091,2.3091,2.3091,2.3091,2.3091,2.3091,2.3091,2.3091,2.1787,2.1055,2.0605,2.0605,2.0605,2.0605,2.0605,2.0605,2.0605,2.0605,2.0605,2.0605,2.0605,2.0605,2.0605,2.0605,2.0605,2.0605,2.0605,2.0605,2.0605,2.0605,1.9589,1.9032,1.9032,1.8351,1.7999,1.7999,1.7999,1.7999,1.7999,1.7999,1.7999,1.7999,1.7999,1.7999,1.7999,1.7999,1.7999,1.7999,1.7999,1.7999,1.8077,1.8778,1.9032,1.9032,1.9032,1.9032,1.9032,1.9032,1.9726,2.0605,2.0605,2.1748,2.3091,2.3091,2.3101,2.288,2.1852,2.2329,2.3015,2.27,2.2857,2.3095,2.3096,2.3091,2.3091,2.3091,2.3091,2.3091,2.3091,2.2109,2.0901,1.9693,1.8492,1.726,1.5979,1.5808,1.5808,1.5808,1.5808,1.5856,1.6021,1.6013,1.568,1.4914,1.4854,1.513,1.5772,1.5808,1.5808,1.5808,1.5808,1.5808,1.5808,1.5808,1.6765,1.8721,2.1687,2.3091,2.3091,2.3091,2.3091,2.3091,2.3091,2.3091,2.3091,2.3091,2.3091,2.3091,2.3091,2.3091,2.3091,2.3091,2.3091,2.3091,2.3091,2.1748,2.0605,2.0605,2.0605,2.0605,2.0605,2.0605,2.0605,2.0605,2.0605,2.0605,2.0605,2.0605,2.0605,2.0605,2.0605,2.0605,2.0605,2.0605,2.0605,2.0605,2.0605,2.0605,2.0605,1.8887,1.7999,1.7999,1.7999,1.7999,1.7999,1.7999,1.7999,1.8009,1.8165,1.8146,1.8009,1.8174,1.8224,1.8224,1.8224,1.8224,1.8408,1.9999,2.0605,2.0605,2.0605,2.0605,2.0605,2.0605,2.0693,2.082,2.082,2.1875,2.3091,2.3091,2.3091,2.3091,2.3091,2.3091,2.3091,2.3091,2.3091,2.3091,2.3091,2.3091,2.3091,2.3091,2.3091,2.3078,2.2997,2.1987,2.0786,1.9572,1.8365,1.7174,1.6008,1.5848,1.5855,1.5881,1.5881,1.6021,1.6394,1.6372,1.6344,1.6364,1.6344,1.6198,1.5861,1.5848,1.5828,1.5808,1.5808,1.5808,1.5808,1.6232,1.8687,2.3091,2.3091,2.3091,2.309,2.2644,2.2448,2.247,2.2916,2.2851,2.2479,2.2917,2.3091,2.3091,2.3091,2.3091,2.3091,2.3091,2.3209,2.3316,2.3091,2.1748,2.0605,2.0605,2.0605,2.0605,2.0605,2.0605,2.0605,2.0605,2.0605,2.0605,2.0605,2.0605,2.0605,2.0605,2.0605,2.0605,2.0605,2.0605,2.0605,2.0605,2.0605,2.0605,2.0605,1.8887,1.7999,1.7999,1.7999,1.7999,1.7999,1.7999,1.7999,1.8058,1.9432,1.9286,1.8087,1.9462,2.0038,2.0038,2.0038,2.0038,2.0087,2.0459,2.0605,2.0605,2.0605,2.0605,2.0605,2.0605,2.1475,2.2557,2.2557,2.281,2.3091,2.3091,2.3091,2.3091,2.3091,2.3091,2.3091,2.3091,2.3091,2.3091,2.3091,2.3091,2.3091,2.3091,2.3091,2.2891,2.2207,2.1049,1.9816,1.8596,1.7392,1.6511,1.6233,1.6191,1.6271,1.6474,1.6501,1.6534,1.6633,1.662,1.6673,1.684,1.67,1.6486,1.6217,1.6191,1.6072,1.5815,1.5808,1.5808,1.5808,1.9602,2.2052,2.3091,2.3091,2.3091,2.2971,1.9134,1.7382,1.7604,2.1433,2.0921,1.7677,2.1521,2.3091,2.3091,2.3091,2.3091,2.3091,2.3091,2.3958,2.4945,2.3091,2.2391,2.1543,2.0742,2.0605,2.0605,2.0605,2.0605,2.0605,2.0605,2.0605,2.0605,2.0605,2.0605,2.0605,2.0605,2.0605,2.0605,2.0605,2.0605,2.0605,2.0605,2.0605,2.0605,2.0605,1.9706,1.9238,1.9238,1.9238,1.9238,1.9218,1.8389,1.7999,1.8077,1.9814,2.0097,1.9296,2.0205,2.0605,2.0605,2.0605,2.0605,2.0605,2.0605,2.0605,2.0605,2.0605,2.0605,2.0605,2.0605,2.1709,2.3091,2.3091,2.3091,2.3091,2.3091,2.3091,2.3091,2.3091,2.3091,2.3091,2.3091,2.3091,2.3091,2.3091,2.3091,2.316,2.3397,2.3436,2.3163,2.2256,2.0943,1.9612,1.8481,1.7176,1.6344,1.6472,1.6492,1.6579,1.6814,1.6767,1.676,1.692,1.7054,1.712,1.71,1.6999,1.6812,1.6512,1.6492,1.6366,1.6088,1.5901,1.5808,1.5808,2.0643,2.3091,2.3091,2.3091,2.1885,1.9526,1.6976,1.5808,1.5944,1.8503,1.8176,1.6185,2.1078,2.3091,2.3179,2.4019,2.3822,2.3209,2.4027,2.4926,2.5569,2.3033,2.3091,2.2576,2.0889,2.0605,2.0605,2.0605,2.0605,2.0605,2.0605,2.0605,2.0605,2.0605,2.0605,2.0605,2.0605,2.086,2.1026,2.1026,2.0762,2.0605,2.0605,2.0605,2.0605,2.0605,2.0605,2.0605,2.0605,2.0605,2.0605,2.0566,1.912,1.8439,1.8506,1.996,2.0605,2.0605,2.0605,2.0605,2.0605,2.0605,2.0605,2.0605,2.0605,2.0605,2.0605,2.0605,2.0781,2.1026,2.1026,2.1953,2.3091,2.3091,2.3091,2.3091,2.3091,2.3091,2.3091,2.3091,2.3091,2.3091,2.3091,2.316,2.3219,2.3219,2.3219,2.3357,2.3809,2.3717,2.3275,2.2327,2.0933,1.955,1.8459,1.7247,1.6531,1.6747,1.6793,1.686,1.7087,1.7001,1.7034,1.734,1.7542,1.7595,1.7387,1.7307,1.7133,1.68,1.6767,1.6641,1.6407,1.6008,1.5808,1.5808,2.0948,2.3539,2.3539,2.3539,2.0817,1.5808,1.5808,1.5808,1.5808,1.5808,1.5808,1.6185,2.1078,2.3091,2.3266,2.5023,2.4818,2.3726,2.5169,2.5706,2.5706,2.2819,2.3091,2.2576,2.0889,2.0605,2.0605,2.0605,2.0605,2.0605,2.0605,2.0605,2.0605,2.0605,2.0605,2.0605,2.0605,2.1934,2.2761,2.2761,2.1407,2.0605,2.0605,2.0605,2.0605,2.0605,2.0605,2.0605,2.0605,2.0605,2.0605,2.0586,2.0361,2.0243,2.0253,2.0488,2.0605,2.0605,2.0605,2.0605,2.0605,2.0605,2.0605,2.0605,2.0605,2.0605,2.0605,2.0605,2.1523,2.2761,2.2761,2.2907,2.3091,2.3091,2.3091,2.3091,2.3091,2.3091,2.3091,2.3091,2.3091,2.3091,2.3091,2.3417,2.3712,2.3712,2.3712,2.3818,2.4237,2.3406,2.2298,2.1357,2.0069,1.8754,1.7572,1.7207,1.7092,1.7132,1.7126,1.7233,1.7495,1.7702,1.7896,1.8056,1.7989,1.7976,1.8056,1.7735,1.7421,1.7146,1.702,1.6787,1.6414,1.6008,1.5808,1.5808,2.2148,2.5345,2.5345,2.5345,2.1994,1.5808,1.5808,1.5808,1.5808,1.5808,1.5808,1.6185,2.1078,2.3091,2.3266,2.5023,2.5559,2.5374,2.5618,2.5706,2.5706,2.1563,2.1699,2.1475,2.0723,2.0605,2.0605,2.0605,2.0605,2.0605,2.0605,2.0605,2.0605,2.0605,2.0605,2.0605,2.0605,2.2128,2.3091,2.3091,2.2411,2.1582,2.0644,2.0605,2.0605,2.0605,2.0605,2.0605,2.0605,2.0605,2.0605,2.0605,2.0605,2.0605,2.0605,2.0605,2.0605,2.0605,2.0605,2.0605,2.0605,2.0605,2.0605,2.0605,2.0605,2.0605,2.0723,2.166,2.2469,2.3091,2.3091,2.3091,2.3091,2.3091,2.3091,2.3091,2.3091,2.3091,2.3091,2.3091,2.3091,2.318,2.3523,2.3758,2.4014,2.4426,2.4525,2.4584,2.4758,2.3687,2.2461,2.1557,2.0137,1.8747,1.7608,1.7306,1.7247,1.7394,1.7414,1.7468,1.7595,1.7695,1.7796,1.7863,1.7809,1.7862,1.8069,1.7782,1.7615,1.7649,1.7455,1.7248,1.7087,1.8392,1.9814,2.1326,2.4241,2.5706,2.5659,2.2626,1.9631,1.6807,1.6807,1.6807,1.6807,1.6807,1.8525,2.1494,2.3652,2.4555,2.4633,2.5403,2.5706,2.5706,2.5706,2.5706,2.5706]}]]